<?xml version="1.0" encoding="UTF-8" standalone="no" ?>
<gpx xmlns="http://www.topografix.com/GPX/1/1" xmlns:xsi="http://www.w3.org/2001/XMLSchema-instance" xsi:schemaLocation="http://www.topografix.com/GPX/1/1 http://www.topografix.com/GPX/1/1/gpx.xsd" version="1.1" creator="VisuGPX - https://www.visugpx.com">
  <metadata>
    <name>RSPG Projet VTT pour Mardi 27 décembre </name>
    <desc><![CDATA[Sommet de Montsérieux depuis Gigors]]></desc>
  </metadata>
  <trk>
    <name><![CDATA[Gigors montsérieux]]></name>
    <trkseg>
      <trkpt lat="44.41851" lon="6.16132">
        <ele>876.37915</ele>
        <time>2011-07-20T08:41:31Z</time>
      </trkpt>
      <trkpt lat="44.41854" lon="6.16129">
        <ele>878.301758</ele>
        <time>2011-07-20T08:41:34Z</time>
      </trkpt>
      <trkpt lat="44.41855" lon="6.16127">
        <ele>878.782471</ele>
        <time>2011-07-20T08:41:36Z</time>
      </trkpt>
      <trkpt lat="44.4186" lon="6.16105">
        <ele>879.262939</ele>
        <time>2011-07-20T08:41:48Z</time>
      </trkpt>
      <trkpt lat="44.41861" lon="6.16103">
        <ele>879.743652</ele>
        <time>2011-07-20T08:41:49Z</time>
      </trkpt>
      <trkpt lat="44.41865" lon="6.16077">
        <ele>880.224365</ele>
        <time>2011-07-20T08:42:01Z</time>
      </trkpt>
      <trkpt lat="44.41867" lon="6.16057">
        <ele>881.185791</ele>
        <time>2011-07-20T08:42:20Z</time>
      </trkpt>
      <trkpt lat="44.41869" lon="6.16059">
        <ele>881.66626</ele>
        <time>2011-07-20T08:43:12Z</time>
      </trkpt>
      <trkpt lat="44.41876" lon="6.16027">
        <ele>881.66626</ele>
        <time>2011-07-20T08:44:01Z</time>
      </trkpt>
      <trkpt lat="44.41876" lon="6.16019">
        <ele>882.146973</ele>
        <time>2011-07-20T08:44:03Z</time>
      </trkpt>
      <trkpt lat="44.41881" lon="6.15984">
        <ele>882.146973</ele>
        <time>2011-07-20T08:44:12Z</time>
      </trkpt>
      <trkpt lat="44.41887" lon="6.15952">
        <ele>883.108154</ele>
        <time>2011-07-20T08:44:21Z</time>
      </trkpt>
      <trkpt lat="44.41898" lon="6.15906">
        <ele>884.06958</ele>
        <time>2011-07-20T08:44:33Z</time>
      </trkpt>
      <trkpt lat="44.41893" lon="6.15896">
        <ele>884.550293</ele>
        <time>2011-07-20T08:44:37Z</time>
      </trkpt>
      <trkpt lat="44.41897" lon="6.15848">
        <ele>886.953369</ele>
        <time>2011-07-20T08:44:50Z</time>
      </trkpt>
      <trkpt lat="44.41901" lon="6.15824">
        <ele>887.914795</ele>
        <time>2011-07-20T08:44:57Z</time>
      </trkpt>
      <trkpt lat="44.41901" lon="6.15806">
        <ele>889.837402</ele>
        <time>2011-07-20T08:45:02Z</time>
      </trkpt>
      <trkpt lat="44.41901" lon="6.15804">
        <ele>889.837402</ele>
        <time>2011-07-20T08:45:03Z</time>
      </trkpt>
      <trkpt lat="44.41906" lon="6.1576">
        <ele>889.837402</ele>
        <time>2011-07-20T08:45:18Z</time>
      </trkpt>
      <trkpt lat="44.41906" lon="6.15715">
        <ele>891.279297</ele>
        <time>2011-07-20T08:45:33Z</time>
      </trkpt>
      <trkpt lat="44.41901" lon="6.1567">
        <ele>892.72168</ele>
        <time>2011-07-20T08:45:50Z</time>
      </trkpt>
      <trkpt lat="44.419" lon="6.15655">
        <ele>895.124756</ele>
        <time>2011-07-20T08:45:56Z</time>
      </trkpt>
      <trkpt lat="44.41898" lon="6.15612">
        <ele>896.566895</ele>
        <time>2011-07-20T08:46:12Z</time>
      </trkpt>
      <trkpt lat="44.41898" lon="6.15607">
        <ele>897.528076</ele>
        <time>2011-07-20T08:46:14Z</time>
      </trkpt>
      <trkpt lat="44.41902" lon="6.15583">
        <ele>898.969971</ele>
        <time>2011-07-20T08:46:30Z</time>
      </trkpt>
      <trkpt lat="44.41902" lon="6.15583">
        <ele>898.969971</ele>
        <time>2011-07-20T08:46:31Z</time>
      </trkpt>
      <trkpt lat="44.41902" lon="6.15583">
        <ele>896.566895</ele>
        <time>2011-07-20T08:46:36Z</time>
      </trkpt>
      <trkpt lat="44.41902" lon="6.15583">
        <ele>898.489258</ele>
        <time>2011-07-20T08:46:38Z</time>
      </trkpt>
      <trkpt lat="44.41902" lon="6.15583">
        <ele>897.047363</ele>
        <time>2011-07-20T08:46:40Z</time>
      </trkpt>
      <trkpt lat="44.41902" lon="6.15582">
        <ele>896.086182</ele>
        <time>2011-07-20T08:47:17Z</time>
      </trkpt>
      <trkpt lat="44.41902" lon="6.15581">
        <ele>896.566895</ele>
        <time>2011-07-20T08:48:27Z</time>
      </trkpt>
      <trkpt lat="44.41902" lon="6.15581">
        <ele>895.124756</ele>
        <time>2011-07-20T08:48:57Z</time>
      </trkpt>
      <trkpt lat="44.41902" lon="6.1558">
        <ele>895.124756</ele>
        <time>2011-07-20T08:49:18Z</time>
      </trkpt>
      <trkpt lat="44.41901" lon="6.15582">
        <ele>898.008789</ele>
        <time>2011-07-20T08:49:31Z</time>
      </trkpt>
      <trkpt lat="44.41901" lon="6.15582">
        <ele>898.008789</ele>
        <time>2011-07-20T08:49:32Z</time>
      </trkpt>
      <trkpt lat="44.419" lon="6.15583">
        <ele>896.086182</ele>
        <time>2011-07-20T08:49:43Z</time>
      </trkpt>
      <trkpt lat="44.419" lon="6.15584">
        <ele>894.644043</ele>
        <time>2011-07-20T08:50:03Z</time>
      </trkpt>
      <trkpt lat="44.41901" lon="6.15585">
        <ele>896.566895</ele>
        <time>2011-07-20T08:50:06Z</time>
      </trkpt>
      <trkpt lat="44.41901" lon="6.15585">
        <ele>897.047363</ele>
        <time>2011-07-20T08:50:18Z</time>
      </trkpt>
      <trkpt lat="44.41901" lon="6.15585">
        <ele>894.163574</ele>
        <time>2011-07-20T08:50:55Z</time>
      </trkpt>
      <trkpt lat="44.41901" lon="6.15585">
        <ele>897.047363</ele>
        <time>2011-07-20T08:51:00Z</time>
      </trkpt>
      <trkpt lat="44.41901" lon="6.15585">
        <ele>896.086182</ele>
        <time>2011-07-20T08:51:04Z</time>
      </trkpt>
      <trkpt lat="44.41901" lon="6.15585">
        <ele>895.605469</ele>
        <time>2011-07-20T08:51:11Z</time>
      </trkpt>
      <trkpt lat="44.41901" lon="6.15585">
        <ele>898.969971</ele>
        <time>2011-07-20T08:51:14Z</time>
      </trkpt>
      <trkpt lat="44.419" lon="6.15585">
        <ele>897.047363</ele>
        <time>2011-07-20T08:51:15Z</time>
      </trkpt>
      <trkpt lat="44.419" lon="6.15585">
        <ele>896.086182</ele>
        <time>2011-07-20T08:51:23Z</time>
      </trkpt>
      <trkpt lat="44.419" lon="6.15585">
        <ele>897.528076</ele>
        <time>2011-07-20T08:51:25Z</time>
      </trkpt>
      <trkpt lat="44.41901" lon="6.15586">
        <ele>893.682861</ele>
        <time>2011-07-20T08:51:26Z</time>
      </trkpt>
      <trkpt lat="44.41901" lon="6.15586">
        <ele>893.682861</ele>
        <time>2011-07-20T08:51:27Z</time>
      </trkpt>
      <trkpt lat="44.41901" lon="6.15586">
        <ele>897.047363</ele>
        <time>2011-07-20T08:51:28Z</time>
      </trkpt>
      <trkpt lat="44.41901" lon="6.15586">
        <ele>898.008789</ele>
        <time>2011-07-20T08:51:30Z</time>
      </trkpt>
      <trkpt lat="44.41904" lon="6.15559">
        <ele>897.047363</ele>
        <time>2011-07-20T08:51:40Z</time>
      </trkpt>
      <trkpt lat="44.41914" lon="6.15492">
        <ele>899.931396</ele>
        <time>2011-07-20T08:52:04Z</time>
      </trkpt>
      <trkpt lat="44.41921" lon="6.15439">
        <ele>903.295898</ele>
        <time>2011-07-20T08:52:24Z</time>
      </trkpt>
      <trkpt lat="44.41929" lon="6.15388">
        <ele>904.737793</ele>
        <time>2011-07-20T08:52:43Z</time>
      </trkpt>
      <trkpt lat="44.41938" lon="6.15332">
        <ele>908.102783</ele>
        <time>2011-07-20T08:53:04Z</time>
      </trkpt>
      <trkpt lat="44.41948" lon="6.15276">
        <ele>910.505859</ele>
        <time>2011-07-20T08:53:26Z</time>
      </trkpt>
      <trkpt lat="44.41963" lon="6.15209">
        <ele>912.428467</ele>
        <time>2011-07-20T08:53:52Z</time>
      </trkpt>
      <trkpt lat="44.41981" lon="6.15153">
        <ele>913.870361</ele>
        <time>2011-07-20T08:54:14Z</time>
      </trkpt>
      <trkpt lat="44.41999" lon="6.15104">
        <ele>915.3125</ele>
        <time>2011-07-20T08:54:33Z</time>
      </trkpt>
      <trkpt lat="44.42019" lon="6.15047">
        <ele>916.754395</ele>
        <time>2011-07-20T08:54:53Z</time>
      </trkpt>
      <trkpt lat="44.42046" lon="6.14975">
        <ele>918.196289</ele>
        <time>2011-07-20T08:55:18Z</time>
      </trkpt>
      <trkpt lat="44.42099" lon="6.14942">
        <ele>917.715576</ele>
        <time>2011-07-20T08:55:37Z</time>
      </trkpt>
      <trkpt lat="44.42103" lon="6.1494">
        <ele>917.235107</ele>
        <time>2011-07-20T08:55:38Z</time>
      </trkpt>
      <trkpt lat="44.42131" lon="6.14929">
        <ele>915.793213</ele>
        <time>2011-07-20T08:55:44Z</time>
      </trkpt>
      <trkpt lat="44.4214" lon="6.14925">
        <ele>914.831787</ele>
        <time>2011-07-20T08:55:46Z</time>
      </trkpt>
      <trkpt lat="44.42154" lon="6.14913">
        <ele>916.273682</ele>
        <time>2011-07-20T08:55:49Z</time>
      </trkpt>
      <trkpt lat="44.42161" lon="6.14893">
        <ele>916.273682</ele>
        <time>2011-07-20T08:55:52Z</time>
      </trkpt>
      <trkpt lat="44.42152" lon="6.14801">
        <ele>914.351074</ele>
        <time>2011-07-20T08:56:08Z</time>
      </trkpt>
      <trkpt lat="44.4215" lon="6.14798">
        <ele>918.196289</ele>
        <time>2011-07-20T08:56:09Z</time>
      </trkpt>
      <trkpt lat="44.42148" lon="6.14795">
        <ele>918.196289</ele>
        <time>2011-07-20T08:56:10Z</time>
      </trkpt>
      <trkpt lat="44.4212" lon="6.14787">
        <ele>917.235107</ele>
        <time>2011-07-20T08:56:23Z</time>
      </trkpt>
      <trkpt lat="44.42091" lon="6.14778">
        <ele>919.638428</ele>
        <time>2011-07-20T08:56:35Z</time>
      </trkpt>
      <trkpt lat="44.42087" lon="6.14741">
        <ele>920.118896</ele>
        <time>2011-07-20T08:56:47Z</time>
      </trkpt>
      <trkpt lat="44.42102" lon="6.14684">
        <ele>922.041504</ele>
        <time>2011-07-20T08:57:07Z</time>
      </trkpt>
      <trkpt lat="44.42102" lon="6.14681">
        <ele>922.041504</ele>
        <time>2011-07-20T08:57:08Z</time>
      </trkpt>
      <trkpt lat="44.42107" lon="6.14663">
        <ele>921.080322</ele>
        <time>2011-07-20T08:57:14Z</time>
      </trkpt>
      <trkpt lat="44.42113" lon="6.14641">
        <ele>923.964111</ele>
        <time>2011-07-20T08:57:22Z</time>
      </trkpt>
      <trkpt lat="44.42115" lon="6.14635">
        <ele>922.041504</ele>
        <time>2011-07-20T08:57:24Z</time>
      </trkpt>
      <trkpt lat="44.42116" lon="6.1463">
        <ele>923.964111</ele>
        <time>2011-07-20T08:57:26Z</time>
      </trkpt>
      <trkpt lat="44.42129" lon="6.14562">
        <ele>926.367676</ele>
        <time>2011-07-20T08:57:49Z</time>
      </trkpt>
      <trkpt lat="44.42128" lon="6.14542">
        <ele>927.329102</ele>
        <time>2011-07-20T08:57:56Z</time>
      </trkpt>
      <trkpt lat="44.42123" lon="6.14488">
        <ele>931.174316</ele>
        <time>2011-07-20T08:58:14Z</time>
      </trkpt>
      <trkpt lat="44.42123" lon="6.14485">
        <ele>931.174316</ele>
        <time>2011-07-20T08:58:15Z</time>
      </trkpt>
      <trkpt lat="44.42121" lon="6.14473">
        <ele>927.329102</ele>
        <time>2011-07-20T08:58:19Z</time>
      </trkpt>
      <trkpt lat="44.42121" lon="6.1447">
        <ele>928.770996</ele>
        <time>2011-07-20T08:58:20Z</time>
      </trkpt>
      <trkpt lat="44.42114" lon="6.144">
        <ele>931.654785</ele>
        <time>2011-07-20T08:58:44Z</time>
      </trkpt>
      <trkpt lat="44.42107" lon="6.14326">
        <ele>934.058105</ele>
        <time>2011-07-20T08:59:10Z</time>
      </trkpt>
      <trkpt lat="44.42109" lon="6.14271">
        <ele>935.5</ele>
        <time>2011-07-20T08:59:29Z</time>
      </trkpt>
      <trkpt lat="44.42137" lon="6.14221">
        <ele>938.384033</ele>
        <time>2011-07-20T08:59:51Z</time>
      </trkpt>
      <trkpt lat="44.42171" lon="6.14168">
        <ele>940.306885</ele>
        <time>2011-07-20T09:00:16Z</time>
      </trkpt>
      <trkpt lat="44.42206" lon="6.14115">
        <ele>942.229492</ele>
        <time>2011-07-20T09:00:40Z</time>
      </trkpt>
      <trkpt lat="44.42225" lon="6.14059">
        <ele>944.632568</ele>
        <time>2011-07-20T09:01:03Z</time>
      </trkpt>
      <trkpt lat="44.42209" lon="6.14019">
        <ele>945.113281</ele>
        <time>2011-07-20T09:01:18Z</time>
      </trkpt>
      <trkpt lat="44.42165" lon="6.13993">
        <ele>947.035889</ele>
        <time>2011-07-20T09:01:40Z</time>
      </trkpt>
      <trkpt lat="44.42144" lon="6.13945">
        <ele>949.439209</ele>
        <time>2011-07-20T09:02:00Z</time>
      </trkpt>
      <trkpt lat="44.4213" lon="6.13895">
        <ele>951.361816</ele>
        <time>2011-07-20T09:02:19Z</time>
      </trkpt>
      <trkpt lat="44.42115" lon="6.13824">
        <ele>952.322998</ele>
        <time>2011-07-20T09:02:44Z</time>
      </trkpt>
      <trkpt lat="44.42111" lon="6.13753">
        <ele>954.726318</ele>
        <time>2011-07-20T09:03:09Z</time>
      </trkpt>
      <trkpt lat="44.4209" lon="6.13706">
        <ele>955.687744</ele>
        <time>2011-07-20T09:03:27Z</time>
      </trkpt>
      <trkpt lat="44.42079" lon="6.13649">
        <ele>959.05249</ele>
        <time>2011-07-20T09:03:49Z</time>
      </trkpt>
      <trkpt lat="44.4205" lon="6.1362">
        <ele>960.975098</ele>
        <time>2011-07-20T09:04:07Z</time>
      </trkpt>
      <trkpt lat="44.42051" lon="6.1357">
        <ele>962.897705</ele>
        <time>2011-07-20T09:04:26Z</time>
      </trkpt>
      <trkpt lat="44.42052" lon="6.13568">
        <ele>962.897705</ele>
        <time>2011-07-20T09:04:27Z</time>
      </trkpt>
      <trkpt lat="44.42067" lon="6.1354">
        <ele>965.301025</ele>
        <time>2011-07-20T09:04:41Z</time>
      </trkpt>
      <trkpt lat="44.42053" lon="6.13487">
        <ele>967.704102</ele>
        <time>2011-07-20T09:05:01Z</time>
      </trkpt>
      <trkpt lat="44.42031" lon="6.13445">
        <ele>968.665527</ele>
        <time>2011-07-20T09:05:19Z</time>
      </trkpt>
      <trkpt lat="44.41996" lon="6.13443">
        <ele>969.626953</ele>
        <time>2011-07-20T09:05:37Z</time>
      </trkpt>
      <trkpt lat="44.41994" lon="6.13441">
        <ele>970.107422</ele>
        <time>2011-07-20T09:05:38Z</time>
      </trkpt>
      <trkpt lat="44.41987" lon="6.13402">
        <ele>970.588135</ele>
        <time>2011-07-20T09:05:53Z</time>
      </trkpt>
      <trkpt lat="44.41986" lon="6.13394">
        <ele>972.510986</ele>
        <time>2011-07-20T09:05:56Z</time>
      </trkpt>
      <trkpt lat="44.41953" lon="6.1337">
        <ele>972.991699</ele>
        <time>2011-07-20T09:06:14Z</time>
      </trkpt>
      <trkpt lat="44.41951" lon="6.1337">
        <ele>975.394775</ele>
        <time>2011-07-20T09:06:16Z</time>
      </trkpt>
      <trkpt lat="44.41913" lon="6.13387">
        <ele>975.875488</ele>
        <time>2011-07-20T09:06:36Z</time>
      </trkpt>
      <trkpt lat="44.41889" lon="6.13351">
        <ele>977.798096</ele>
        <time>2011-07-20T09:06:53Z</time>
      </trkpt>
      <trkpt lat="44.41863" lon="6.13291">
        <ele>975.394775</ele>
        <time>2011-07-20T09:07:17Z</time>
      </trkpt>
      <trkpt lat="44.41862" lon="6.13288">
        <ele>979.23999</ele>
        <time>2011-07-20T09:07:18Z</time>
      </trkpt>
      <trkpt lat="44.41861" lon="6.13286">
        <ele>979.23999</ele>
        <time>2011-07-20T09:07:19Z</time>
      </trkpt>
      <trkpt lat="44.41832" lon="6.13201">
        <ele>982.124023</ele>
        <time>2011-07-20T09:07:53Z</time>
      </trkpt>
      <trkpt lat="44.41809" lon="6.13143">
        <ele>984.527344</ele>
        <time>2011-07-20T09:08:17Z</time>
      </trkpt>
      <trkpt lat="44.4177" lon="6.13115">
        <ele>985.969238</ele>
        <time>2011-07-20T09:08:37Z</time>
      </trkpt>
      <trkpt lat="44.41747" lon="6.13057">
        <ele>987.411133</ele>
        <time>2011-07-20T09:08:59Z</time>
      </trkpt>
      <trkpt lat="44.41709" lon="6.1297">
        <ele>986.93042</ele>
        <time>2011-07-20T09:09:22Z</time>
      </trkpt>
      <trkpt lat="44.41674" lon="6.1291">
        <ele>986.93042</ele>
        <time>2011-07-20T09:09:39Z</time>
      </trkpt>
      <trkpt lat="44.41633" lon="6.12824">
        <ele>987.411133</ele>
        <time>2011-07-20T09:10:02Z</time>
      </trkpt>
      <trkpt lat="44.41588" lon="6.12764">
        <ele>987.411133</ele>
        <time>2011-07-20T09:10:22Z</time>
      </trkpt>
      <trkpt lat="44.41544" lon="6.127">
        <ele>988.853516</ele>
        <time>2011-07-20T09:10:43Z</time>
      </trkpt>
      <trkpt lat="44.41519" lon="6.12618">
        <ele>985.969238</ele>
        <time>2011-07-20T09:10:58Z</time>
      </trkpt>
      <trkpt lat="44.4149" lon="6.12529">
        <ele>982.604736</ele>
        <time>2011-07-20T09:11:09Z</time>
      </trkpt>
      <trkpt lat="44.41464" lon="6.12461">
        <ele>982.124023</ele>
        <time>2011-07-20T09:11:18Z</time>
      </trkpt>
      <trkpt lat="44.4146" lon="6.12447">
        <ele>981.643311</ele>
        <time>2011-07-20T09:11:20Z</time>
      </trkpt>
      <trkpt lat="44.41457" lon="6.12329">
        <ele>981.162842</ele>
        <time>2011-07-20T09:11:37Z</time>
      </trkpt>
      <trkpt lat="44.41459" lon="6.12208">
        <ele>978.759521</ele>
        <time>2011-07-20T09:11:52Z</time>
      </trkpt>
      <trkpt lat="44.41428" lon="6.12117">
        <ele>975.875488</ele>
        <time>2011-07-20T09:12:04Z</time>
      </trkpt>
      <trkpt lat="44.41422" lon="6.12102">
        <ele>974.914307</ele>
        <time>2011-07-20T09:12:07Z</time>
      </trkpt>
      <trkpt lat="44.41423" lon="6.12068">
        <ele>972.991699</ele>
        <time>2011-07-20T09:12:13Z</time>
      </trkpt>
      <trkpt lat="44.41427" lon="6.1206">
        <ele>971.549316</ele>
        <time>2011-07-20T09:12:25Z</time>
      </trkpt>
      <trkpt lat="44.41427" lon="6.1206">
        <ele>973.472412</ele>
        <time>2011-07-20T09:12:27Z</time>
      </trkpt>
      <trkpt lat="44.41427" lon="6.1206">
        <ele>971.549316</ele>
        <time>2011-07-20T09:12:34Z</time>
      </trkpt>
      <trkpt lat="44.41427" lon="6.1206">
        <ele>974.433594</ele>
        <time>2011-07-20T09:13:03Z</time>
      </trkpt>
      <trkpt lat="44.41427" lon="6.1206">
        <ele>972.510986</ele>
        <time>2011-07-20T09:14:37Z</time>
      </trkpt>
      <trkpt lat="44.41427" lon="6.1206">
        <ele>971.549316</ele>
        <time>2011-07-20T09:14:51Z</time>
      </trkpt>
      <trkpt lat="44.41427" lon="6.1206">
        <ele>972.030273</ele>
        <time>2011-07-20T09:14:53Z</time>
      </trkpt>
      <trkpt lat="44.41431" lon="6.12061">
        <ele>972.030273</ele>
        <time>2011-07-20T09:14:58Z</time>
      </trkpt>
      <trkpt lat="44.41431" lon="6.12074">
        <ele>973.472412</ele>
        <time>2011-07-20T09:15:04Z</time>
      </trkpt>
      <trkpt lat="44.41429" lon="6.12081">
        <ele>974.433594</ele>
        <time>2011-07-20T09:15:16Z</time>
      </trkpt>
      <trkpt lat="44.41432" lon="6.12076">
        <ele>974.914307</ele>
        <time>2011-07-20T09:15:48Z</time>
      </trkpt>
      <trkpt lat="44.4143" lon="6.12082">
        <ele>973.952881</ele>
        <time>2011-07-20T09:16:58Z</time>
      </trkpt>
      <trkpt lat="44.4143" lon="6.12085">
        <ele>974.433594</ele>
        <time>2011-07-20T09:17:01Z</time>
      </trkpt>
      <trkpt lat="44.41434" lon="6.12099">
        <ele>975.875488</ele>
        <time>2011-07-20T09:17:10Z</time>
      </trkpt>
      <trkpt lat="44.41433" lon="6.12114">
        <ele>976.356201</ele>
        <time>2011-07-20T09:17:17Z</time>
      </trkpt>
      <trkpt lat="44.41446" lon="6.12134">
        <ele>977.798096</ele>
        <time>2011-07-20T09:17:32Z</time>
      </trkpt>
      <trkpt lat="44.41448" lon="6.1214">
        <ele>979.23999</ele>
        <time>2011-07-20T09:17:36Z</time>
      </trkpt>
      <trkpt lat="44.4145" lon="6.12148">
        <ele>979.720703</ele>
        <time>2011-07-20T09:17:42Z</time>
      </trkpt>
      <trkpt lat="44.41461" lon="6.12159">
        <ele>980.682129</ele>
        <time>2011-07-20T09:17:51Z</time>
      </trkpt>
      <trkpt lat="44.4147" lon="6.12169">
        <ele>982.124023</ele>
        <time>2011-07-20T09:18:02Z</time>
      </trkpt>
      <trkpt lat="44.41481" lon="6.12185">
        <ele>983.565918</ele>
        <time>2011-07-20T09:18:17Z</time>
      </trkpt>
      <trkpt lat="44.41486" lon="6.12194">
        <ele>985.008057</ele>
        <time>2011-07-20T09:18:25Z</time>
      </trkpt>
      <trkpt lat="44.41491" lon="6.12194">
        <ele>983.565918</ele>
        <time>2011-07-20T09:18:28Z</time>
      </trkpt>
      <trkpt lat="44.41495" lon="6.12197">
        <ele>985.488525</ele>
        <time>2011-07-20T09:18:30Z</time>
      </trkpt>
      <trkpt lat="44.41503" lon="6.1221">
        <ele>985.969238</ele>
        <time>2011-07-20T09:18:41Z</time>
      </trkpt>
      <trkpt lat="44.41501" lon="6.12218">
        <ele>987.891846</ele>
        <time>2011-07-20T09:18:44Z</time>
      </trkpt>
      <trkpt lat="44.41509" lon="6.12227">
        <ele>988.372803</ele>
        <time>2011-07-20T09:18:54Z</time>
      </trkpt>
      <trkpt lat="44.41515" lon="6.1223">
        <ele>989.333984</ele>
        <time>2011-07-20T09:19:01Z</time>
      </trkpt>
      <trkpt lat="44.41524" lon="6.12234">
        <ele>989.814697</ele>
        <time>2011-07-20T09:19:08Z</time>
      </trkpt>
      <trkpt lat="44.41527" lon="6.1225">
        <ele>991.256592</ele>
        <time>2011-07-20T09:19:16Z</time>
      </trkpt>
      <trkpt lat="44.41537" lon="6.12263">
        <ele>993.179199</ele>
        <time>2011-07-20T09:19:30Z</time>
      </trkpt>
      <trkpt lat="44.41538" lon="6.12262">
        <ele>993.179199</ele>
        <time>2011-07-20T09:19:31Z</time>
      </trkpt>
      <trkpt lat="44.41547" lon="6.12277">
        <ele>995.101807</ele>
        <time>2011-07-20T09:19:46Z</time>
      </trkpt>
      <trkpt lat="44.41547" lon="6.12278">
        <ele>995.101807</ele>
        <time>2011-07-20T09:19:47Z</time>
      </trkpt>
      <trkpt lat="44.41554" lon="6.12297">
        <ele>997.505127</ele>
        <time>2011-07-20T09:20:02Z</time>
      </trkpt>
      <trkpt lat="44.41555" lon="6.12298">
        <ele>997.505127</ele>
        <time>2011-07-20T09:20:03Z</time>
      </trkpt>
      <trkpt lat="44.41557" lon="6.12301">
        <ele>997.505127</ele>
        <time>2011-07-20T09:20:05Z</time>
      </trkpt>
      <trkpt lat="44.4156" lon="6.12304">
        <ele>997.98584</ele>
        <time>2011-07-20T09:20:08Z</time>
      </trkpt>
      <trkpt lat="44.41563" lon="6.12313">
        <ele>998.947021</ele>
        <time>2011-07-20T09:20:15Z</time>
      </trkpt>
      <trkpt lat="44.41563" lon="6.12322">
        <ele>999.908447</ele>
        <time>2011-07-20T09:20:21Z</time>
      </trkpt>
      <trkpt lat="44.41571" lon="6.12336">
        <ele>1001.350342</ele>
        <time>2011-07-20T09:20:33Z</time>
      </trkpt>
      <trkpt lat="44.41578" lon="6.12352">
        <ele>1004.234619</ele>
        <time>2011-07-20T09:20:47Z</time>
      </trkpt>
      <trkpt lat="44.41579" lon="6.12357">
        <ele>1004.715088</ele>
        <time>2011-07-20T09:20:51Z</time>
      </trkpt>
      <trkpt lat="44.4159" lon="6.12368">
        <ele>1007.599121</ele>
        <time>2011-07-20T09:21:05Z</time>
      </trkpt>
      <trkpt lat="44.41593" lon="6.12373">
        <ele>1008.079834</ele>
        <time>2011-07-20T09:21:10Z</time>
      </trkpt>
      <trkpt lat="44.416" lon="6.12377">
        <ele>1009.521729</ele>
        <time>2011-07-20T09:21:21Z</time>
      </trkpt>
      <trkpt lat="44.41604" lon="6.12375">
        <ele>1010.002197</ele>
        <time>2011-07-20T09:21:25Z</time>
      </trkpt>
      <trkpt lat="44.41618" lon="6.12373">
        <ele>1011.925049</ele>
        <time>2011-07-20T09:21:37Z</time>
      </trkpt>
      <trkpt lat="44.41621" lon="6.12372">
        <ele>1012.88623</ele>
        <time>2011-07-20T09:21:42Z</time>
      </trkpt>
      <trkpt lat="44.41629" lon="6.12379">
        <ele>1013.847412</ele>
        <time>2011-07-20T09:21:50Z</time>
      </trkpt>
      <trkpt lat="44.4163" lon="6.12384">
        <ele>1014.328125</ele>
        <time>2011-07-20T09:21:53Z</time>
      </trkpt>
      <trkpt lat="44.41628" lon="6.12409">
        <ele>1017.212158</ele>
        <time>2011-07-20T09:22:11Z</time>
      </trkpt>
      <trkpt lat="44.41626" lon="6.12424">
        <ele>1019.615479</ele>
        <time>2011-07-20T09:22:26Z</time>
      </trkpt>
      <trkpt lat="44.41624" lon="6.12442">
        <ele>1021.057617</ele>
        <time>2011-07-20T09:22:43Z</time>
      </trkpt>
      <trkpt lat="44.41624" lon="6.12445">
        <ele>1021.538086</ele>
        <time>2011-07-20T09:22:45Z</time>
      </trkpt>
      <trkpt lat="44.41623" lon="6.12451">
        <ele>1021.538086</ele>
        <time>2011-07-20T09:22:48Z</time>
      </trkpt>
      <trkpt lat="44.41624" lon="6.12462">
        <ele>1022.980225</ele>
        <time>2011-07-20T09:22:55Z</time>
      </trkpt>
      <trkpt lat="44.41624" lon="6.12465">
        <ele>1022.980225</ele>
        <time>2011-07-20T09:22:58Z</time>
      </trkpt>
      <trkpt lat="44.41636" lon="6.12471">
        <ele>1024.902832</ele>
        <time>2011-07-20T09:23:11Z</time>
      </trkpt>
      <trkpt lat="44.41641" lon="6.12467">
        <ele>1025.864014</ele>
        <time>2011-07-20T09:23:17Z</time>
      </trkpt>
      <trkpt lat="44.41648" lon="6.12446">
        <ele>1028.267334</ele>
        <time>2011-07-20T09:23:33Z</time>
      </trkpt>
      <trkpt lat="44.41648" lon="6.12437">
        <ele>1028.748047</ele>
        <time>2011-07-20T09:23:39Z</time>
      </trkpt>
      <trkpt lat="44.41651" lon="6.12431">
        <ele>1029.228516</ele>
        <time>2011-07-20T09:23:43Z</time>
      </trkpt>
      <trkpt lat="44.41654" lon="6.12412">
        <ele>1031.151367</ele>
        <time>2011-07-20T09:23:56Z</time>
      </trkpt>
      <trkpt lat="44.41654" lon="6.12402">
        <ele>1031.631836</ele>
        <time>2011-07-20T09:24:03Z</time>
      </trkpt>
      <trkpt lat="44.41654" lon="6.1239">
        <ele>1033.554443</ele>
        <time>2011-07-20T09:24:10Z</time>
      </trkpt>
      <trkpt lat="44.41656" lon="6.12377">
        <ele>1034.996582</ele>
        <time>2011-07-20T09:24:20Z</time>
      </trkpt>
      <trkpt lat="44.41657" lon="6.1237">
        <ele>1035.957764</ele>
        <time>2011-07-20T09:24:25Z</time>
      </trkpt>
      <trkpt lat="44.41659" lon="6.12344">
        <ele>1038.361328</ele>
        <time>2011-07-20T09:24:40Z</time>
      </trkpt>
      <trkpt lat="44.41664" lon="6.12336">
        <ele>1039.32251</ele>
        <time>2011-07-20T09:24:49Z</time>
      </trkpt>
      <trkpt lat="44.41665" lon="6.12334">
        <ele>1039.803223</ele>
        <time>2011-07-20T09:24:52Z</time>
      </trkpt>
      <trkpt lat="44.41668" lon="6.1233">
        <ele>1040.764404</ele>
        <time>2011-07-20T09:24:56Z</time>
      </trkpt>
      <trkpt lat="44.41668" lon="6.12322">
        <ele>1043.167725</ele>
        <time>2011-07-20T09:25:08Z</time>
      </trkpt>
      <trkpt lat="44.41661" lon="6.12318">
        <ele>1043.167725</ele>
        <time>2011-07-20T09:25:13Z</time>
      </trkpt>
      <trkpt lat="44.41658" lon="6.12319">
        <ele>1043.648438</ele>
        <time>2011-07-20T09:25:16Z</time>
      </trkpt>
      <trkpt lat="44.41646" lon="6.12316">
        <ele>1045.090332</ele>
        <time>2011-07-20T09:25:26Z</time>
      </trkpt>
      <trkpt lat="44.41629" lon="6.12312">
        <ele>1047.012939</ele>
        <time>2011-07-20T09:25:40Z</time>
      </trkpt>
      <trkpt lat="44.41616" lon="6.1231">
        <ele>1048.935547</ele>
        <time>2011-07-20T09:25:57Z</time>
      </trkpt>
      <trkpt lat="44.41617" lon="6.12311">
        <ele>1048.935547</ele>
        <time>2011-07-20T09:25:59Z</time>
      </trkpt>
      <trkpt lat="44.41627" lon="6.12312">
        <ele>1049.41626</ele>
        <time>2011-07-20T09:26:05Z</time>
      </trkpt>
      <trkpt lat="44.4164" lon="6.12316">
        <ele>1050.377686</ele>
        <time>2011-07-20T09:26:15Z</time>
      </trkpt>
      <trkpt lat="44.41643" lon="6.12315">
        <ele>1050.377686</ele>
        <time>2011-07-20T09:26:17Z</time>
      </trkpt>
      <trkpt lat="44.41652" lon="6.1231">
        <ele>1051.338867</ele>
        <time>2011-07-20T09:26:31Z</time>
      </trkpt>
      <trkpt lat="44.41658" lon="6.1231">
        <ele>1052.300293</ele>
        <time>2011-07-20T09:26:37Z</time>
      </trkpt>
      <trkpt lat="44.41664" lon="6.123">
        <ele>1053.742432</ele>
        <time>2011-07-20T09:26:45Z</time>
      </trkpt>
      <trkpt lat="44.41676" lon="6.12289">
        <ele>1054.703613</ele>
        <time>2011-07-20T09:27:00Z</time>
      </trkpt>
      <trkpt lat="44.41684" lon="6.12298">
        <ele>1056.626221</ele>
        <time>2011-07-20T09:27:09Z</time>
      </trkpt>
      <trkpt lat="44.41688" lon="6.12316">
        <ele>1058.068359</ele>
        <time>2011-07-20T09:27:22Z</time>
      </trkpt>
      <trkpt lat="44.4169" lon="6.12328">
        <ele>1061.432861</ele>
        <time>2011-07-20T09:27:41Z</time>
      </trkpt>
      <trkpt lat="44.41699" lon="6.12348">
        <ele>1063.835938</ele>
        <time>2011-07-20T09:27:58Z</time>
      </trkpt>
      <trkpt lat="44.41712" lon="6.1237">
        <ele>1066.719971</ele>
        <time>2011-07-20T09:28:17Z</time>
      </trkpt>
      <trkpt lat="44.41718" lon="6.12374">
        <ele>1067.681152</ele>
        <time>2011-07-20T09:28:25Z</time>
      </trkpt>
      <trkpt lat="44.41718" lon="6.12373">
        <ele>1068.642822</ele>
        <time>2011-07-20T09:28:28Z</time>
      </trkpt>
      <trkpt lat="44.4172" lon="6.12372">
        <ele>1067.200684</ele>
        <time>2011-07-20T09:28:30Z</time>
      </trkpt>
      <trkpt lat="44.4173" lon="6.12378">
        <ele>1069.604248</ele>
        <time>2011-07-20T09:28:40Z</time>
      </trkpt>
      <trkpt lat="44.41742" lon="6.12394">
        <ele>1072.007324</ele>
        <time>2011-07-20T09:28:54Z</time>
      </trkpt>
      <trkpt lat="44.41745" lon="6.12398">
        <ele>1072.007324</ele>
        <time>2011-07-20T09:28:58Z</time>
      </trkpt>
      <trkpt lat="44.41746" lon="6.12401">
        <ele>1072.488037</ele>
        <time>2011-07-20T09:29:01Z</time>
      </trkpt>
      <trkpt lat="44.41764" lon="6.12408">
        <ele>1073.449463</ele>
        <time>2011-07-20T09:29:16Z</time>
      </trkpt>
      <trkpt lat="44.41768" lon="6.12397">
        <ele>1073.929932</ele>
        <time>2011-07-20T09:29:23Z</time>
      </trkpt>
      <trkpt lat="44.41766" lon="6.12389">
        <ele>1073.449463</ele>
        <time>2011-07-20T09:29:28Z</time>
      </trkpt>
      <trkpt lat="44.4176" lon="6.12376">
        <ele>1074.891357</ele>
        <time>2011-07-20T09:29:38Z</time>
      </trkpt>
      <trkpt lat="44.4176" lon="6.12374">
        <ele>1074.891357</ele>
        <time>2011-07-20T09:29:39Z</time>
      </trkpt>
      <trkpt lat="44.4176" lon="6.1237">
        <ele>1075.852539</ele>
        <time>2011-07-20T09:29:43Z</time>
      </trkpt>
      <trkpt lat="44.41754" lon="6.12356">
        <ele>1076.813965</ele>
        <time>2011-07-20T09:29:55Z</time>
      </trkpt>
      <trkpt lat="44.4175" lon="6.12343">
        <ele>1078.255859</ele>
        <time>2011-07-20T09:30:06Z</time>
      </trkpt>
      <trkpt lat="44.41747" lon="6.1234">
        <ele>1079.697754</ele>
        <time>2011-07-20T09:30:11Z</time>
      </trkpt>
      <trkpt lat="44.41738" lon="6.12327">
        <ele>1080.178467</ele>
        <time>2011-07-20T09:30:21Z</time>
      </trkpt>
      <trkpt lat="44.41737" lon="6.12298">
        <ele>1082.101074</ele>
        <time>2011-07-20T09:30:42Z</time>
      </trkpt>
      <trkpt lat="44.41736" lon="6.12274">
        <ele>1083.062256</ele>
        <time>2011-07-20T09:30:57Z</time>
      </trkpt>
      <trkpt lat="44.41735" lon="6.12246">
        <ele>1085.46582</ele>
        <time>2011-07-20T09:31:16Z</time>
      </trkpt>
      <trkpt lat="44.41732" lon="6.12237">
        <ele>1085.46582</ele>
        <time>2011-07-20T09:31:22Z</time>
      </trkpt>
      <trkpt lat="44.41728" lon="6.12228">
        <ele>1087.388428</ele>
        <time>2011-07-20T09:31:28Z</time>
      </trkpt>
      <trkpt lat="44.41727" lon="6.12223">
        <ele>1087.388428</ele>
        <time>2011-07-20T09:31:31Z</time>
      </trkpt>
      <trkpt lat="44.4172" lon="6.12212">
        <ele>1088.830566</ele>
        <time>2011-07-20T09:31:42Z</time>
      </trkpt>
      <trkpt lat="44.41717" lon="6.12212">
        <ele>1089.311035</ele>
        <time>2011-07-20T09:31:45Z</time>
      </trkpt>
      <trkpt lat="44.41714" lon="6.12211">
        <ele>1089.311035</ele>
        <time>2011-07-20T09:31:47Z</time>
      </trkpt>
      <trkpt lat="44.41707" lon="6.12213">
        <ele>1090.272461</ele>
        <time>2011-07-20T09:31:52Z</time>
      </trkpt>
      <trkpt lat="44.41703" lon="6.12215">
        <ele>1090.75293</ele>
        <time>2011-07-20T09:31:56Z</time>
      </trkpt>
      <trkpt lat="44.41697" lon="6.12213">
        <ele>1088.830566</ele>
        <time>2011-07-20T09:32:01Z</time>
      </trkpt>
      <trkpt lat="44.41684" lon="6.12214">
        <ele>1089.791748</ele>
        <time>2011-07-20T09:32:13Z</time>
      </trkpt>
      <trkpt lat="44.41672" lon="6.12208">
        <ele>1091.233643</ele>
        <time>2011-07-20T09:32:25Z</time>
      </trkpt>
      <trkpt lat="44.41671" lon="6.12204">
        <ele>1092.195068</ele>
        <time>2011-07-20T09:32:28Z</time>
      </trkpt>
      <trkpt lat="44.41673" lon="6.122">
        <ele>1092.675781</ele>
        <time>2011-07-20T09:32:32Z</time>
      </trkpt>
      <trkpt lat="44.41672" lon="6.12195">
        <ele>1093.15625</ele>
        <time>2011-07-20T09:32:35Z</time>
      </trkpt>
      <trkpt lat="44.41675" lon="6.1218">
        <ele>1094.598145</ele>
        <time>2011-07-20T09:32:45Z</time>
      </trkpt>
      <trkpt lat="44.41691" lon="6.1217">
        <ele>1095.078857</ele>
        <time>2011-07-20T09:32:59Z</time>
      </trkpt>
      <trkpt lat="44.41707" lon="6.12173">
        <ele>1097.482178</ele>
        <time>2011-07-20T09:33:14Z</time>
      </trkpt>
      <trkpt lat="44.41721" lon="6.12168">
        <ele>1099.404785</ele>
        <time>2011-07-20T09:33:28Z</time>
      </trkpt>
      <trkpt lat="44.41722" lon="6.12168">
        <ele>1099.404785</ele>
        <time>2011-07-20T09:33:30Z</time>
      </trkpt>
      <trkpt lat="44.4173" lon="6.1217">
        <ele>1100.366455</ele>
        <time>2011-07-20T09:33:37Z</time>
      </trkpt>
      <trkpt lat="44.41737" lon="6.1217">
        <ele>1101.327637</ele>
        <time>2011-07-20T09:33:43Z</time>
      </trkpt>
      <trkpt lat="44.41741" lon="6.1217">
        <ele>1100.846924</ele>
        <time>2011-07-20T09:33:47Z</time>
      </trkpt>
      <trkpt lat="44.41747" lon="6.12171">
        <ele>1101.80835</ele>
        <time>2011-07-20T09:33:52Z</time>
      </trkpt>
      <trkpt lat="44.41751" lon="6.12182">
        <ele>1104.21167</ele>
        <time>2011-07-20T09:34:01Z</time>
      </trkpt>
      <trkpt lat="44.4175" lon="6.12207">
        <ele>1103.730957</ele>
        <time>2011-07-20T09:34:16Z</time>
      </trkpt>
      <trkpt lat="44.41754" lon="6.12216">
        <ele>1105.172852</ele>
        <time>2011-07-20T09:34:23Z</time>
      </trkpt>
      <trkpt lat="44.41765" lon="6.12215">
        <ele>1106.134033</ele>
        <time>2011-07-20T09:34:33Z</time>
      </trkpt>
      <trkpt lat="44.41766" lon="6.12213">
        <ele>1106.134033</ele>
        <time>2011-07-20T09:34:35Z</time>
      </trkpt>
      <trkpt lat="44.41767" lon="6.12194">
        <ele>1106.614746</ele>
        <time>2011-07-20T09:34:45Z</time>
      </trkpt>
      <trkpt lat="44.41769" lon="6.12184">
        <ele>1106.134033</ele>
        <time>2011-07-20T09:34:49Z</time>
      </trkpt>
      <trkpt lat="44.41767" lon="6.12173">
        <ele>1108.056885</ele>
        <time>2011-07-20T09:34:55Z</time>
      </trkpt>
      <trkpt lat="44.41767" lon="6.12171">
        <ele>1107.095459</ele>
        <time>2011-07-20T09:34:56Z</time>
      </trkpt>
      <trkpt lat="44.41756" lon="6.1215">
        <ele>1106.614746</ele>
        <time>2011-07-20T09:35:09Z</time>
      </trkpt>
      <trkpt lat="44.41749" lon="6.12147">
        <ele>1108.056885</ele>
        <time>2011-07-20T09:35:14Z</time>
      </trkpt>
      <trkpt lat="44.41739" lon="6.12121">
        <ele>1108.537354</ele>
        <time>2011-07-20T09:35:29Z</time>
      </trkpt>
      <trkpt lat="44.4174" lon="6.12117">
        <ele>1108.537354</ele>
        <time>2011-07-20T09:35:31Z</time>
      </trkpt>
      <trkpt lat="44.41739" lon="6.12111">
        <ele>1108.056885</ele>
        <time>2011-07-20T09:35:34Z</time>
      </trkpt>
      <trkpt lat="44.41737" lon="6.12106">
        <ele>1109.498779</ele>
        <time>2011-07-20T09:35:37Z</time>
      </trkpt>
      <trkpt lat="44.41735" lon="6.12098">
        <ele>1110.940674</ele>
        <time>2011-07-20T09:35:41Z</time>
      </trkpt>
      <trkpt lat="44.41732" lon="6.12094">
        <ele>1111.9021</ele>
        <time>2011-07-20T09:35:43Z</time>
      </trkpt>
      <trkpt lat="44.41723" lon="6.12084">
        <ele>1111.9021</ele>
        <time>2011-07-20T09:35:50Z</time>
      </trkpt>
      <trkpt lat="44.41719" lon="6.12067">
        <ele>1110.940674</ele>
        <time>2011-07-20T09:35:59Z</time>
      </trkpt>
      <trkpt lat="44.41719" lon="6.12057">
        <ele>1111.421387</ele>
        <time>2011-07-20T09:36:05Z</time>
      </trkpt>
      <trkpt lat="44.41718" lon="6.12052">
        <ele>1110.940674</ele>
        <time>2011-07-20T09:36:08Z</time>
      </trkpt>
      <trkpt lat="44.41714" lon="6.12034">
        <ele>1112.863281</ele>
        <time>2011-07-20T09:36:17Z</time>
      </trkpt>
      <trkpt lat="44.41727" lon="6.12005">
        <ele>1114.305176</ele>
        <time>2011-07-20T09:36:35Z</time>
      </trkpt>
      <trkpt lat="44.41735" lon="6.11997">
        <ele>1114.305176</ele>
        <time>2011-07-20T09:36:43Z</time>
      </trkpt>
      <trkpt lat="44.41737" lon="6.11976">
        <ele>1114.785889</ele>
        <time>2011-07-20T09:36:53Z</time>
      </trkpt>
      <trkpt lat="44.41732" lon="6.11966">
        <ele>1116.228027</ele>
        <time>2011-07-20T09:37:00Z</time>
      </trkpt>
      <trkpt lat="44.41709" lon="6.11957">
        <ele>1119.112061</ele>
        <time>2011-07-20T09:37:19Z</time>
      </trkpt>
      <trkpt lat="44.41693" lon="6.11951">
        <ele>1120.073242</ele>
        <time>2011-07-20T09:37:31Z</time>
      </trkpt>
      <trkpt lat="44.41681" lon="6.11944">
        <ele>1120.553955</ele>
        <time>2011-07-20T09:37:44Z</time>
      </trkpt>
      <trkpt lat="44.41667" lon="6.11933">
        <ele>1122.476563</ele>
        <time>2011-07-20T09:37:57Z</time>
      </trkpt>
      <trkpt lat="44.41655" lon="6.11908">
        <ele>1123.437988</ele>
        <time>2011-07-20T09:38:14Z</time>
      </trkpt>
      <trkpt lat="44.41655" lon="6.11906">
        <ele>1123.437988</ele>
        <time>2011-07-20T09:38:15Z</time>
      </trkpt>
      <trkpt lat="44.41651" lon="6.119">
        <ele>1123.918457</ele>
        <time>2011-07-20T09:38:20Z</time>
      </trkpt>
      <trkpt lat="44.41645" lon="6.11889">
        <ele>1124.39917</ele>
        <time>2011-07-20T09:38:28Z</time>
      </trkpt>
      <trkpt lat="44.41644" lon="6.11884">
        <ele>1124.879883</ele>
        <time>2011-07-20T09:38:32Z</time>
      </trkpt>
      <trkpt lat="44.41642" lon="6.1188">
        <ele>1125.360352</ele>
        <time>2011-07-20T09:38:35Z</time>
      </trkpt>
      <trkpt lat="44.41641" lon="6.11877">
        <ele>1126.321777</ele>
        <time>2011-07-20T09:38:37Z</time>
      </trkpt>
      <trkpt lat="44.41642" lon="6.1187">
        <ele>1125.360352</ele>
        <time>2011-07-20T09:38:41Z</time>
      </trkpt>
      <trkpt lat="44.41639" lon="6.11861">
        <ele>1126.321777</ele>
        <time>2011-07-20T09:38:46Z</time>
      </trkpt>
      <trkpt lat="44.41642" lon="6.11849">
        <ele>1125.360352</ele>
        <time>2011-07-20T09:38:53Z</time>
      </trkpt>
      <trkpt lat="44.41644" lon="6.11841">
        <ele>1126.321777</ele>
        <time>2011-07-20T09:38:59Z</time>
      </trkpt>
      <trkpt lat="44.41646" lon="6.11833">
        <ele>1126.80249</ele>
        <time>2011-07-20T09:39:04Z</time>
      </trkpt>
      <trkpt lat="44.41654" lon="6.1182">
        <ele>1127.763672</ele>
        <time>2011-07-20T09:39:12Z</time>
      </trkpt>
      <trkpt lat="44.41659" lon="6.1181">
        <ele>1127.763672</ele>
        <time>2011-07-20T09:39:19Z</time>
      </trkpt>
      <trkpt lat="44.41664" lon="6.11799">
        <ele>1128.244385</ele>
        <time>2011-07-20T09:39:26Z</time>
      </trkpt>
      <trkpt lat="44.41665" lon="6.11796">
        <ele>1129.205566</ele>
        <time>2011-07-20T09:39:28Z</time>
      </trkpt>
      <trkpt lat="44.41667" lon="6.11795">
        <ele>1129.205566</ele>
        <time>2011-07-20T09:39:29Z</time>
      </trkpt>
      <trkpt lat="44.41679" lon="6.1178">
        <ele>1130.166992</ele>
        <time>2011-07-20T09:39:41Z</time>
      </trkpt>
      <trkpt lat="44.41683" lon="6.11778">
        <ele>1130.166992</ele>
        <time>2011-07-20T09:39:43Z</time>
      </trkpt>
      <trkpt lat="44.41687" lon="6.11777">
        <ele>1130.647705</ele>
        <time>2011-07-20T09:39:47Z</time>
      </trkpt>
      <trkpt lat="44.41706" lon="6.11771">
        <ele>1131.128418</ele>
        <time>2011-07-20T09:40:02Z</time>
      </trkpt>
      <trkpt lat="44.41725" lon="6.11747">
        <ele>1131.608887</ele>
        <time>2011-07-20T09:40:16Z</time>
      </trkpt>
      <trkpt lat="44.41749" lon="6.11723">
        <ele>1131.128418</ele>
        <time>2011-07-20T09:40:30Z</time>
      </trkpt>
      <trkpt lat="44.41743" lon="6.11702">
        <ele>1132.089844</ele>
        <time>2011-07-20T09:40:41Z</time>
      </trkpt>
      <trkpt lat="44.41742" lon="6.11699">
        <ele>1132.089844</ele>
        <time>2011-07-20T09:40:43Z</time>
      </trkpt>
      <trkpt lat="44.41724" lon="6.11685">
        <ele>1133.051025</ele>
        <time>2011-07-20T09:40:56Z</time>
      </trkpt>
      <trkpt lat="44.4172" lon="6.11683">
        <ele>1133.051025</ele>
        <time>2011-07-20T09:40:59Z</time>
      </trkpt>
      <trkpt lat="44.41708" lon="6.11683">
        <ele>1134.012451</ele>
        <time>2011-07-20T09:41:07Z</time>
      </trkpt>
      <trkpt lat="44.41681" lon="6.11671">
        <ele>1135.935059</ele>
        <time>2011-07-20T09:41:26Z</time>
      </trkpt>
      <trkpt lat="44.41663" lon="6.11664">
        <ele>1136.415771</ele>
        <time>2011-07-20T09:41:39Z</time>
      </trkpt>
      <trkpt lat="44.41662" lon="6.11664">
        <ele>1136.89624</ele>
        <time>2011-07-20T09:41:41Z</time>
      </trkpt>
      <trkpt lat="44.41656" lon="6.11667">
        <ele>1137.376953</ele>
        <time>2011-07-20T09:41:47Z</time>
      </trkpt>
      <trkpt lat="44.41649" lon="6.11668">
        <ele>1137.376953</ele>
        <time>2011-07-20T09:41:52Z</time>
      </trkpt>
      <trkpt lat="44.41631" lon="6.11668">
        <ele>1139.780273</ele>
        <time>2011-07-20T09:42:06Z</time>
      </trkpt>
      <trkpt lat="44.41612" lon="6.11666">
        <ele>1141.222168</ele>
        <time>2011-07-20T09:42:22Z</time>
      </trkpt>
      <trkpt lat="44.41597" lon="6.11665">
        <ele>1143.144775</ele>
        <time>2011-07-20T09:42:35Z</time>
      </trkpt>
      <trkpt lat="44.41582" lon="6.11659">
        <ele>1145.067383</ele>
        <time>2011-07-20T09:42:51Z</time>
      </trkpt>
      <trkpt lat="44.41567" lon="6.11647">
        <ele>1146.98999</ele>
        <time>2011-07-20T09:43:07Z</time>
      </trkpt>
      <trkpt lat="44.41563" lon="6.11645">
        <ele>1146.98999</ele>
        <time>2011-07-20T09:43:12Z</time>
      </trkpt>
      <trkpt lat="44.41556" lon="6.11631">
        <ele>1148.432129</ele>
        <time>2011-07-20T09:43:21Z</time>
      </trkpt>
      <trkpt lat="44.41551" lon="6.1162">
        <ele>1148.912842</ele>
        <time>2011-07-20T09:43:28Z</time>
      </trkpt>
      <trkpt lat="44.41548" lon="6.11613">
        <ele>1149.393555</ele>
        <time>2011-07-20T09:43:33Z</time>
      </trkpt>
      <trkpt lat="44.4154" lon="6.11594">
        <ele>1150.835449</ele>
        <time>2011-07-20T09:43:47Z</time>
      </trkpt>
      <trkpt lat="44.41534" lon="6.11577">
        <ele>1153.23877</ele>
        <time>2011-07-20T09:43:59Z</time>
      </trkpt>
      <trkpt lat="44.41528" lon="6.11544">
        <ele>1154.680664</ele>
        <time>2011-07-20T09:44:18Z</time>
      </trkpt>
      <trkpt lat="44.41531" lon="6.11537">
        <ele>1155.64209</ele>
        <time>2011-07-20T09:44:24Z</time>
      </trkpt>
      <trkpt lat="44.41546" lon="6.11513">
        <ele>1158.04541</ele>
        <time>2011-07-20T09:44:44Z</time>
      </trkpt>
      <trkpt lat="44.41549" lon="6.11511">
        <ele>1158.04541</ele>
        <time>2011-07-20T09:44:46Z</time>
      </trkpt>
      <trkpt lat="44.41553" lon="6.11504">
        <ele>1158.525879</ele>
        <time>2011-07-20T09:44:52Z</time>
      </trkpt>
      <trkpt lat="44.41557" lon="6.11499">
        <ele>1159.487305</ele>
        <time>2011-07-20T09:44:58Z</time>
      </trkpt>
      <trkpt lat="44.41559" lon="6.1149">
        <ele>1160.448486</ele>
        <time>2011-07-20T09:45:04Z</time>
      </trkpt>
      <trkpt lat="44.41562" lon="6.11488">
        <ele>1160.929199</ele>
        <time>2011-07-20T09:45:07Z</time>
      </trkpt>
      <trkpt lat="44.41564" lon="6.11483">
        <ele>1161.409912</ele>
        <time>2011-07-20T09:45:12Z</time>
      </trkpt>
      <trkpt lat="44.41569" lon="6.11474">
        <ele>1162.371094</ele>
        <time>2011-07-20T09:45:19Z</time>
      </trkpt>
      <trkpt lat="44.41574" lon="6.11467">
        <ele>1162.851807</ele>
        <time>2011-07-20T09:45:25Z</time>
      </trkpt>
      <trkpt lat="44.41577" lon="6.11464">
        <ele>1162.851807</ele>
        <time>2011-07-20T09:45:28Z</time>
      </trkpt>
      <trkpt lat="44.4158" lon="6.11457">
        <ele>1163.33252</ele>
        <time>2011-07-20T09:45:33Z</time>
      </trkpt>
      <trkpt lat="44.41583" lon="6.11452">
        <ele>1164.293945</ele>
        <time>2011-07-20T09:45:37Z</time>
      </trkpt>
      <trkpt lat="44.41598" lon="6.11442">
        <ele>1166.216553</ele>
        <time>2011-07-20T09:45:53Z</time>
      </trkpt>
      <trkpt lat="44.41617" lon="6.11439">
        <ele>1168.619873</ele>
        <time>2011-07-20T09:46:11Z</time>
      </trkpt>
      <trkpt lat="44.41625" lon="6.11439">
        <ele>1169.100586</ele>
        <time>2011-07-20T09:46:18Z</time>
      </trkpt>
      <trkpt lat="44.41637" lon="6.1144">
        <ele>1171.503662</ele>
        <time>2011-07-20T09:46:33Z</time>
      </trkpt>
      <trkpt lat="44.41642" lon="6.11443">
        <ele>1171.984375</ele>
        <time>2011-07-20T09:46:38Z</time>
      </trkpt>
      <trkpt lat="44.41649" lon="6.11444">
        <ele>1172.945801</ele>
        <time>2011-07-20T09:46:44Z</time>
      </trkpt>
      <trkpt lat="44.41666" lon="6.11451">
        <ele>1175.348877</ele>
        <time>2011-07-20T09:47:02Z</time>
      </trkpt>
      <trkpt lat="44.41667" lon="6.11452">
        <ele>1174.868408</ele>
        <time>2011-07-20T09:47:03Z</time>
      </trkpt>
      <trkpt lat="44.41671" lon="6.11459">
        <ele>1175.348877</ele>
        <time>2011-07-20T09:47:09Z</time>
      </trkpt>
      <trkpt lat="44.41683" lon="6.11466">
        <ele>1177.271729</ele>
        <time>2011-07-20T09:47:23Z</time>
      </trkpt>
      <trkpt lat="44.417" lon="6.11469">
        <ele>1178.23291</ele>
        <time>2011-07-20T09:47:38Z</time>
      </trkpt>
      <trkpt lat="44.41711" lon="6.11477">
        <ele>1179.674805</ele>
        <time>2011-07-20T09:47:49Z</time>
      </trkpt>
      <trkpt lat="44.41716" lon="6.11477">
        <ele>1180.155762</ele>
        <time>2011-07-20T09:47:54Z</time>
      </trkpt>
      <trkpt lat="44.41734" lon="6.11482">
        <ele>1182.559082</ele>
        <time>2011-07-20T09:48:10Z</time>
      </trkpt>
      <trkpt lat="44.41756" lon="6.11484">
        <ele>1185.442871</ele>
        <time>2011-07-20T09:48:31Z</time>
      </trkpt>
      <trkpt lat="44.41759" lon="6.11484">
        <ele>1185.923584</ele>
        <time>2011-07-20T09:48:35Z</time>
      </trkpt>
      <trkpt lat="44.41764" lon="6.11487">
        <ele>1186.404297</ele>
        <time>2011-07-20T09:48:40Z</time>
      </trkpt>
      <trkpt lat="44.41771" lon="6.11486">
        <ele>1186.404297</ele>
        <time>2011-07-20T09:48:46Z</time>
      </trkpt>
      <trkpt lat="44.41773" lon="6.11487">
        <ele>1187.846191</ele>
        <time>2011-07-20T09:48:48Z</time>
      </trkpt>
      <trkpt lat="44.41775" lon="6.11489">
        <ele>1189.768799</ele>
        <time>2011-07-20T09:48:50Z</time>
      </trkpt>
      <trkpt lat="44.41778" lon="6.11492">
        <ele>1189.288086</ele>
        <time>2011-07-20T09:48:54Z</time>
      </trkpt>
      <trkpt lat="44.41778" lon="6.11506">
        <ele>1189.768799</ele>
        <time>2011-07-20T09:49:02Z</time>
      </trkpt>
      <trkpt lat="44.41779" lon="6.11509">
        <ele>1187.846191</ele>
        <time>2011-07-20T09:49:04Z</time>
      </trkpt>
      <trkpt lat="44.41781" lon="6.11509">
        <ele>1188.807617</ele>
        <time>2011-07-20T09:49:18Z</time>
      </trkpt>
      <trkpt lat="44.41781" lon="6.11509">
        <ele>1190.72998</ele>
        <time>2011-07-20T09:49:20Z</time>
      </trkpt>
      <trkpt lat="44.41781" lon="6.11509">
        <ele>1187.846191</ele>
        <time>2011-07-20T09:49:23Z</time>
      </trkpt>
      <trkpt lat="44.41781" lon="6.11509">
        <ele>1189.288086</ele>
        <time>2011-07-20T09:49:27Z</time>
      </trkpt>
      <trkpt lat="44.41781" lon="6.11509">
        <ele>1189.288086</ele>
        <time>2011-07-20T09:49:37Z</time>
      </trkpt>
      <trkpt lat="44.41781" lon="6.11509">
        <ele>1189.288086</ele>
        <time>2011-07-20T09:50:00Z</time>
      </trkpt>
      <trkpt lat="44.41781" lon="6.11509">
        <ele>1190.72998</ele>
        <time>2011-07-20T09:50:02Z</time>
      </trkpt>
      <trkpt lat="44.41781" lon="6.11509">
        <ele>1187.365479</ele>
        <time>2011-07-20T09:50:03Z</time>
      </trkpt>
      <trkpt lat="44.41781" lon="6.11509">
        <ele>1187.365479</ele>
        <time>2011-07-20T09:50:04Z</time>
      </trkpt>
      <trkpt lat="44.41781" lon="6.11509">
        <ele>1189.768799</ele>
        <time>2011-07-20T09:50:07Z</time>
      </trkpt>
      <trkpt lat="44.41781" lon="6.11509">
        <ele>1187.365479</ele>
        <time>2011-07-20T09:51:27Z</time>
      </trkpt>
      <trkpt lat="44.41781" lon="6.11509">
        <ele>1189.768799</ele>
        <time>2011-07-20T09:51:32Z</time>
      </trkpt>
      <trkpt lat="44.41781" lon="6.11509">
        <ele>1187.365479</ele>
        <time>2011-07-20T09:51:35Z</time>
      </trkpt>
      <trkpt lat="44.41781" lon="6.11509">
        <ele>1188.807617</ele>
        <time>2011-07-20T09:51:39Z</time>
      </trkpt>
      <trkpt lat="44.41781" lon="6.11509">
        <ele>1189.768799</ele>
        <time>2011-07-20T09:52:00Z</time>
      </trkpt>
      <trkpt lat="44.41782" lon="6.11508">
        <ele>1190.72998</ele>
        <time>2011-07-20T09:52:57Z</time>
      </trkpt>
      <trkpt lat="44.41788" lon="6.11509">
        <ele>1191.210693</ele>
        <time>2011-07-20T09:53:23Z</time>
      </trkpt>
      <trkpt lat="44.41787" lon="6.11507">
        <ele>1189.768799</ele>
        <time>2011-07-20T09:53:38Z</time>
      </trkpt>
      <trkpt lat="44.41785" lon="6.11504">
        <ele>1189.768799</ele>
        <time>2011-07-20T09:54:03Z</time>
      </trkpt>
      <trkpt lat="44.41791" lon="6.1149">
        <ele>1190.249512</ele>
        <time>2011-07-20T09:54:11Z</time>
      </trkpt>
      <trkpt lat="44.41801" lon="6.11484">
        <ele>1190.72998</ele>
        <time>2011-07-20T09:54:19Z</time>
      </trkpt>
      <trkpt lat="44.41812" lon="6.1148">
        <ele>1191.691406</ele>
        <time>2011-07-20T09:54:31Z</time>
      </trkpt>
      <trkpt lat="44.41814" lon="6.11479">
        <ele>1193.133301</ele>
        <time>2011-07-20T09:54:33Z</time>
      </trkpt>
      <trkpt lat="44.41826" lon="6.11471">
        <ele>1193.614014</ele>
        <time>2011-07-20T09:54:45Z</time>
      </trkpt>
      <trkpt lat="44.41833" lon="6.1147">
        <ele>1196.017578</ele>
        <time>2011-07-20T09:54:52Z</time>
      </trkpt>
      <trkpt lat="44.41847" lon="6.11463">
        <ele>1197.940186</ele>
        <time>2011-07-20T09:55:05Z</time>
      </trkpt>
      <trkpt lat="44.41851" lon="6.11461">
        <ele>1198.901367</ele>
        <time>2011-07-20T09:55:17Z</time>
      </trkpt>
      <trkpt lat="44.4185" lon="6.11462">
        <ele>1198.420654</ele>
        <time>2011-07-20T09:55:33Z</time>
      </trkpt>
      <trkpt lat="44.41852" lon="6.11463">
        <ele>1198.420654</ele>
        <time>2011-07-20T09:55:49Z</time>
      </trkpt>
      <trkpt lat="44.41852" lon="6.11463">
        <ele>1198.420654</ele>
        <time>2011-07-20T09:56:01Z</time>
      </trkpt>
      <trkpt lat="44.41862" lon="6.11461">
        <ele>1198.901367</ele>
        <time>2011-07-20T09:56:16Z</time>
      </trkpt>
      <trkpt lat="44.41887" lon="6.11456">
        <ele>1201.7854</ele>
        <time>2011-07-20T09:56:34Z</time>
      </trkpt>
      <trkpt lat="44.41912" lon="6.1144">
        <ele>1203.708008</ele>
        <time>2011-07-20T09:56:57Z</time>
      </trkpt>
      <trkpt lat="44.41914" lon="6.11437">
        <ele>1203.227295</ele>
        <time>2011-07-20T09:57:00Z</time>
      </trkpt>
      <trkpt lat="44.41919" lon="6.11432">
        <ele>1204.669189</ele>
        <time>2011-07-20T09:57:05Z</time>
      </trkpt>
      <trkpt lat="44.41924" lon="6.11419">
        <ele>1207.07251</ele>
        <time>2011-07-20T09:57:14Z</time>
      </trkpt>
      <trkpt lat="44.41928" lon="6.11411">
        <ele>1207.07251</ele>
        <time>2011-07-20T09:57:20Z</time>
      </trkpt>
      <trkpt lat="44.4193" lon="6.11409">
        <ele>1208.514404</ele>
        <time>2011-07-20T09:57:22Z</time>
      </trkpt>
      <trkpt lat="44.41942" lon="6.11388">
        <ele>1209.47583</ele>
        <time>2011-07-20T09:57:40Z</time>
      </trkpt>
      <trkpt lat="44.41945" lon="6.11386">
        <ele>1210.437012</ele>
        <time>2011-07-20T09:57:42Z</time>
      </trkpt>
      <trkpt lat="44.41953" lon="6.11378">
        <ele>1210.437012</ele>
        <time>2011-07-20T09:57:53Z</time>
      </trkpt>
      <trkpt lat="44.41966" lon="6.11372">
        <ele>1211.398438</ele>
        <time>2011-07-20T09:58:05Z</time>
      </trkpt>
      <trkpt lat="44.41967" lon="6.1137">
        <ele>1211.398438</ele>
        <time>2011-07-20T09:58:06Z</time>
      </trkpt>
      <trkpt lat="44.41973" lon="6.11365">
        <ele>1211.398438</ele>
        <time>2011-07-20T09:58:11Z</time>
      </trkpt>
      <trkpt lat="44.41975" lon="6.11349">
        <ele>1212.359863</ele>
        <time>2011-07-20T09:58:21Z</time>
      </trkpt>
      <trkpt lat="44.41966" lon="6.11338">
        <ele>1215.243896</ele>
        <time>2011-07-20T09:58:33Z</time>
      </trkpt>
      <trkpt lat="44.41955" lon="6.11328">
        <ele>1215.724609</ele>
        <time>2011-07-20T09:58:44Z</time>
      </trkpt>
      <trkpt lat="44.41953" lon="6.1133">
        <ele>1216.205078</ele>
        <time>2011-07-20T09:58:52Z</time>
      </trkpt>
      <trkpt lat="44.41949" lon="6.1133">
        <ele>1216.685791</ele>
        <time>2011-07-20T09:58:55Z</time>
      </trkpt>
      <trkpt lat="44.41934" lon="6.11328">
        <ele>1219.569824</ele>
        <time>2011-07-20T09:59:07Z</time>
      </trkpt>
      <trkpt lat="44.41934" lon="6.11328">
        <ele>1220.050293</ele>
        <time>2011-07-20T09:59:08Z</time>
      </trkpt>
      <trkpt lat="44.41916" lon="6.11328">
        <ele>1221.492188</ele>
        <time>2011-07-20T09:59:23Z</time>
      </trkpt>
      <trkpt lat="44.41901" lon="6.11322">
        <ele>1221.9729</ele>
        <time>2011-07-20T09:59:36Z</time>
      </trkpt>
      <trkpt lat="44.41897" lon="6.11321">
        <ele>1223.415039</ele>
        <time>2011-07-20T09:59:39Z</time>
      </trkpt>
      <trkpt lat="44.41888" lon="6.11316">
        <ele>1223.895508</ele>
        <time>2011-07-20T09:59:48Z</time>
      </trkpt>
      <trkpt lat="44.41885" lon="6.11316">
        <ele>1222.934326</ele>
        <time>2011-07-20T09:59:51Z</time>
      </trkpt>
      <trkpt lat="44.41875" lon="6.11318">
        <ele>1224.376221</ele>
        <time>2011-07-20T09:59:59Z</time>
      </trkpt>
      <trkpt lat="44.41871" lon="6.11319">
        <ele>1224.376221</ele>
        <time>2011-07-20T10:00:02Z</time>
      </trkpt>
      <trkpt lat="44.41848" lon="6.11302">
        <ele>1223.895508</ele>
        <time>2011-07-20T10:00:20Z</time>
      </trkpt>
      <trkpt lat="44.41835" lon="6.11276">
        <ele>1226.779541</ele>
        <time>2011-07-20T10:00:36Z</time>
      </trkpt>
      <trkpt lat="44.41833" lon="6.11255">
        <ele>1225.818115</ele>
        <time>2011-07-20T10:00:48Z</time>
      </trkpt>
      <trkpt lat="44.41835" lon="6.11252">
        <ele>1227.260254</ele>
        <time>2011-07-20T10:00:50Z</time>
      </trkpt>
      <trkpt lat="44.41837" lon="6.11251">
        <ele>1228.22168</ele>
        <time>2011-07-20T10:00:51Z</time>
      </trkpt>
      <trkpt lat="44.41842" lon="6.11258">
        <ele>1227.260254</ele>
        <time>2011-07-20T10:00:57Z</time>
      </trkpt>
      <trkpt lat="44.41858" lon="6.11293">
        <ele>1228.702393</ele>
        <time>2011-07-20T10:01:14Z</time>
      </trkpt>
      <trkpt lat="44.41864" lon="6.11294">
        <ele>1226.779541</ele>
        <time>2011-07-20T10:01:18Z</time>
      </trkpt>
      <trkpt lat="44.4189" lon="6.11295">
        <ele>1227.260254</ele>
        <time>2011-07-20T10:01:35Z</time>
      </trkpt>
      <trkpt lat="44.41895" lon="6.11298">
        <ele>1228.22168</ele>
        <time>2011-07-20T10:01:46Z</time>
      </trkpt>
      <trkpt lat="44.41895" lon="6.11297">
        <ele>1229.182861</ele>
        <time>2011-07-20T10:02:07Z</time>
      </trkpt>
      <trkpt lat="44.41895" lon="6.11297">
        <ele>1230.144287</ele>
        <time>2011-07-20T10:02:21Z</time>
      </trkpt>
      <trkpt lat="44.41895" lon="6.11297">
        <ele>1228.22168</ele>
        <time>2011-07-20T10:02:25Z</time>
      </trkpt>
      <trkpt lat="44.41894" lon="6.11297">
        <ele>1231.105713</ele>
        <time>2011-07-20T10:03:15Z</time>
      </trkpt>
      <trkpt lat="44.41895" lon="6.11296">
        <ele>1229.663574</ele>
        <time>2011-07-20T10:03:24Z</time>
      </trkpt>
      <trkpt lat="44.419" lon="6.11296">
        <ele>1228.22168</ele>
        <time>2011-07-20T10:03:37Z</time>
      </trkpt>
      <trkpt lat="44.41928" lon="6.113">
        <ele>1229.182861</ele>
        <time>2011-07-20T10:03:53Z</time>
      </trkpt>
      <trkpt lat="44.41938" lon="6.11299">
        <ele>1228.702393</ele>
        <time>2011-07-20T10:03:58Z</time>
      </trkpt>
      <trkpt lat="44.41954" lon="6.11286">
        <ele>1232.066895</ele>
        <time>2011-07-20T10:04:09Z</time>
      </trkpt>
      <trkpt lat="44.41972" lon="6.11278">
        <ele>1230.144287</ele>
        <time>2011-07-20T10:04:19Z</time>
      </trkpt>
      <trkpt lat="44.42004" lon="6.11288">
        <ele>1231.586182</ele>
        <time>2011-07-20T10:04:36Z</time>
      </trkpt>
      <trkpt lat="44.4202" lon="6.11306">
        <ele>1232.066895</ele>
        <time>2011-07-20T10:04:48Z</time>
      </trkpt>
      <trkpt lat="44.42028" lon="6.11359">
        <ele>1233.028076</ele>
        <time>2011-07-20T10:05:05Z</time>
      </trkpt>
      <trkpt lat="44.42029" lon="6.11379">
        <ele>1233.028076</ele>
        <time>2011-07-20T10:05:13Z</time>
      </trkpt>
      <trkpt lat="44.42036" lon="6.11414">
        <ele>1236.392822</ele>
        <time>2011-07-20T10:05:29Z</time>
      </trkpt>
      <trkpt lat="44.4205" lon="6.11422">
        <ele>1237.834717</ele>
        <time>2011-07-20T10:05:39Z</time>
      </trkpt>
      <trkpt lat="44.42064" lon="6.1143">
        <ele>1239.757324</ele>
        <time>2011-07-20T10:05:50Z</time>
      </trkpt>
      <trkpt lat="44.42088" lon="6.11431">
        <ele>1239.276611</ele>
        <time>2011-07-20T10:06:11Z</time>
      </trkpt>
      <trkpt lat="44.42091" lon="6.11434">
        <ele>1238.31543</ele>
        <time>2011-07-20T10:06:14Z</time>
      </trkpt>
      <trkpt lat="44.42109" lon="6.11444">
        <ele>1241.679932</ele>
        <time>2011-07-20T10:06:27Z</time>
      </trkpt>
      <trkpt lat="44.42115" lon="6.11448">
        <ele>1242.641357</ele>
        <time>2011-07-20T10:06:32Z</time>
      </trkpt>
      <trkpt lat="44.42118" lon="6.11449">
        <ele>1242.641357</ele>
        <time>2011-07-20T10:06:36Z</time>
      </trkpt>
      <trkpt lat="44.42137" lon="6.1148">
        <ele>1246.006104</ele>
        <time>2011-07-20T10:06:57Z</time>
      </trkpt>
      <trkpt lat="44.42138" lon="6.11485">
        <ele>1246.486816</ele>
        <time>2011-07-20T10:07:00Z</time>
      </trkpt>
      <trkpt lat="44.42141" lon="6.11491">
        <ele>1246.486816</ele>
        <time>2011-07-20T10:07:03Z</time>
      </trkpt>
      <trkpt lat="44.42146" lon="6.11506">
        <ele>1247.447998</ele>
        <time>2011-07-20T10:07:14Z</time>
      </trkpt>
      <trkpt lat="44.42147" lon="6.11517">
        <ele>1248.40918</ele>
        <time>2011-07-20T10:07:21Z</time>
      </trkpt>
      <trkpt lat="44.42163" lon="6.11536">
        <ele>1249.370605</ele>
        <time>2011-07-20T10:07:33Z</time>
      </trkpt>
      <trkpt lat="44.42168" lon="6.11538">
        <ele>1249.851318</ele>
        <time>2011-07-20T10:07:37Z</time>
      </trkpt>
      <trkpt lat="44.42172" lon="6.11544">
        <ele>1250.332031</ele>
        <time>2011-07-20T10:07:44Z</time>
      </trkpt>
      <trkpt lat="44.42184" lon="6.11561">
        <ele>1252.254395</ele>
        <time>2011-07-20T10:07:59Z</time>
      </trkpt>
      <trkpt lat="44.42186" lon="6.1157">
        <ele>1253.21582</ele>
        <time>2011-07-20T10:08:07Z</time>
      </trkpt>
      <trkpt lat="44.42187" lon="6.11578">
        <ele>1254.177246</ele>
        <time>2011-07-20T10:08:12Z</time>
      </trkpt>
      <trkpt lat="44.42189" lon="6.11612">
        <ele>1255.619141</ele>
        <time>2011-07-20T10:08:30Z</time>
      </trkpt>
      <trkpt lat="44.42187" lon="6.11639">
        <ele>1256.580322</ele>
        <time>2011-07-20T10:08:44Z</time>
      </trkpt>
      <trkpt lat="44.42191" lon="6.11669">
        <ele>1258.022461</ele>
        <time>2011-07-20T10:09:02Z</time>
      </trkpt>
      <trkpt lat="44.42192" lon="6.11671">
        <ele>1258.022461</ele>
        <time>2011-07-20T10:09:03Z</time>
      </trkpt>
      <trkpt lat="44.42195" lon="6.11673">
        <ele>1258.50293</ele>
        <time>2011-07-20T10:09:06Z</time>
      </trkpt>
      <trkpt lat="44.422" lon="6.11672">
        <ele>1259.464355</ele>
        <time>2011-07-20T10:09:10Z</time>
      </trkpt>
      <trkpt lat="44.42203" lon="6.11656">
        <ele>1259.944824</ele>
        <time>2011-07-20T10:09:19Z</time>
      </trkpt>
      <trkpt lat="44.42202" lon="6.11648">
        <ele>1259.944824</ele>
        <time>2011-07-20T10:09:23Z</time>
      </trkpt>
      <trkpt lat="44.42204" lon="6.11641">
        <ele>1260.425781</ele>
        <time>2011-07-20T10:09:37Z</time>
      </trkpt>
      <trkpt lat="44.42204" lon="6.11629">
        <ele>1261.86792</ele>
        <time>2011-07-20T10:11:05Z</time>
      </trkpt>
      <trkpt lat="44.42206" lon="6.11613">
        <ele>1262.348389</ele>
        <time>2011-07-20T10:11:13Z</time>
      </trkpt>
      <trkpt lat="44.42209" lon="6.11606">
        <ele>1261.387207</ele>
        <time>2011-07-20T10:11:18Z</time>
      </trkpt>
      <trkpt lat="44.42211" lon="6.116">
        <ele>1261.86792</ele>
        <time>2011-07-20T10:11:22Z</time>
      </trkpt>
      <trkpt lat="44.42211" lon="6.11592">
        <ele>1263.309814</ele>
        <time>2011-07-20T10:11:25Z</time>
      </trkpt>
      <trkpt lat="44.42208" lon="6.1156">
        <ele>1264.751709</ele>
        <time>2011-07-20T10:11:42Z</time>
      </trkpt>
      <trkpt lat="44.42203" lon="6.1154">
        <ele>1265.232422</ele>
        <time>2011-07-20T10:11:54Z</time>
      </trkpt>
      <trkpt lat="44.422" lon="6.11526">
        <ele>1266.674316</ele>
        <time>2011-07-20T10:12:02Z</time>
      </trkpt>
      <trkpt lat="44.422" lon="6.11501">
        <ele>1267.635498</ele>
        <time>2011-07-20T10:12:18Z</time>
      </trkpt>
      <trkpt lat="44.42199" lon="6.11498">
        <ele>1266.193604</ele>
        <time>2011-07-20T10:12:20Z</time>
      </trkpt>
      <trkpt lat="44.42199" lon="6.11495">
        <ele>1267.635498</ele>
        <time>2011-07-20T10:12:22Z</time>
      </trkpt>
      <trkpt lat="44.42197" lon="6.11483">
        <ele>1269.077637</ele>
        <time>2011-07-20T10:12:29Z</time>
      </trkpt>
      <trkpt lat="44.42194" lon="6.11478">
        <ele>1268.596924</ele>
        <time>2011-07-20T10:12:32Z</time>
      </trkpt>
      <trkpt lat="44.42186" lon="6.11463">
        <ele>1267.635498</ele>
        <time>2011-07-20T10:12:41Z</time>
      </trkpt>
      <trkpt lat="44.42185" lon="6.11461">
        <ele>1270.519531</ele>
        <time>2011-07-20T10:12:43Z</time>
      </trkpt>
      <trkpt lat="44.42169" lon="6.11435">
        <ele>1271.961426</ele>
        <time>2011-07-20T10:13:00Z</time>
      </trkpt>
      <trkpt lat="44.42168" lon="6.1143">
        <ele>1271.961426</ele>
        <time>2011-07-20T10:13:03Z</time>
      </trkpt>
      <trkpt lat="44.42167" lon="6.11418">
        <ele>1272.922852</ele>
        <time>2011-07-20T10:13:10Z</time>
      </trkpt>
      <trkpt lat="44.42163" lon="6.11403">
        <ele>1273.884033</ele>
        <time>2011-07-20T10:13:20Z</time>
      </trkpt>
      <trkpt lat="44.42149" lon="6.11381">
        <ele>1275.325928</ele>
        <time>2011-07-20T10:13:34Z</time>
      </trkpt>
      <trkpt lat="44.42145" lon="6.11376">
        <ele>1275.325928</ele>
        <time>2011-07-20T10:13:38Z</time>
      </trkpt>
      <trkpt lat="44.42143" lon="6.11368">
        <ele>1276.768311</ele>
        <time>2011-07-20T10:13:42Z</time>
      </trkpt>
      <trkpt lat="44.42141" lon="6.11362">
        <ele>1277.729492</ele>
        <time>2011-07-20T10:13:47Z</time>
      </trkpt>
      <trkpt lat="44.42149" lon="6.11333">
        <ele>1277.729492</ele>
        <time>2011-07-20T10:14:08Z</time>
      </trkpt>
      <trkpt lat="44.42153" lon="6.11324">
        <ele>1278.210205</ele>
        <time>2011-07-20T10:14:14Z</time>
      </trkpt>
      <trkpt lat="44.42156" lon="6.11318">
        <ele>1278.690918</ele>
        <time>2011-07-20T10:14:19Z</time>
      </trkpt>
      <trkpt lat="44.42159" lon="6.11312">
        <ele>1279.6521</ele>
        <time>2011-07-20T10:14:23Z</time>
      </trkpt>
      <trkpt lat="44.42165" lon="6.11302">
        <ele>1280.132813</ele>
        <time>2011-07-20T10:14:32Z</time>
      </trkpt>
      <trkpt lat="44.42167" lon="6.11301">
        <ele>1280.613525</ele>
        <time>2011-07-20T10:14:34Z</time>
      </trkpt>
      <trkpt lat="44.42171" lon="6.11297">
        <ele>1281.094238</ele>
        <time>2011-07-20T10:14:38Z</time>
      </trkpt>
      <trkpt lat="44.42177" lon="6.1129">
        <ele>1281.574707</ele>
        <time>2011-07-20T10:14:45Z</time>
      </trkpt>
      <trkpt lat="44.42196" lon="6.11284">
        <ele>1283.978027</ele>
        <time>2011-07-20T10:15:01Z</time>
      </trkpt>
      <trkpt lat="44.42201" lon="6.11284">
        <ele>1284.45874</ele>
        <time>2011-07-20T10:15:06Z</time>
      </trkpt>
      <trkpt lat="44.42213" lon="6.11266">
        <ele>1285.419922</ele>
        <time>2011-07-20T10:15:21Z</time>
      </trkpt>
      <trkpt lat="44.42214" lon="6.11265">
        <ele>1285.900635</ele>
        <time>2011-07-20T10:15:22Z</time>
      </trkpt>
      <trkpt lat="44.42234" lon="6.11261">
        <ele>1287.342529</ele>
        <time>2011-07-20T10:15:38Z</time>
      </trkpt>
      <trkpt lat="44.42235" lon="6.11261">
        <ele>1287.823242</ele>
        <time>2011-07-20T10:15:41Z</time>
      </trkpt>
      <trkpt lat="44.42241" lon="6.11261">
        <ele>1288.303955</ele>
        <time>2011-07-20T10:15:44Z</time>
      </trkpt>
      <trkpt lat="44.42244" lon="6.11257">
        <ele>1288.784668</ele>
        <time>2011-07-20T10:15:47Z</time>
      </trkpt>
      <trkpt lat="44.42245" lon="6.11254">
        <ele>1288.784668</ele>
        <time>2011-07-20T10:15:50Z</time>
      </trkpt>
      <trkpt lat="44.42247" lon="6.11254">
        <ele>1288.784668</ele>
        <time>2011-07-20T10:15:52Z</time>
      </trkpt>
      <trkpt lat="44.42251" lon="6.11253">
        <ele>1288.784668</ele>
        <time>2011-07-20T10:15:56Z</time>
      </trkpt>
      <trkpt lat="44.42265" lon="6.11243">
        <ele>1291.187744</ele>
        <time>2011-07-20T10:16:12Z</time>
      </trkpt>
      <trkpt lat="44.4228" lon="6.1125">
        <ele>1292.630127</ele>
        <time>2011-07-20T10:16:24Z</time>
      </trkpt>
      <trkpt lat="44.42293" lon="6.11247">
        <ele>1293.591309</ele>
        <time>2011-07-20T10:16:36Z</time>
      </trkpt>
      <trkpt lat="44.42295" lon="6.11246">
        <ele>1293.591309</ele>
        <time>2011-07-20T10:16:37Z</time>
      </trkpt>
      <trkpt lat="44.42299" lon="6.11242">
        <ele>1294.072021</ele>
        <time>2011-07-20T10:16:41Z</time>
      </trkpt>
      <trkpt lat="44.42313" lon="6.11236">
        <ele>1296.475342</ele>
        <time>2011-07-20T10:16:54Z</time>
      </trkpt>
      <trkpt lat="44.42316" lon="6.11231">
        <ele>1296.475342</ele>
        <time>2011-07-20T10:16:57Z</time>
      </trkpt>
      <trkpt lat="44.42326" lon="6.11227">
        <ele>1297.436523</ele>
        <time>2011-07-20T10:17:04Z</time>
      </trkpt>
      <trkpt lat="44.42334" lon="6.11226">
        <ele>1298.397705</ele>
        <time>2011-07-20T10:17:10Z</time>
      </trkpt>
      <trkpt lat="44.42344" lon="6.11218">
        <ele>1300.801025</ele>
        <time>2011-07-20T10:17:20Z</time>
      </trkpt>
      <trkpt lat="44.42348" lon="6.11216">
        <ele>1300.801025</ele>
        <time>2011-07-20T10:17:23Z</time>
      </trkpt>
      <trkpt lat="44.42367" lon="6.11216">
        <ele>1303.204346</ele>
        <time>2011-07-20T10:17:38Z</time>
      </trkpt>
      <trkpt lat="44.42378" lon="6.11231">
        <ele>1305.126953</ele>
        <time>2011-07-20T10:17:49Z</time>
      </trkpt>
      <trkpt lat="44.42388" lon="6.11245">
        <ele>1306.088135</ele>
        <time>2011-07-20T10:17:55Z</time>
      </trkpt>
      <trkpt lat="44.42396" lon="6.11259">
        <ele>1307.049561</ele>
        <time>2011-07-20T10:18:02Z</time>
      </trkpt>
      <trkpt lat="44.42406" lon="6.11273">
        <ele>1307.530273</ele>
        <time>2011-07-20T10:18:08Z</time>
      </trkpt>
      <trkpt lat="44.42417" lon="6.1128">
        <ele>1308.491699</ele>
        <time>2011-07-20T10:18:15Z</time>
      </trkpt>
      <trkpt lat="44.42418" lon="6.11283">
        <ele>1308.972412</ele>
        <time>2011-07-20T10:18:17Z</time>
      </trkpt>
      <trkpt lat="44.42434" lon="6.11304">
        <ele>1310.414307</ele>
        <time>2011-07-20T10:18:33Z</time>
      </trkpt>
      <trkpt lat="44.42439" lon="6.11307">
        <ele>1310.89502</ele>
        <time>2011-07-20T10:18:37Z</time>
      </trkpt>
      <trkpt lat="44.42446" lon="6.11313">
        <ele>1311.856445</ele>
        <time>2011-07-20T10:18:43Z</time>
      </trkpt>
      <trkpt lat="44.42464" lon="6.11328">
        <ele>1313.29834</ele>
        <time>2011-07-20T10:19:01Z</time>
      </trkpt>
      <trkpt lat="44.42474" lon="6.11335">
        <ele>1314.259521</ele>
        <time>2011-07-20T10:19:15Z</time>
      </trkpt>
      <trkpt lat="44.42488" lon="6.11339">
        <ele>1315.70166</ele>
        <time>2011-07-20T10:19:28Z</time>
      </trkpt>
      <trkpt lat="44.42507" lon="6.11355">
        <ele>1316.662842</ele>
        <time>2011-07-20T10:19:39Z</time>
      </trkpt>
      <trkpt lat="44.42519" lon="6.11377">
        <ele>1318.104736</ele>
        <time>2011-07-20T10:19:55Z</time>
      </trkpt>
      <trkpt lat="44.4252" lon="6.11378">
        <ele>1318.585449</ele>
        <time>2011-07-20T10:19:56Z</time>
      </trkpt>
      <trkpt lat="44.42522" lon="6.1138">
        <ele>1318.585449</ele>
        <time>2011-07-20T10:19:58Z</time>
      </trkpt>
      <trkpt lat="44.42523" lon="6.11387">
        <ele>1319.546875</ele>
        <time>2011-07-20T10:20:03Z</time>
      </trkpt>
      <trkpt lat="44.42524" lon="6.1139">
        <ele>1319.546875</ele>
        <time>2011-07-20T10:20:05Z</time>
      </trkpt>
      <trkpt lat="44.42533" lon="6.11396">
        <ele>1320.508057</ele>
        <time>2011-07-20T10:20:12Z</time>
      </trkpt>
      <trkpt lat="44.42539" lon="6.11408">
        <ele>1321.949951</ele>
        <time>2011-07-20T10:20:20Z</time>
      </trkpt>
      <trkpt lat="44.42546" lon="6.11412">
        <ele>1322.911377</ele>
        <time>2011-07-20T10:20:26Z</time>
      </trkpt>
      <trkpt lat="44.42548" lon="6.11416">
        <ele>1323.39209</ele>
        <time>2011-07-20T10:20:29Z</time>
      </trkpt>
      <trkpt lat="44.42556" lon="6.11421">
        <ele>1323.872559</ele>
        <time>2011-07-20T10:20:35Z</time>
      </trkpt>
      <trkpt lat="44.4256" lon="6.11429">
        <ele>1325.314697</ele>
        <time>2011-07-20T10:20:42Z</time>
      </trkpt>
      <trkpt lat="44.42564" lon="6.11431">
        <ele>1325.79541</ele>
        <time>2011-07-20T10:20:45Z</time>
      </trkpt>
      <trkpt lat="44.42567" lon="6.11435">
        <ele>1325.314697</ele>
        <time>2011-07-20T10:20:49Z</time>
      </trkpt>
      <trkpt lat="44.42569" lon="6.11438">
        <ele>1326.756836</ele>
        <time>2011-07-20T10:20:52Z</time>
      </trkpt>
      <trkpt lat="44.42572" lon="6.11441">
        <ele>1327.237549</ele>
        <time>2011-07-20T10:20:56Z</time>
      </trkpt>
      <trkpt lat="44.42574" lon="6.11447">
        <ele>1329.640625</ele>
        <time>2011-07-20T10:21:04Z</time>
      </trkpt>
      <trkpt lat="44.42572" lon="6.11447">
        <ele>1329.640625</ele>
        <time>2011-07-20T10:21:08Z</time>
      </trkpt>
      <trkpt lat="44.42573" lon="6.1145">
        <ele>1328.679443</ele>
        <time>2011-07-20T10:21:16Z</time>
      </trkpt>
      <trkpt lat="44.42576" lon="6.1145">
        <ele>1329.159912</ele>
        <time>2011-07-20T10:21:18Z</time>
      </trkpt>
      <trkpt lat="44.42578" lon="6.11454">
        <ele>1330.121338</ele>
        <time>2011-07-20T10:21:21Z</time>
      </trkpt>
      <trkpt lat="44.42579" lon="6.11456">
        <ele>1330.602051</ele>
        <time>2011-07-20T10:21:23Z</time>
      </trkpt>
      <trkpt lat="44.42588" lon="6.11466">
        <ele>1330.602051</ele>
        <time>2011-07-20T10:21:34Z</time>
      </trkpt>
      <trkpt lat="44.42594" lon="6.1147">
        <ele>1331.563232</ele>
        <time>2011-07-20T10:21:40Z</time>
      </trkpt>
      <trkpt lat="44.42613" lon="6.11475">
        <ele>1332.524658</ele>
        <time>2011-07-20T10:21:51Z</time>
      </trkpt>
      <trkpt lat="44.42619" lon="6.1148">
        <ele>1333.48584</ele>
        <time>2011-07-20T10:21:57Z</time>
      </trkpt>
      <trkpt lat="44.42618" lon="6.11486">
        <ele>1333.48584</ele>
        <time>2011-07-20T10:22:02Z</time>
      </trkpt>
      <trkpt lat="44.42601" lon="6.11483">
        <ele>1335.408447</ele>
        <time>2011-07-20T10:22:14Z</time>
      </trkpt>
      <trkpt lat="44.42579" lon="6.11466">
        <ele>1338.29248</ele>
        <time>2011-07-20T10:22:36Z</time>
      </trkpt>
      <trkpt lat="44.42564" lon="6.11457">
        <ele>1338.773193</ele>
        <time>2011-07-20T10:22:50Z</time>
      </trkpt>
      <trkpt lat="44.42556" lon="6.11449">
        <ele>1340.695801</ele>
        <time>2011-07-20T10:22:59Z</time>
      </trkpt>
      <trkpt lat="44.42547" lon="6.11445">
        <ele>1341.657227</ele>
        <time>2011-07-20T10:23:09Z</time>
      </trkpt>
      <trkpt lat="44.42534" lon="6.11441">
        <ele>1342.137939</ele>
        <time>2011-07-20T10:23:21Z</time>
      </trkpt>
      <trkpt lat="44.4253" lon="6.11434">
        <ele>1342.618652</ele>
        <time>2011-07-20T10:23:25Z</time>
      </trkpt>
      <trkpt lat="44.42525" lon="6.1143">
        <ele>1343.099121</ele>
        <time>2011-07-20T10:23:29Z</time>
      </trkpt>
      <trkpt lat="44.42513" lon="6.11421">
        <ele>1345.021729</ele>
        <time>2011-07-20T10:23:41Z</time>
      </trkpt>
      <trkpt lat="44.42508" lon="6.11422">
        <ele>1345.502441</ele>
        <time>2011-07-20T10:23:47Z</time>
      </trkpt>
      <trkpt lat="44.42503" lon="6.11417">
        <ele>1346.463867</ele>
        <time>2011-07-20T10:23:51Z</time>
      </trkpt>
      <trkpt lat="44.42498" lon="6.11415">
        <ele>1347.425049</ele>
        <time>2011-07-20T10:23:55Z</time>
      </trkpt>
      <trkpt lat="44.4249" lon="6.11416">
        <ele>1347.425049</ele>
        <time>2011-07-20T10:24:03Z</time>
      </trkpt>
      <trkpt lat="44.42485" lon="6.11419">
        <ele>1347.905762</ele>
        <time>2011-07-20T10:24:08Z</time>
      </trkpt>
      <trkpt lat="44.42481" lon="6.11421">
        <ele>1348.38623</ele>
        <time>2011-07-20T10:24:12Z</time>
      </trkpt>
      <trkpt lat="44.42479" lon="6.11421">
        <ele>1348.866943</ele>
        <time>2011-07-20T10:24:14Z</time>
      </trkpt>
      <trkpt lat="44.42471" lon="6.11416">
        <ele>1349.347656</ele>
        <time>2011-07-20T10:24:19Z</time>
      </trkpt>
      <trkpt lat="44.42466" lon="6.11416">
        <ele>1350.309082</ele>
        <time>2011-07-20T10:24:24Z</time>
      </trkpt>
      <trkpt lat="44.42461" lon="6.11417">
        <ele>1350.789551</ele>
        <time>2011-07-20T10:24:28Z</time>
      </trkpt>
      <trkpt lat="44.42449" lon="6.11412">
        <ele>1350.789551</ele>
        <time>2011-07-20T10:24:39Z</time>
      </trkpt>
      <trkpt lat="44.42437" lon="6.11409">
        <ele>1350.789551</ele>
        <time>2011-07-20T10:24:48Z</time>
      </trkpt>
      <trkpt lat="44.42432" lon="6.11406">
        <ele>1351.750977</ele>
        <time>2011-07-20T10:24:53Z</time>
      </trkpt>
      <trkpt lat="44.42426" lon="6.11405">
        <ele>1353.673584</ele>
        <time>2011-07-20T10:24:59Z</time>
      </trkpt>
      <trkpt lat="44.42423" lon="6.11406">
        <ele>1353.192871</ele>
        <time>2011-07-20T10:25:01Z</time>
      </trkpt>
      <trkpt lat="44.42416" lon="6.11403">
        <ele>1353.192871</ele>
        <time>2011-07-20T10:25:07Z</time>
      </trkpt>
      <trkpt lat="44.42404" lon="6.11402">
        <ele>1353.673584</ele>
        <time>2011-07-20T10:25:21Z</time>
      </trkpt>
      <trkpt lat="44.424" lon="6.11404">
        <ele>1354.634766</ele>
        <time>2011-07-20T10:25:25Z</time>
      </trkpt>
      <trkpt lat="44.42387" lon="6.11404">
        <ele>1356.557617</ele>
        <time>2011-07-20T10:25:36Z</time>
      </trkpt>
      <trkpt lat="44.42386" lon="6.11404">
        <ele>1356.557617</ele>
        <time>2011-07-20T10:25:37Z</time>
      </trkpt>
      <trkpt lat="44.42374" lon="6.11408">
        <ele>1358.960938</ele>
        <time>2011-07-20T10:25:50Z</time>
      </trkpt>
      <trkpt lat="44.42365" lon="6.11411">
        <ele>1360.883545</ele>
        <time>2011-07-20T10:25:59Z</time>
      </trkpt>
      <trkpt lat="44.42357" lon="6.11413">
        <ele>1362.325439</ele>
        <time>2011-07-20T10:26:05Z</time>
      </trkpt>
      <trkpt lat="44.42349" lon="6.11416">
        <ele>1362.325439</ele>
        <time>2011-07-20T10:26:12Z</time>
      </trkpt>
      <trkpt lat="44.42338" lon="6.11421">
        <ele>1363.767334</ele>
        <time>2011-07-20T10:26:24Z</time>
      </trkpt>
      <trkpt lat="44.42333" lon="6.11423">
        <ele>1364.248047</ele>
        <time>2011-07-20T10:26:27Z</time>
      </trkpt>
      <trkpt lat="44.42317" lon="6.11433">
        <ele>1364.248047</ele>
        <time>2011-07-20T10:26:40Z</time>
      </trkpt>
      <trkpt lat="44.42307" lon="6.11441">
        <ele>1365.209473</ele>
        <time>2011-07-20T10:26:50Z</time>
      </trkpt>
      <trkpt lat="44.42305" lon="6.11445">
        <ele>1365.690186</ele>
        <time>2011-07-20T10:26:53Z</time>
      </trkpt>
      <trkpt lat="44.42304" lon="6.11453">
        <ele>1365.690186</ele>
        <time>2011-07-20T10:27:00Z</time>
      </trkpt>
      <trkpt lat="44.42305" lon="6.11458">
        <ele>1366.651367</ele>
        <time>2011-07-20T10:27:03Z</time>
      </trkpt>
      <trkpt lat="44.42308" lon="6.11467">
        <ele>1367.612549</ele>
        <time>2011-07-20T10:27:13Z</time>
      </trkpt>
      <trkpt lat="44.42308" lon="6.11467">
        <ele>1366.651367</ele>
        <time>2011-07-20T10:27:39Z</time>
      </trkpt>
      <trkpt lat="44.42308" lon="6.11467">
        <ele>1366.170654</ele>
        <time>2011-07-20T10:28:08Z</time>
      </trkpt>
      <trkpt lat="44.42308" lon="6.11467">
        <ele>1365.209473</ele>
        <time>2011-07-20T10:28:14Z</time>
      </trkpt>
      <trkpt lat="44.42308" lon="6.11467">
        <ele>1368.573975</ele>
        <time>2011-07-20T10:28:25Z</time>
      </trkpt>
      <trkpt lat="44.42308" lon="6.11467">
        <ele>1368.573975</ele>
        <time>2011-07-20T10:28:26Z</time>
      </trkpt>
      <trkpt lat="44.42308" lon="6.11467">
        <ele>1369.054688</ele>
        <time>2011-07-20T10:28:31Z</time>
      </trkpt>
      <trkpt lat="44.42308" lon="6.11467">
        <ele>1366.651367</ele>
        <time>2011-07-20T10:28:33Z</time>
      </trkpt>
      <trkpt lat="44.42308" lon="6.11467">
        <ele>1365.690186</ele>
        <time>2011-07-20T10:28:38Z</time>
      </trkpt>
      <trkpt lat="44.42308" lon="6.11468">
        <ele>1369.054688</ele>
        <time>2011-07-20T10:29:04Z</time>
      </trkpt>
      <trkpt lat="44.42308" lon="6.11468">
        <ele>1369.054688</ele>
        <time>2011-07-20T10:29:05Z</time>
      </trkpt>
      <trkpt lat="44.42308" lon="6.11468">
        <ele>1366.651367</ele>
        <time>2011-07-20T10:29:08Z</time>
      </trkpt>
      <trkpt lat="44.42308" lon="6.11468">
        <ele>1365.690186</ele>
        <time>2011-07-20T10:29:12Z</time>
      </trkpt>
      <trkpt lat="44.42306" lon="6.11475">
        <ele>1365.209473</ele>
        <time>2011-07-20T10:30:35Z</time>
      </trkpt>
      <trkpt lat="44.42305" lon="6.11476">
        <ele>1365.209473</ele>
        <time>2011-07-20T10:30:37Z</time>
      </trkpt>
      <trkpt lat="44.42308" lon="6.11502">
        <ele>1365.690186</ele>
        <time>2011-07-20T10:30:53Z</time>
      </trkpt>
      <trkpt lat="44.42313" lon="6.11517">
        <ele>1367.13208</ele>
        <time>2011-07-20T10:31:02Z</time>
      </trkpt>
      <trkpt lat="44.42316" lon="6.11526">
        <ele>1368.093262</ele>
        <time>2011-07-20T10:31:08Z</time>
      </trkpt>
      <trkpt lat="44.42321" lon="6.11565">
        <ele>1367.612549</ele>
        <time>2011-07-20T10:31:26Z</time>
      </trkpt>
      <trkpt lat="44.42323" lon="6.11583">
        <ele>1369.054688</ele>
        <time>2011-07-20T10:31:34Z</time>
      </trkpt>
      <trkpt lat="44.42321" lon="6.11619">
        <ele>1369.5354</ele>
        <time>2011-07-20T10:31:49Z</time>
      </trkpt>
      <trkpt lat="44.4233" lon="6.11659">
        <ele>1370.977295</ele>
        <time>2011-07-20T10:32:08Z</time>
      </trkpt>
      <trkpt lat="44.42357" lon="6.11666">
        <ele>1369.5354</ele>
        <time>2011-07-20T10:32:23Z</time>
      </trkpt>
      <trkpt lat="44.42368" lon="6.11667">
        <ele>1369.5354</ele>
        <time>2011-07-20T10:32:30Z</time>
      </trkpt>
      <trkpt lat="44.4237" lon="6.11668">
        <ele>1368.573975</ele>
        <time>2011-07-20T10:32:32Z</time>
      </trkpt>
      <trkpt lat="44.4237" lon="6.11669">
        <ele>1370.977295</ele>
        <time>2011-07-20T10:32:45Z</time>
      </trkpt>
      <trkpt lat="44.42373" lon="6.11673">
        <ele>1370.496582</ele>
        <time>2011-07-20T10:33:07Z</time>
      </trkpt>
      <trkpt lat="44.42379" lon="6.11676">
        <ele>1370.015869</ele>
        <time>2011-07-20T10:33:10Z</time>
      </trkpt>
      <trkpt lat="44.42405" lon="6.11709">
        <ele>1370.015869</ele>
        <time>2011-07-20T10:33:25Z</time>
      </trkpt>
      <trkpt lat="44.42436" lon="6.11753">
        <ele>1369.054688</ele>
        <time>2011-07-20T10:33:43Z</time>
      </trkpt>
      <trkpt lat="44.42469" lon="6.11782">
        <ele>1370.015869</ele>
        <time>2011-07-20T10:33:57Z</time>
      </trkpt>
      <trkpt lat="44.42482" lon="6.11796">
        <ele>1370.977295</ele>
        <time>2011-07-20T10:34:04Z</time>
      </trkpt>
      <trkpt lat="44.42487" lon="6.11802">
        <ele>1370.496582</ele>
        <time>2011-07-20T10:34:07Z</time>
      </trkpt>
      <trkpt lat="44.42497" lon="6.11814">
        <ele>1371.457764</ele>
        <time>2011-07-20T10:34:15Z</time>
      </trkpt>
      <trkpt lat="44.42513" lon="6.1183">
        <ele>1370.496582</ele>
        <time>2011-07-20T10:34:27Z</time>
      </trkpt>
      <trkpt lat="44.42526" lon="6.11847">
        <ele>1371.457764</ele>
        <time>2011-07-20T10:34:35Z</time>
      </trkpt>
      <trkpt lat="44.42543" lon="6.11896">
        <ele>1370.977295</ele>
        <time>2011-07-20T10:34:52Z</time>
      </trkpt>
      <trkpt lat="44.42597" lon="6.1195">
        <ele>1372.419434</ele>
        <time>2011-07-20T10:35:15Z</time>
      </trkpt>
      <trkpt lat="44.42608" lon="6.11954">
        <ele>1372.419434</ele>
        <time>2011-07-20T10:35:19Z</time>
      </trkpt>
      <trkpt lat="44.42614" lon="6.11968">
        <ele>1371.938477</ele>
        <time>2011-07-20T10:35:24Z</time>
      </trkpt>
      <trkpt lat="44.426" lon="6.12027">
        <ele>1373.380859</ele>
        <time>2011-07-20T10:35:41Z</time>
      </trkpt>
      <trkpt lat="44.42593" lon="6.12039">
        <ele>1374.342041</ele>
        <time>2011-07-20T10:35:46Z</time>
      </trkpt>
      <trkpt lat="44.42601" lon="6.12079">
        <ele>1374.822754</ele>
        <time>2011-07-20T10:36:01Z</time>
      </trkpt>
      <trkpt lat="44.42605" lon="6.12084">
        <ele>1374.342041</ele>
        <time>2011-07-20T10:36:03Z</time>
      </trkpt>
      <trkpt lat="44.42606" lon="6.121">
        <ele>1374.342041</ele>
        <time>2011-07-20T10:36:08Z</time>
      </trkpt>
      <trkpt lat="44.42597" lon="6.12118">
        <ele>1374.342041</ele>
        <time>2011-07-20T10:36:14Z</time>
      </trkpt>
      <trkpt lat="44.42556" lon="6.12135">
        <ele>1375.783936</ele>
        <time>2011-07-20T10:36:30Z</time>
      </trkpt>
      <trkpt lat="44.42522" lon="6.12147">
        <ele>1376.745361</ele>
        <time>2011-07-20T10:36:42Z</time>
      </trkpt>
      <trkpt lat="44.42493" lon="6.12167">
        <ele>1375.783936</ele>
        <time>2011-07-20T10:36:53Z</time>
      </trkpt>
      <trkpt lat="44.42483" lon="6.12183">
        <ele>1373.380859</ele>
        <time>2011-07-20T10:36:58Z</time>
      </trkpt>
      <trkpt lat="44.42475" lon="6.12195">
        <ele>1378.187256</ele>
        <time>2011-07-20T10:37:01Z</time>
      </trkpt>
      <trkpt lat="44.42473" lon="6.12199">
        <ele>1378.187256</ele>
        <time>2011-07-20T10:37:02Z</time>
      </trkpt>
      <trkpt lat="44.42471" lon="6.12203">
        <ele>1373.380859</ele>
        <time>2011-07-20T10:37:03Z</time>
      </trkpt>
      <trkpt lat="44.42468" lon="6.12212">
        <ele>1372.419434</ele>
        <time>2011-07-20T10:37:05Z</time>
      </trkpt>
      <trkpt lat="44.42464" lon="6.12226">
        <ele>1378.187256</ele>
        <time>2011-07-20T10:37:08Z</time>
      </trkpt>
      <trkpt lat="44.42463" lon="6.1223">
        <ele>1378.187256</ele>
        <time>2011-07-20T10:37:09Z</time>
      </trkpt>
      <trkpt lat="44.42463" lon="6.1224">
        <ele>1376.745361</ele>
        <time>2011-07-20T10:37:11Z</time>
      </trkpt>
      <trkpt lat="44.42464" lon="6.12264">
        <ele>1374.822754</ele>
        <time>2011-07-20T10:37:16Z</time>
      </trkpt>
      <trkpt lat="44.42465" lon="6.12269">
        <ele>1378.667969</ele>
        <time>2011-07-20T10:37:17Z</time>
      </trkpt>
      <trkpt lat="44.42464" lon="6.12274">
        <ele>1372.419434</ele>
        <time>2011-07-20T10:37:18Z</time>
      </trkpt>
      <trkpt lat="44.42464" lon="6.12279">
        <ele>1372.419434</ele>
        <time>2011-07-20T10:37:19Z</time>
      </trkpt>
      <trkpt lat="44.42464" lon="6.12283">
        <ele>1376.264648</ele>
        <time>2011-07-20T10:37:20Z</time>
      </trkpt>
      <trkpt lat="44.42465" lon="6.12287">
        <ele>1376.264648</ele>
        <time>2011-07-20T10:37:21Z</time>
      </trkpt>
      <trkpt lat="44.42471" lon="6.12294">
        <ele>1374.822754</ele>
        <time>2011-07-20T10:37:23Z</time>
      </trkpt>
      <trkpt lat="44.42474" lon="6.12302">
        <ele>1377.706543</ele>
        <time>2011-07-20T10:37:25Z</time>
      </trkpt>
      <trkpt lat="44.42476" lon="6.12313">
        <ele>1373.861328</ele>
        <time>2011-07-20T10:37:27Z</time>
      </trkpt>
      <trkpt lat="44.42481" lon="6.12315">
        <ele>1373.861328</ele>
        <time>2011-07-20T10:37:28Z</time>
      </trkpt>
      <trkpt lat="44.42487" lon="6.12328">
        <ele>1377.706543</ele>
        <time>2011-07-20T10:37:32Z</time>
      </trkpt>
      <trkpt lat="44.42488" lon="6.12331">
        <ele>1377.706543</ele>
        <time>2011-07-20T10:37:33Z</time>
      </trkpt>
      <trkpt lat="44.4249" lon="6.12337">
        <ele>1379.148438</ele>
        <time>2011-07-20T10:37:35Z</time>
      </trkpt>
      <trkpt lat="44.4249" lon="6.12339">
        <ele>1375.783936</ele>
        <time>2011-07-20T10:37:36Z</time>
      </trkpt>
      <trkpt lat="44.42491" lon="6.12339">
        <ele>1375.783936</ele>
        <time>2011-07-20T10:37:37Z</time>
      </trkpt>
      <trkpt lat="44.42492" lon="6.12341">
        <ele>1374.342041</ele>
        <time>2011-07-20T10:37:39Z</time>
      </trkpt>
      <trkpt lat="44.42492" lon="6.12342">
        <ele>1379.148438</ele>
        <time>2011-07-20T10:37:40Z</time>
      </trkpt>
      <trkpt lat="44.4249" lon="6.12344">
        <ele>1375.783936</ele>
        <time>2011-07-20T10:37:41Z</time>
      </trkpt>
      <trkpt lat="44.4249" lon="6.12344">
        <ele>1376.745361</ele>
        <time>2011-07-20T10:37:58Z</time>
      </trkpt>
      <trkpt lat="44.4249" lon="6.12344">
        <ele>1376.264648</ele>
        <time>2011-07-20T10:38:25Z</time>
      </trkpt>
      <trkpt lat="44.42491" lon="6.12356">
        <ele>1376.264648</ele>
        <time>2011-07-20T10:38:30Z</time>
      </trkpt>
      <trkpt lat="44.42495" lon="6.12375">
        <ele>1375.783936</ele>
        <time>2011-07-20T10:38:35Z</time>
      </trkpt>
      <trkpt lat="44.42504" lon="6.12389">
        <ele>1372.900146</ele>
        <time>2011-07-20T10:38:40Z</time>
      </trkpt>
      <trkpt lat="44.42518" lon="6.12413">
        <ele>1372.419434</ele>
        <time>2011-07-20T10:38:50Z</time>
      </trkpt>
      <trkpt lat="44.42521" lon="6.12437">
        <ele>1373.861328</ele>
        <time>2011-07-20T10:38:54Z</time>
      </trkpt>
      <trkpt lat="44.42525" lon="6.12442">
        <ele>1373.380859</ele>
        <time>2011-07-20T10:38:56Z</time>
      </trkpt>
      <trkpt lat="44.42528" lon="6.12448">
        <ele>1374.342041</ele>
        <time>2011-07-20T10:38:58Z</time>
      </trkpt>
      <trkpt lat="44.42536" lon="6.12469">
        <ele>1371.457764</ele>
        <time>2011-07-20T10:39:03Z</time>
      </trkpt>
      <trkpt lat="44.42541" lon="6.12479">
        <ele>1370.977295</ele>
        <time>2011-07-20T10:39:06Z</time>
      </trkpt>
      <trkpt lat="44.42544" lon="6.1249">
        <ele>1371.938477</ele>
        <time>2011-07-20T10:39:10Z</time>
      </trkpt>
      <trkpt lat="44.42551" lon="6.12504">
        <ele>1370.015869</ele>
        <time>2011-07-20T10:39:14Z</time>
      </trkpt>
      <trkpt lat="44.42565" lon="6.12547">
        <ele>1368.573975</ele>
        <time>2011-07-20T10:39:24Z</time>
      </trkpt>
      <trkpt lat="44.42566" lon="6.12555">
        <ele>1366.651367</ele>
        <time>2011-07-20T10:39:26Z</time>
      </trkpt>
      <trkpt lat="44.42566" lon="6.12565">
        <ele>1369.054688</ele>
        <time>2011-07-20T10:39:28Z</time>
      </trkpt>
      <trkpt lat="44.42565" lon="6.1257">
        <ele>1365.690186</ele>
        <time>2011-07-20T10:39:30Z</time>
      </trkpt>
      <trkpt lat="44.42564" lon="6.12572">
        <ele>1365.690186</ele>
        <time>2011-07-20T10:39:31Z</time>
      </trkpt>
      <trkpt lat="44.42564" lon="6.12574">
        <ele>1366.651367</ele>
        <time>2011-07-20T10:39:42Z</time>
      </trkpt>
      <trkpt lat="44.42562" lon="6.12581">
        <ele>1368.093262</ele>
        <time>2011-07-20T10:39:46Z</time>
      </trkpt>
      <trkpt lat="44.42564" lon="6.1259">
        <ele>1369.054688</ele>
        <time>2011-07-20T10:39:49Z</time>
      </trkpt>
      <trkpt lat="44.42583" lon="6.12607">
        <ele>1367.13208</ele>
        <time>2011-07-20T10:39:56Z</time>
      </trkpt>
      <trkpt lat="44.42623" lon="6.12633">
        <ele>1363.286865</ele>
        <time>2011-07-20T10:40:09Z</time>
      </trkpt>
      <trkpt lat="44.42634" lon="6.12629">
        <ele>1363.286865</ele>
        <time>2011-07-20T10:40:13Z</time>
      </trkpt>
      <trkpt lat="44.42647" lon="6.12645">
        <ele>1360.883545</ele>
        <time>2011-07-20T10:40:20Z</time>
      </trkpt>
      <trkpt lat="44.42647" lon="6.12651">
        <ele>1360.883545</ele>
        <time>2011-07-20T10:40:22Z</time>
      </trkpt>
      <trkpt lat="44.4264" lon="6.12688">
        <ele>1357.519043</ele>
        <time>2011-07-20T10:40:30Z</time>
      </trkpt>
      <trkpt lat="44.42639" lon="6.12726">
        <ele>1356.076904</ele>
        <time>2011-07-20T10:40:40Z</time>
      </trkpt>
      <trkpt lat="44.42647" lon="6.12748">
        <ele>1354.154297</ele>
        <time>2011-07-20T10:40:46Z</time>
      </trkpt>
      <trkpt lat="44.42658" lon="6.12781">
        <ele>1353.192871</ele>
        <time>2011-07-20T10:40:54Z</time>
      </trkpt>
      <trkpt lat="44.42669" lon="6.12814">
        <ele>1352.712158</ele>
        <time>2011-07-20T10:41:01Z</time>
      </trkpt>
      <trkpt lat="44.4269" lon="6.12879">
        <ele>1352.231445</ele>
        <time>2011-07-20T10:41:15Z</time>
      </trkpt>
      <trkpt lat="44.42705" lon="6.12912">
        <ele>1353.192871</ele>
        <time>2011-07-20T10:41:24Z</time>
      </trkpt>
      <trkpt lat="44.42709" lon="6.12917">
        <ele>1353.192871</ele>
        <time>2011-07-20T10:41:27Z</time>
      </trkpt>
      <trkpt lat="44.4273" lon="6.12928">
        <ele>1354.154297</ele>
        <time>2011-07-20T10:41:42Z</time>
      </trkpt>
      <trkpt lat="44.42744" lon="6.12937">
        <ele>1356.557617</ele>
        <time>2011-07-20T10:41:58Z</time>
      </trkpt>
      <trkpt lat="44.4276" lon="6.12949">
        <ele>1358.480225</ele>
        <time>2011-07-20T10:42:10Z</time>
      </trkpt>
      <trkpt lat="44.42766" lon="6.12952">
        <ele>1359.922119</ele>
        <time>2011-07-20T10:42:19Z</time>
      </trkpt>
      <trkpt lat="44.42791" lon="6.12964">
        <ele>1361.844971</ele>
        <time>2011-07-20T10:42:33Z</time>
      </trkpt>
      <trkpt lat="44.42804" lon="6.12966">
        <ele>1363.286865</ele>
        <time>2011-07-20T10:42:44Z</time>
      </trkpt>
      <trkpt lat="44.42817" lon="6.12961">
        <ele>1364.248047</ele>
        <time>2011-07-20T10:42:59Z</time>
      </trkpt>
      <trkpt lat="44.42825" lon="6.1296">
        <ele>1364.72876</ele>
        <time>2011-07-20T10:43:02Z</time>
      </trkpt>
      <trkpt lat="44.4283" lon="6.1296">
        <ele>1366.170654</ele>
        <time>2011-07-20T10:43:14Z</time>
      </trkpt>
      <trkpt lat="44.42853" lon="6.1296">
        <ele>1367.612549</ele>
        <time>2011-07-20T10:43:23Z</time>
      </trkpt>
      <trkpt lat="44.42867" lon="6.12963">
        <ele>1368.573975</ele>
        <time>2011-07-20T10:43:35Z</time>
      </trkpt>
      <trkpt lat="44.42877" lon="6.12966">
        <ele>1369.054688</ele>
        <time>2011-07-20T10:43:46Z</time>
      </trkpt>
      <trkpt lat="44.42879" lon="6.12966">
        <ele>1371.457764</ele>
        <time>2011-07-20T10:43:58Z</time>
      </trkpt>
      <trkpt lat="44.42914" lon="6.12977">
        <ele>1374.342041</ele>
        <time>2011-07-20T10:44:18Z</time>
      </trkpt>
      <trkpt lat="44.42928" lon="6.12996">
        <ele>1376.264648</ele>
        <time>2011-07-20T10:44:35Z</time>
      </trkpt>
      <trkpt lat="44.42933" lon="6.12996">
        <ele>1376.745361</ele>
        <time>2011-07-20T10:44:44Z</time>
      </trkpt>
      <trkpt lat="44.42943" lon="6.12996">
        <ele>1377.226074</ele>
        <time>2011-07-20T10:44:52Z</time>
      </trkpt>
      <trkpt lat="44.42953" lon="6.12997">
        <ele>1377.706543</ele>
        <time>2011-07-20T10:44:57Z</time>
      </trkpt>
      <trkpt lat="44.42966" lon="6.13001">
        <ele>1379.148438</ele>
        <time>2011-07-20T10:45:13Z</time>
      </trkpt>
      <trkpt lat="44.42966" lon="6.13001">
        <ele>1379.62915</ele>
        <time>2011-07-20T10:45:19Z</time>
      </trkpt>
      <trkpt lat="44.42984" lon="6.13005">
        <ele>1381.071289</ele>
        <time>2011-07-20T10:45:26Z</time>
      </trkpt>
      <trkpt lat="44.42989" lon="6.13004">
        <ele>1382.032471</ele>
        <time>2011-07-20T10:45:33Z</time>
      </trkpt>
      <trkpt lat="44.42997" lon="6.13001">
        <ele>1382.032471</ele>
        <time>2011-07-20T10:45:36Z</time>
      </trkpt>
      <trkpt lat="44.42998" lon="6.13001">
        <ele>1382.993652</ele>
        <time>2011-07-20T10:45:48Z</time>
      </trkpt>
      <trkpt lat="44.42998" lon="6.13001">
        <ele>1384.435791</ele>
        <time>2011-07-20T10:45:57Z</time>
      </trkpt>
      <trkpt lat="44.43027" lon="6.12985">
        <ele>1385.877686</ele>
        <time>2011-07-20T10:46:09Z</time>
      </trkpt>
      <trkpt lat="44.43044" lon="6.12971">
        <ele>1386.838867</ele>
        <time>2011-07-20T10:46:23Z</time>
      </trkpt>
      <trkpt lat="44.43049" lon="6.12967">
        <ele>1387.800293</ele>
        <time>2011-07-20T10:46:29Z</time>
      </trkpt>
      <trkpt lat="44.43049" lon="6.12967">
        <ele>1388.28125</ele>
        <time>2011-07-20T10:46:37Z</time>
      </trkpt>
      <trkpt lat="44.43065" lon="6.12953">
        <ele>1389.242432</ele>
        <time>2011-07-20T10:46:46Z</time>
      </trkpt>
      <trkpt lat="44.43072" lon="6.12947">
        <ele>1390.684326</ele>
        <time>2011-07-20T10:46:58Z</time>
      </trkpt>
      <trkpt lat="44.43072" lon="6.12947">
        <ele>1390.684326</ele>
        <time>2011-07-20T10:47:00Z</time>
      </trkpt>
      <trkpt lat="44.43083" lon="6.12936">
        <ele>1392.607178</ele>
        <time>2011-07-20T10:47:12Z</time>
      </trkpt>
      <trkpt lat="44.43091" lon="6.12922">
        <ele>1393.087646</ele>
        <time>2011-07-20T10:47:14Z</time>
      </trkpt>
      <trkpt lat="44.43094" lon="6.12912">
        <ele>1393.568359</ele>
        <time>2011-07-20T10:47:22Z</time>
      </trkpt>
      <trkpt lat="44.43095" lon="6.12903">
        <ele>1393.568359</ele>
        <time>2011-07-20T10:47:25Z</time>
      </trkpt>
      <trkpt lat="44.43095" lon="6.12903">
        <ele>1394.049072</ele>
        <time>2011-07-20T10:47:31Z</time>
      </trkpt>
      <trkpt lat="44.43096" lon="6.12893">
        <ele>1394.529541</ele>
        <time>2011-07-20T10:47:36Z</time>
      </trkpt>
      <trkpt lat="44.43096" lon="6.12893">
        <ele>1394.529541</ele>
        <time>2011-07-20T10:47:40Z</time>
      </trkpt>
      <trkpt lat="44.43096" lon="6.12893">
        <ele>1395.010254</ele>
        <time>2011-07-20T10:47:45Z</time>
      </trkpt>
      <trkpt lat="44.43096" lon="6.12893">
        <ele>1395.490967</ele>
        <time>2011-07-20T10:47:49Z</time>
      </trkpt>
      <trkpt lat="44.43096" lon="6.12893">
        <ele>1395.490967</ele>
        <time>2011-07-20T10:47:51Z</time>
      </trkpt>
      <trkpt lat="44.431" lon="6.12859">
        <ele>1396.932861</ele>
        <time>2011-07-20T10:47:59Z</time>
      </trkpt>
      <trkpt lat="44.43101" lon="6.12844">
        <ele>1397.413574</ele>
        <time>2011-07-20T10:48:04Z</time>
      </trkpt>
      <trkpt lat="44.43102" lon="6.12838">
        <ele>1397.894287</ele>
        <time>2011-07-20T10:48:08Z</time>
      </trkpt>
      <trkpt lat="44.43102" lon="6.12838">
        <ele>1398.374756</ele>
        <time>2011-07-20T10:48:10Z</time>
      </trkpt>
      <trkpt lat="44.43104" lon="6.12825">
        <ele>1398.374756</ele>
        <time>2011-07-20T10:48:17Z</time>
      </trkpt>
      <trkpt lat="44.43104" lon="6.12825">
        <ele>1398.855469</ele>
        <time>2011-07-20T10:48:20Z</time>
      </trkpt>
      <trkpt lat="44.43107" lon="6.12795">
        <ele>1400.297607</ele>
        <time>2011-07-20T10:48:35Z</time>
      </trkpt>
      <trkpt lat="44.43107" lon="6.12795">
        <ele>1400.778076</ele>
        <time>2011-07-20T10:48:39Z</time>
      </trkpt>
      <trkpt lat="44.43107" lon="6.12784">
        <ele>1400.778076</ele>
        <time>2011-07-20T10:48:46Z</time>
      </trkpt>
      <trkpt lat="44.43108" lon="6.12764">
        <ele>1400.778076</ele>
        <time>2011-07-20T10:48:56Z</time>
      </trkpt>
      <trkpt lat="44.43108" lon="6.12756">
        <ele>1401.258789</ele>
        <time>2011-07-20T10:49:04Z</time>
      </trkpt>
      <trkpt lat="44.43109" lon="6.12735">
        <ele>1402.700684</ele>
        <time>2011-07-20T10:49:16Z</time>
      </trkpt>
      <trkpt lat="44.43109" lon="6.12735">
        <ele>1403.181396</ele>
        <time>2011-07-20T10:49:18Z</time>
      </trkpt>
      <trkpt lat="44.43112" lon="6.12719">
        <ele>1404.623535</ele>
        <time>2011-07-20T10:49:27Z</time>
      </trkpt>
      <trkpt lat="44.43115" lon="6.12708">
        <ele>1405.104248</ele>
        <time>2011-07-20T10:49:35Z</time>
      </trkpt>
      <trkpt lat="44.43115" lon="6.12708">
        <ele>1406.06543</ele>
        <time>2011-07-20T10:49:41Z</time>
      </trkpt>
      <trkpt lat="44.4312" lon="6.12687">
        <ele>1406.06543</ele>
        <time>2011-07-20T10:49:47Z</time>
      </trkpt>
      <trkpt lat="44.43121" lon="6.12678">
        <ele>1407.026855</ele>
        <time>2011-07-20T10:49:55Z</time>
      </trkpt>
      <trkpt lat="44.43124" lon="6.12659">
        <ele>1407.507568</ele>
        <time>2011-07-20T10:50:04Z</time>
      </trkpt>
      <trkpt lat="44.43124" lon="6.12659">
        <ele>1407.988281</ele>
        <time>2011-07-20T10:50:07Z</time>
      </trkpt>
      <trkpt lat="44.43119" lon="6.12635">
        <ele>1409.430176</ele>
        <time>2011-07-20T10:50:21Z</time>
      </trkpt>
      <trkpt lat="44.4311" lon="6.12619">
        <ele>1410.391357</ele>
        <time>2011-07-20T10:50:36Z</time>
      </trkpt>
      <trkpt lat="44.4311" lon="6.12619">
        <ele>1410.391357</ele>
        <time>2011-07-20T10:50:37Z</time>
      </trkpt>
      <trkpt lat="44.4311" lon="6.12619">
        <ele>1411.833496</ele>
        <time>2011-07-20T10:50:44Z</time>
      </trkpt>
      <trkpt lat="44.43105" lon="6.1259">
        <ele>1413.755859</ele>
        <time>2011-07-20T10:50:53Z</time>
      </trkpt>
      <trkpt lat="44.43105" lon="6.1259">
        <ele>1413.755859</ele>
        <time>2011-07-20T10:50:55Z</time>
      </trkpt>
      <trkpt lat="44.43113" lon="6.12567">
        <ele>1416.639893</ele>
        <time>2011-07-20T10:51:08Z</time>
      </trkpt>
      <trkpt lat="44.43113" lon="6.12567">
        <ele>1416.639893</ele>
        <time>2011-07-20T10:51:10Z</time>
      </trkpt>
      <trkpt lat="44.43118" lon="6.12561">
        <ele>1416.15918</ele>
        <time>2011-07-20T10:51:12Z</time>
      </trkpt>
      <trkpt lat="44.4313" lon="6.12552">
        <ele>1417.601074</ele>
        <time>2011-07-20T10:51:26Z</time>
      </trkpt>
      <trkpt lat="44.4314" lon="6.12548">
        <ele>1419.043213</ele>
        <time>2011-07-20T10:51:32Z</time>
      </trkpt>
      <trkpt lat="44.43154" lon="6.12539">
        <ele>1419.523926</ele>
        <time>2011-07-20T10:51:41Z</time>
      </trkpt>
      <trkpt lat="44.43173" lon="6.12515">
        <ele>1420.966064</ele>
        <time>2011-07-20T10:52:00Z</time>
      </trkpt>
      <trkpt lat="44.4319" lon="6.12505">
        <ele>1421.927246</ele>
        <time>2011-07-20T10:52:14Z</time>
      </trkpt>
      <trkpt lat="44.43201" lon="6.12503">
        <ele>1423.369385</ele>
        <time>2011-07-20T10:52:22Z</time>
      </trkpt>
      <trkpt lat="44.43206" lon="6.12502">
        <ele>1422.888672</ele>
        <time>2011-07-20T10:52:26Z</time>
      </trkpt>
      <trkpt lat="44.43228" lon="6.12487">
        <ele>1423.849854</ele>
        <time>2011-07-20T10:52:41Z</time>
      </trkpt>
      <trkpt lat="44.43245" lon="6.1247">
        <ele>1424.811279</ele>
        <time>2011-07-20T10:52:55Z</time>
      </trkpt>
      <trkpt lat="44.43261" lon="6.12451">
        <ele>1426.253174</ele>
        <time>2011-07-20T10:53:11Z</time>
      </trkpt>
      <trkpt lat="44.43265" lon="6.12447">
        <ele>1425.772461</ele>
        <time>2011-07-20T10:53:24Z</time>
      </trkpt>
      <trkpt lat="44.43265" lon="6.12447">
        <ele>1426.733887</ele>
        <time>2011-07-20T10:53:47Z</time>
      </trkpt>
      <trkpt lat="44.43265" lon="6.12447">
        <ele>1428.175781</ele>
        <time>2011-07-20T10:55:49Z</time>
      </trkpt>
      <trkpt lat="44.43276" lon="6.12426">
        <ele>1429.617676</ele>
        <time>2011-07-20T10:56:05Z</time>
      </trkpt>
      <trkpt lat="44.43278" lon="6.12423">
        <ele>1429.617676</ele>
        <time>2011-07-20T10:56:08Z</time>
      </trkpt>
      <trkpt lat="44.43286" lon="6.12405">
        <ele>1431.059814</ele>
        <time>2011-07-20T10:56:25Z</time>
      </trkpt>
      <trkpt lat="44.4329" lon="6.12394">
        <ele>1432.501709</ele>
        <time>2011-07-20T10:56:29Z</time>
      </trkpt>
      <trkpt lat="44.43291" lon="6.12389">
        <ele>1433.462891</ele>
        <time>2011-07-20T10:56:34Z</time>
      </trkpt>
      <trkpt lat="44.43292" lon="6.12384">
        <ele>1432.982178</ele>
        <time>2011-07-20T10:56:39Z</time>
      </trkpt>
      <trkpt lat="44.43306" lon="6.12384">
        <ele>1434.424316</ele>
        <time>2011-07-20T10:56:48Z</time>
      </trkpt>
      <trkpt lat="44.4332" lon="6.1239">
        <ele>1436.827637</ele>
        <time>2011-07-20T10:57:01Z</time>
      </trkpt>
      <trkpt lat="44.43326" lon="6.12385">
        <ele>1437.789063</ele>
        <time>2011-07-20T10:57:06Z</time>
      </trkpt>
      <trkpt lat="44.4333" lon="6.12369">
        <ele>1437.789063</ele>
        <time>2011-07-20T10:57:13Z</time>
      </trkpt>
      <trkpt lat="44.4333" lon="6.12355">
        <ele>1438.269775</ele>
        <time>2011-07-20T10:57:28Z</time>
      </trkpt>
      <trkpt lat="44.43334" lon="6.12331">
        <ele>1440.192383</ele>
        <time>2011-07-20T10:57:39Z</time>
      </trkpt>
      <trkpt lat="44.43334" lon="6.12331">
        <ele>1440.192383</ele>
        <time>2011-07-20T10:57:42Z</time>
      </trkpt>
      <trkpt lat="44.43349" lon="6.12323">
        <ele>1441.634277</ele>
        <time>2011-07-20T10:57:49Z</time>
      </trkpt>
      <trkpt lat="44.43365" lon="6.12332">
        <ele>1442.11499</ele>
        <time>2011-07-20T10:58:03Z</time>
      </trkpt>
      <trkpt lat="44.43379" lon="6.12346">
        <ele>1442.595703</ele>
        <time>2011-07-20T10:58:18Z</time>
      </trkpt>
      <trkpt lat="44.43383" lon="6.12344">
        <ele>1442.595703</ele>
        <time>2011-07-20T10:58:21Z</time>
      </trkpt>
      <trkpt lat="44.43394" lon="6.12336">
        <ele>1444.518066</ele>
        <time>2011-07-20T10:58:30Z</time>
      </trkpt>
      <trkpt lat="44.43412" lon="6.12323">
        <ele>1444.998779</ele>
        <time>2011-07-20T10:58:44Z</time>
      </trkpt>
      <trkpt lat="44.43414" lon="6.12322">
        <ele>1445.960205</ele>
        <time>2011-07-20T10:58:51Z</time>
      </trkpt>
      <trkpt lat="44.43433" lon="6.1232">
        <ele>1446.440918</ele>
        <time>2011-07-20T10:59:02Z</time>
      </trkpt>
      <trkpt lat="44.43458" lon="6.12327">
        <ele>1449.80542</ele>
        <time>2011-07-20T10:59:20Z</time>
      </trkpt>
      <trkpt lat="44.43459" lon="6.1232">
        <ele>1449.80542</ele>
        <time>2011-07-20T10:59:22Z</time>
      </trkpt>
      <trkpt lat="44.43459" lon="6.1232">
        <ele>1450.286133</ele>
        <time>2011-07-20T10:59:24Z</time>
      </trkpt>
      <trkpt lat="44.4344" lon="6.12308">
        <ele>1451.728027</ele>
        <time>2011-07-20T10:59:41Z</time>
      </trkpt>
      <trkpt lat="44.4343" lon="6.123">
        <ele>1453.170166</ele>
        <time>2011-07-20T10:59:50Z</time>
      </trkpt>
      <trkpt lat="44.43423" lon="6.12296">
        <ele>1454.612061</ele>
        <time>2011-07-20T10:59:58Z</time>
      </trkpt>
      <trkpt lat="44.43409" lon="6.12296">
        <ele>1455.573486</ele>
        <time>2011-07-20T11:00:08Z</time>
      </trkpt>
      <trkpt lat="44.43402" lon="6.12296">
        <ele>1456.534668</ele>
        <time>2011-07-20T11:00:14Z</time>
      </trkpt>
      <trkpt lat="44.43385" lon="6.12286">
        <ele>1457.976807</ele>
        <time>2011-07-20T11:00:30Z</time>
      </trkpt>
      <trkpt lat="44.43367" lon="6.12276">
        <ele>1459.89917</ele>
        <time>2011-07-20T11:00:46Z</time>
      </trkpt>
      <trkpt lat="44.43352" lon="6.12261">
        <ele>1461.341309</ele>
        <time>2011-07-20T11:01:02Z</time>
      </trkpt>
      <trkpt lat="44.4335" lon="6.12258">
        <ele>1461.341309</ele>
        <time>2011-07-20T11:01:04Z</time>
      </trkpt>
      <trkpt lat="44.43334" lon="6.12241">
        <ele>1462.30249</ele>
        <time>2011-07-20T11:01:18Z</time>
      </trkpt>
      <trkpt lat="44.43328" lon="6.12248">
        <ele>1462.783203</ele>
        <time>2011-07-20T11:01:25Z</time>
      </trkpt>
      <trkpt lat="44.43322" lon="6.12258">
        <ele>1464.225098</ele>
        <time>2011-07-20T11:01:31Z</time>
      </trkpt>
      <trkpt lat="44.43322" lon="6.12258">
        <ele>1464.705811</ele>
        <time>2011-07-20T11:01:33Z</time>
      </trkpt>
      <trkpt lat="44.43312" lon="6.1228">
        <ele>1466.628418</ele>
        <time>2011-07-20T11:01:46Z</time>
      </trkpt>
      <trkpt lat="44.43308" lon="6.12281">
        <ele>1467.5896</ele>
        <time>2011-07-20T11:01:49Z</time>
      </trkpt>
      <trkpt lat="44.43302" lon="6.12276">
        <ele>1467.5896</ele>
        <time>2011-07-20T11:01:55Z</time>
      </trkpt>
      <trkpt lat="44.43297" lon="6.12272">
        <ele>1468.070557</ele>
        <time>2011-07-20T11:02:00Z</time>
      </trkpt>
      <trkpt lat="44.4329" lon="6.12273">
        <ele>1468.070557</ele>
        <time>2011-07-20T11:02:05Z</time>
      </trkpt>
      <trkpt lat="44.43285" lon="6.12277">
        <ele>1469.031982</ele>
        <time>2011-07-20T11:02:09Z</time>
      </trkpt>
      <trkpt lat="44.43274" lon="6.12273">
        <ele>1470.95459</ele>
        <time>2011-07-20T11:02:21Z</time>
      </trkpt>
      <trkpt lat="44.43268" lon="6.1227">
        <ele>1469.993164</ele>
        <time>2011-07-20T11:02:25Z</time>
      </trkpt>
      <trkpt lat="44.43261" lon="6.1227">
        <ele>1469.512695</ele>
        <time>2011-07-20T11:02:31Z</time>
      </trkpt>
      <trkpt lat="44.43251" lon="6.1229">
        <ele>1470.95459</ele>
        <time>2011-07-20T11:02:43Z</time>
      </trkpt>
      <trkpt lat="44.43248" lon="6.12298">
        <ele>1471.915771</ele>
        <time>2011-07-20T11:02:48Z</time>
      </trkpt>
      <trkpt lat="44.43224" lon="6.12323">
        <ele>1474.319092</ele>
        <time>2011-07-20T11:03:10Z</time>
      </trkpt>
      <trkpt lat="44.43216" lon="6.12327">
        <ele>1474.319092</ele>
        <time>2011-07-20T11:03:17Z</time>
      </trkpt>
      <trkpt lat="44.43205" lon="6.12333">
        <ele>1474.319092</ele>
        <time>2011-07-20T11:03:27Z</time>
      </trkpt>
      <trkpt lat="44.43193" lon="6.12344">
        <ele>1475.760986</ele>
        <time>2011-07-20T11:03:41Z</time>
      </trkpt>
      <trkpt lat="44.43187" lon="6.12349">
        <ele>1477.683594</ele>
        <time>2011-07-20T11:03:47Z</time>
      </trkpt>
      <trkpt lat="44.43187" lon="6.12351">
        <ele>1477.203125</ele>
        <time>2011-07-20T11:03:48Z</time>
      </trkpt>
      <trkpt lat="44.43185" lon="6.12354">
        <ele>1478.164307</ele>
        <time>2011-07-20T11:03:50Z</time>
      </trkpt>
      <trkpt lat="44.43181" lon="6.1236">
        <ele>1478.164307</ele>
        <time>2011-07-20T11:03:55Z</time>
      </trkpt>
      <trkpt lat="44.43174" lon="6.12364">
        <ele>1479.606201</ele>
        <time>2011-07-20T11:04:01Z</time>
      </trkpt>
      <trkpt lat="44.43163" lon="6.12376">
        <ele>1481.04834</ele>
        <time>2011-07-20T11:04:13Z</time>
      </trkpt>
      <trkpt lat="44.43162" lon="6.12374">
        <ele>1481.528809</ele>
        <time>2011-07-20T11:04:15Z</time>
      </trkpt>
      <trkpt lat="44.43158" lon="6.12372">
        <ele>1482.009521</ele>
        <time>2011-07-20T11:04:20Z</time>
      </trkpt>
      <trkpt lat="44.43169" lon="6.12357">
        <ele>1483.932129</ele>
        <time>2011-07-20T11:04:33Z</time>
      </trkpt>
      <trkpt lat="44.43172" lon="6.12352">
        <ele>1484.413086</ele>
        <time>2011-07-20T11:04:37Z</time>
      </trkpt>
      <trkpt lat="44.43175" lon="6.12348">
        <ele>1484.893799</ele>
        <time>2011-07-20T11:04:40Z</time>
      </trkpt>
      <trkpt lat="44.43178" lon="6.1234">
        <ele>1484.413086</ele>
        <time>2011-07-20T11:04:45Z</time>
      </trkpt>
      <trkpt lat="44.43181" lon="6.12331">
        <ele>1485.374268</ele>
        <time>2011-07-20T11:04:51Z</time>
      </trkpt>
      <trkpt lat="44.43192" lon="6.12305">
        <ele>1487.296875</ele>
        <time>2011-07-20T11:05:09Z</time>
      </trkpt>
      <trkpt lat="44.432" lon="6.12296">
        <ele>1486.816162</ele>
        <time>2011-07-20T11:05:17Z</time>
      </trkpt>
      <trkpt lat="44.43203" lon="6.12293">
        <ele>1487.296875</ele>
        <time>2011-07-20T11:05:20Z</time>
      </trkpt>
      <trkpt lat="44.43214" lon="6.12271">
        <ele>1489.219482</ele>
        <time>2011-07-20T11:05:38Z</time>
      </trkpt>
      <trkpt lat="44.43216" lon="6.12267">
        <ele>1488.739014</ele>
        <time>2011-07-20T11:05:41Z</time>
      </trkpt>
      <trkpt lat="44.43224" lon="6.12252">
        <ele>1491.14209</ele>
        <time>2011-07-20T11:05:55Z</time>
      </trkpt>
      <trkpt lat="44.43224" lon="6.12243">
        <ele>1492.584229</ele>
        <time>2011-07-20T11:06:02Z</time>
      </trkpt>
      <trkpt lat="44.43226" lon="6.12233">
        <ele>1493.064697</ele>
        <time>2011-07-20T11:06:11Z</time>
      </trkpt>
      <trkpt lat="44.43227" lon="6.12231">
        <ele>1494.026123</ele>
        <time>2011-07-20T11:06:13Z</time>
      </trkpt>
      <trkpt lat="44.43228" lon="6.12225">
        <ele>1494.026123</ele>
        <time>2011-07-20T11:06:16Z</time>
      </trkpt>
      <trkpt lat="44.43238" lon="6.12215">
        <ele>1495.94873</ele>
        <time>2011-07-20T11:06:25Z</time>
      </trkpt>
      <trkpt lat="44.43239" lon="6.12216">
        <ele>1497.390625</ele>
        <time>2011-07-20T11:06:27Z</time>
      </trkpt>
      <trkpt lat="44.43254" lon="6.12207">
        <ele>1497.390625</ele>
        <time>2011-07-20T11:06:38Z</time>
      </trkpt>
      <trkpt lat="44.43255" lon="6.12203">
        <ele>1497.390625</ele>
        <time>2011-07-20T11:06:42Z</time>
      </trkpt>
      <trkpt lat="44.43264" lon="6.1219">
        <ele>1498.83252</ele>
        <time>2011-07-20T11:06:53Z</time>
      </trkpt>
      <trkpt lat="44.43275" lon="6.12179">
        <ele>1500.274902</ele>
        <time>2011-07-20T11:07:03Z</time>
      </trkpt>
      <trkpt lat="44.4328" lon="6.12171">
        <ele>1501.236084</ele>
        <time>2011-07-20T11:07:11Z</time>
      </trkpt>
      <trkpt lat="44.43282" lon="6.12168">
        <ele>1500.755371</ele>
        <time>2011-07-20T11:07:13Z</time>
      </trkpt>
      <trkpt lat="44.43294" lon="6.12159">
        <ele>1502.677979</ele>
        <time>2011-07-20T11:07:24Z</time>
      </trkpt>
      <trkpt lat="44.43314" lon="6.12146">
        <ele>1503.639404</ele>
        <time>2011-07-20T11:07:41Z</time>
      </trkpt>
      <trkpt lat="44.43322" lon="6.12139">
        <ele>1505.081299</ele>
        <time>2011-07-20T11:07:47Z</time>
      </trkpt>
      <trkpt lat="44.43328" lon="6.12136">
        <ele>1504.600586</ele>
        <time>2011-07-20T11:07:52Z</time>
      </trkpt>
      <trkpt lat="44.43331" lon="6.12133">
        <ele>1507.484619</ele>
        <time>2011-07-20T11:07:55Z</time>
      </trkpt>
      <trkpt lat="44.43336" lon="6.12121">
        <ele>1508.445801</ele>
        <time>2011-07-20T11:08:04Z</time>
      </trkpt>
      <trkpt lat="44.43335" lon="6.12118">
        <ele>1508.445801</ele>
        <time>2011-07-20T11:08:06Z</time>
      </trkpt>
      <trkpt lat="44.43337" lon="6.12111">
        <ele>1508.926514</ele>
        <time>2011-07-20T11:08:11Z</time>
      </trkpt>
      <trkpt lat="44.43344" lon="6.12097">
        <ele>1510.368408</ele>
        <time>2011-07-20T11:08:25Z</time>
      </trkpt>
      <trkpt lat="44.43349" lon="6.12094">
        <ele>1510.849121</ele>
        <time>2011-07-20T11:08:28Z</time>
      </trkpt>
      <trkpt lat="44.43361" lon="6.12094">
        <ele>1509.887695</ele>
        <time>2011-07-20T11:08:32Z</time>
      </trkpt>
      <trkpt lat="44.43364" lon="6.12099">
        <ele>1510.368408</ele>
        <time>2011-07-20T11:08:36Z</time>
      </trkpt>
      <trkpt lat="44.43367" lon="6.121">
        <ele>1510.368408</ele>
        <time>2011-07-20T11:08:38Z</time>
      </trkpt>
      <trkpt lat="44.43382" lon="6.12117">
        <ele>1510.849121</ele>
        <time>2011-07-20T11:08:52Z</time>
      </trkpt>
      <trkpt lat="44.43403" lon="6.12135">
        <ele>1512.291016</ele>
        <time>2011-07-20T11:09:10Z</time>
      </trkpt>
      <trkpt lat="44.43404" lon="6.12135">
        <ele>1512.291016</ele>
        <time>2011-07-20T11:09:11Z</time>
      </trkpt>
      <trkpt lat="44.43406" lon="6.12133">
        <ele>1513.252441</ele>
        <time>2011-07-20T11:09:14Z</time>
      </trkpt>
      <trkpt lat="44.43408" lon="6.12129">
        <ele>1513.252441</ele>
        <time>2011-07-20T11:09:17Z</time>
      </trkpt>
      <trkpt lat="44.43405" lon="6.12122">
        <ele>1513.252441</ele>
        <time>2011-07-20T11:09:21Z</time>
      </trkpt>
      <trkpt lat="44.43392" lon="6.12109">
        <ele>1514.213623</ele>
        <time>2011-07-20T11:09:35Z</time>
      </trkpt>
      <trkpt lat="44.43379" lon="6.12096">
        <ele>1515.175049</ele>
        <time>2011-07-20T11:09:49Z</time>
      </trkpt>
      <trkpt lat="44.43377" lon="6.12093">
        <ele>1516.136475</ele>
        <time>2011-07-20T11:09:51Z</time>
      </trkpt>
      <trkpt lat="44.43374" lon="6.1209">
        <ele>1515.655762</ele>
        <time>2011-07-20T11:09:53Z</time>
      </trkpt>
      <trkpt lat="44.43361" lon="6.12077">
        <ele>1517.578369</ele>
        <time>2011-07-20T11:10:07Z</time>
      </trkpt>
      <trkpt lat="44.43353" lon="6.12075">
        <ele>1518.539795</ele>
        <time>2011-07-20T11:10:14Z</time>
      </trkpt>
      <trkpt lat="44.43351" lon="6.12076">
        <ele>1518.059082</ele>
        <time>2011-07-20T11:10:16Z</time>
      </trkpt>
      <trkpt lat="44.43348" lon="6.12078">
        <ele>1519.020508</ele>
        <time>2011-07-20T11:10:18Z</time>
      </trkpt>
      <trkpt lat="44.43346" lon="6.1208">
        <ele>1518.539795</ele>
        <time>2011-07-20T11:10:20Z</time>
      </trkpt>
      <trkpt lat="44.4333" lon="6.12092">
        <ele>1519.981689</ele>
        <time>2011-07-20T11:10:34Z</time>
      </trkpt>
      <trkpt lat="44.43324" lon="6.12096">
        <ele>1520.462402</ele>
        <time>2011-07-20T11:10:41Z</time>
      </trkpt>
      <trkpt lat="44.43307" lon="6.12095">
        <ele>1521.423584</ele>
        <time>2011-07-20T11:10:57Z</time>
      </trkpt>
      <trkpt lat="44.43298" lon="6.12096">
        <ele>1522.38501</ele>
        <time>2011-07-20T11:11:05Z</time>
      </trkpt>
      <trkpt lat="44.43274" lon="6.12107">
        <ele>1523.826904</ele>
        <time>2011-07-20T11:11:26Z</time>
      </trkpt>
      <trkpt lat="44.43259" lon="6.12113">
        <ele>1524.307617</ele>
        <time>2011-07-20T11:11:39Z</time>
      </trkpt>
      <trkpt lat="44.43258" lon="6.12114">
        <ele>1524.78833</ele>
        <time>2011-07-20T11:11:40Z</time>
      </trkpt>
      <trkpt lat="44.43256" lon="6.12115">
        <ele>1525.749512</ele>
        <time>2011-07-20T11:11:43Z</time>
      </trkpt>
      <trkpt lat="44.43253" lon="6.12116">
        <ele>1526.230225</ele>
        <time>2011-07-20T11:11:45Z</time>
      </trkpt>
      <trkpt lat="44.43247" lon="6.12118">
        <ele>1527.19165</ele>
        <time>2011-07-20T11:11:50Z</time>
      </trkpt>
      <trkpt lat="44.43244" lon="6.12118">
        <ele>1527.672119</ele>
        <time>2011-07-20T11:11:53Z</time>
      </trkpt>
      <trkpt lat="44.43239" lon="6.12122">
        <ele>1527.672119</ele>
        <time>2011-07-20T11:11:57Z</time>
      </trkpt>
      <trkpt lat="44.43235" lon="6.12126">
        <ele>1528.633545</ele>
        <time>2011-07-20T11:12:01Z</time>
      </trkpt>
      <trkpt lat="44.43228" lon="6.12131">
        <ele>1529.114014</ele>
        <time>2011-07-20T11:12:08Z</time>
      </trkpt>
      <trkpt lat="44.43224" lon="6.12131">
        <ele>1530.075439</ele>
        <time>2011-07-20T11:12:11Z</time>
      </trkpt>
      <trkpt lat="44.43221" lon="6.12133">
        <ele>1529.594727</ele>
        <time>2011-07-20T11:12:14Z</time>
      </trkpt>
      <trkpt lat="44.43213" lon="6.12139">
        <ele>1530.075439</ele>
        <time>2011-07-20T11:12:20Z</time>
      </trkpt>
      <trkpt lat="44.43202" lon="6.12145">
        <ele>1531.517334</ele>
        <time>2011-07-20T11:12:31Z</time>
      </trkpt>
      <trkpt lat="44.43189" lon="6.12152">
        <ele>1532.959473</ele>
        <time>2011-07-20T11:12:45Z</time>
      </trkpt>
      <trkpt lat="44.43188" lon="6.12157">
        <ele>1533.920898</ele>
        <time>2011-07-20T11:12:49Z</time>
      </trkpt>
      <trkpt lat="44.43191" lon="6.1216">
        <ele>1533.920898</ele>
        <time>2011-07-20T11:12:52Z</time>
      </trkpt>
      <trkpt lat="44.43188" lon="6.12172">
        <ele>1534.882324</ele>
        <time>2011-07-20T11:12:58Z</time>
      </trkpt>
      <trkpt lat="44.43177" lon="6.12193">
        <ele>1536.324219</ele>
        <time>2011-07-20T11:13:11Z</time>
      </trkpt>
      <trkpt lat="44.43163" lon="6.1221">
        <ele>1538.727539</ele>
        <time>2011-07-20T11:13:27Z</time>
      </trkpt>
      <trkpt lat="44.43155" lon="6.12225">
        <ele>1538.727539</ele>
        <time>2011-07-20T11:13:39Z</time>
      </trkpt>
      <trkpt lat="44.4315" lon="6.1223">
        <ele>1539.688721</ele>
        <time>2011-07-20T11:13:47Z</time>
      </trkpt>
      <trkpt lat="44.43138" lon="6.12247">
        <ele>1540.169434</ele>
        <time>2011-07-20T11:14:02Z</time>
      </trkpt>
      <trkpt lat="44.43123" lon="6.12263">
        <ele>1541.130615</ele>
        <time>2011-07-20T11:14:14Z</time>
      </trkpt>
      <trkpt lat="44.43108" lon="6.12284">
        <ele>1543.053223</ele>
        <time>2011-07-20T11:14:24Z</time>
      </trkpt>
      <trkpt lat="44.43103" lon="6.12288">
        <ele>1544.495117</ele>
        <time>2011-07-20T11:14:35Z</time>
      </trkpt>
      <trkpt lat="44.43099" lon="6.12284">
        <ele>1546.417969</ele>
        <time>2011-07-20T11:14:44Z</time>
      </trkpt>
      <trkpt lat="44.43111" lon="6.12267">
        <ele>1547.859863</ele>
        <time>2011-07-20T11:14:57Z</time>
      </trkpt>
      <trkpt lat="44.43115" lon="6.12261">
        <ele>1547.859863</ele>
        <time>2011-07-20T11:15:01Z</time>
      </trkpt>
      <trkpt lat="44.4312" lon="6.12254">
        <ele>1549.302002</ele>
        <time>2011-07-20T11:15:06Z</time>
      </trkpt>
      <trkpt lat="44.43124" lon="6.12249">
        <ele>1550.263428</ele>
        <time>2011-07-20T11:15:10Z</time>
      </trkpt>
      <trkpt lat="44.43135" lon="6.12231">
        <ele>1549.782715</ele>
        <time>2011-07-20T11:15:22Z</time>
      </trkpt>
      <trkpt lat="44.43142" lon="6.12218">
        <ele>1552.666504</ele>
        <time>2011-07-20T11:15:32Z</time>
      </trkpt>
      <trkpt lat="44.43148" lon="6.12205">
        <ele>1553.62793</ele>
        <time>2011-07-20T11:15:42Z</time>
      </trkpt>
      <trkpt lat="44.43149" lon="6.122">
        <ele>1554.108643</ele>
        <time>2011-07-20T11:15:46Z</time>
      </trkpt>
      <trkpt lat="44.4315" lon="6.12198">
        <ele>1554.108643</ele>
        <time>2011-07-20T11:15:48Z</time>
      </trkpt>
      <trkpt lat="44.43157" lon="6.12172">
        <ele>1555.069824</ele>
        <time>2011-07-20T11:16:04Z</time>
      </trkpt>
      <trkpt lat="44.43155" lon="6.12154">
        <ele>1555.550537</ele>
        <time>2011-07-20T11:16:16Z</time>
      </trkpt>
      <trkpt lat="44.43153" lon="6.12148">
        <ele>1556.992432</ele>
        <time>2011-07-20T11:16:20Z</time>
      </trkpt>
      <trkpt lat="44.43153" lon="6.12118">
        <ele>1558.434326</ele>
        <time>2011-07-20T11:16:40Z</time>
      </trkpt>
      <trkpt lat="44.43155" lon="6.12116">
        <ele>1559.395752</ele>
        <time>2011-07-20T11:16:43Z</time>
      </trkpt>
      <trkpt lat="44.43162" lon="6.12109">
        <ele>1560.837646</ele>
        <time>2011-07-20T11:16:52Z</time>
      </trkpt>
      <trkpt lat="44.43166" lon="6.12105">
        <ele>1560.356934</ele>
        <time>2011-07-20T11:16:56Z</time>
      </trkpt>
      <trkpt lat="44.43167" lon="6.12101">
        <ele>1560.356934</ele>
        <time>2011-07-20T11:16:59Z</time>
      </trkpt>
      <trkpt lat="44.43172" lon="6.12092">
        <ele>1561.799072</ele>
        <time>2011-07-20T11:17:10Z</time>
      </trkpt>
      <trkpt lat="44.43173" lon="6.12091">
        <ele>1561.799072</ele>
        <time>2011-07-20T11:17:11Z</time>
      </trkpt>
      <trkpt lat="44.43178" lon="6.1208">
        <ele>1564.202393</ele>
        <time>2011-07-20T11:17:21Z</time>
      </trkpt>
      <trkpt lat="44.43192" lon="6.12069">
        <ele>1566.605713</ele>
        <time>2011-07-20T11:17:38Z</time>
      </trkpt>
      <trkpt lat="44.43193" lon="6.12066">
        <ele>1567.566895</ele>
        <time>2011-07-20T11:17:42Z</time>
      </trkpt>
      <trkpt lat="44.43201" lon="6.12063">
        <ele>1569.009033</ele>
        <time>2011-07-20T11:17:46Z</time>
      </trkpt>
      <trkpt lat="44.43213" lon="6.12056">
        <ele>1569.970215</ele>
        <time>2011-07-20T11:18:02Z</time>
      </trkpt>
      <trkpt lat="44.43225" lon="6.12048">
        <ele>1570.931641</ele>
        <time>2011-07-20T11:18:14Z</time>
      </trkpt>
      <trkpt lat="44.43236" lon="6.12039">
        <ele>1572.373535</ele>
        <time>2011-07-20T11:18:27Z</time>
      </trkpt>
      <trkpt lat="44.4324" lon="6.12036">
        <ele>1573.334961</ele>
        <time>2011-07-20T11:18:31Z</time>
      </trkpt>
      <trkpt lat="44.4324" lon="6.12035">
        <ele>1573.334961</ele>
        <time>2011-07-20T11:18:32Z</time>
      </trkpt>
      <trkpt lat="44.43253" lon="6.12001">
        <ele>1575.257324</ele>
        <time>2011-07-20T11:18:48Z</time>
      </trkpt>
      <trkpt lat="44.43254" lon="6.11999">
        <ele>1575.257324</ele>
        <time>2011-07-20T11:18:49Z</time>
      </trkpt>
      <trkpt lat="44.43252" lon="6.11976">
        <ele>1575.738037</ele>
        <time>2011-07-20T11:19:00Z</time>
      </trkpt>
      <trkpt lat="44.43252" lon="6.11953">
        <ele>1576.699463</ele>
        <time>2011-07-20T11:19:12Z</time>
      </trkpt>
      <trkpt lat="44.43252" lon="6.11945">
        <ele>1577.180176</ele>
        <time>2011-07-20T11:19:17Z</time>
      </trkpt>
      <trkpt lat="44.4325" lon="6.11933">
        <ele>1579.102539</ele>
        <time>2011-07-20T11:19:24Z</time>
      </trkpt>
      <trkpt lat="44.43249" lon="6.11928">
        <ele>1580.064209</ele>
        <time>2011-07-20T11:19:27Z</time>
      </trkpt>
      <trkpt lat="44.43249" lon="6.11921">
        <ele>1580.064209</ele>
        <time>2011-07-20T11:19:31Z</time>
      </trkpt>
      <trkpt lat="44.43243" lon="6.11913">
        <ele>1581.025635</ele>
        <time>2011-07-20T11:19:38Z</time>
      </trkpt>
      <trkpt lat="44.43242" lon="6.1191">
        <ele>1581.025635</ele>
        <time>2011-07-20T11:19:40Z</time>
      </trkpt>
      <trkpt lat="44.4323" lon="6.11906">
        <ele>1581.025635</ele>
        <time>2011-07-20T11:19:47Z</time>
      </trkpt>
      <trkpt lat="44.43226" lon="6.1191">
        <ele>1581.025635</ele>
        <time>2011-07-20T11:19:49Z</time>
      </trkpt>
      <trkpt lat="44.43212" lon="6.11916">
        <ele>1581.986816</ele>
        <time>2011-07-20T11:20:03Z</time>
      </trkpt>
      <trkpt lat="44.43202" lon="6.1192">
        <ele>1582.467529</ele>
        <time>2011-07-20T11:20:14Z</time>
      </trkpt>
      <trkpt lat="44.43188" lon="6.11925">
        <ele>1583.909424</ele>
        <time>2011-07-20T11:20:27Z</time>
      </trkpt>
      <trkpt lat="44.43183" lon="6.11924">
        <ele>1583.909424</ele>
        <time>2011-07-20T11:20:31Z</time>
      </trkpt>
      <trkpt lat="44.43179" lon="6.11922">
        <ele>1585.351318</ele>
        <time>2011-07-20T11:20:34Z</time>
      </trkpt>
      <trkpt lat="44.43164" lon="6.11922">
        <ele>1587.754639</ele>
        <time>2011-07-20T11:20:45Z</time>
      </trkpt>
      <trkpt lat="44.43154" lon="6.11921">
        <ele>1588.716064</ele>
        <time>2011-07-20T11:20:53Z</time>
      </trkpt>
      <trkpt lat="44.43149" lon="6.11924">
        <ele>1588.235352</ele>
        <time>2011-07-20T11:20:57Z</time>
      </trkpt>
      <trkpt lat="44.43141" lon="6.11926">
        <ele>1588.235352</ele>
        <time>2011-07-20T11:21:03Z</time>
      </trkpt>
      <trkpt lat="44.43133" lon="6.11933">
        <ele>1588.716064</ele>
        <time>2011-07-20T11:21:13Z</time>
      </trkpt>
      <trkpt lat="44.4313" lon="6.11933">
        <ele>1589.677246</ele>
        <time>2011-07-20T11:21:15Z</time>
      </trkpt>
      <trkpt lat="44.43114" lon="6.11932">
        <ele>1591.599854</ele>
        <time>2011-07-20T11:21:29Z</time>
      </trkpt>
      <trkpt lat="44.43105" lon="6.1193">
        <ele>1592.080566</ele>
        <time>2011-07-20T11:21:34Z</time>
      </trkpt>
      <trkpt lat="44.43102" lon="6.11931">
        <ele>1591.599854</ele>
        <time>2011-07-20T11:21:36Z</time>
      </trkpt>
      <trkpt lat="44.43093" lon="6.11933">
        <ele>1592.080566</ele>
        <time>2011-07-20T11:21:43Z</time>
      </trkpt>
      <trkpt lat="44.43081" lon="6.11936">
        <ele>1592.561279</ele>
        <time>2011-07-20T11:21:50Z</time>
      </trkpt>
      <trkpt lat="44.43061" lon="6.11949">
        <ele>1596.887207</ele>
        <time>2011-07-20T11:22:06Z</time>
      </trkpt>
      <trkpt lat="44.4306" lon="6.11951">
        <ele>1596.887207</ele>
        <time>2011-07-20T11:22:07Z</time>
      </trkpt>
      <trkpt lat="44.43058" lon="6.11954">
        <ele>1595.445068</ele>
        <time>2011-07-20T11:22:09Z</time>
      </trkpt>
      <trkpt lat="44.43037" lon="6.11974">
        <ele>1596.887207</ele>
        <time>2011-07-20T11:22:27Z</time>
      </trkpt>
      <trkpt lat="44.43018" lon="6.11995">
        <ele>1597.848633</ele>
        <time>2011-07-20T11:22:45Z</time>
      </trkpt>
      <trkpt lat="44.43004" lon="6.12016">
        <ele>1598.809814</ele>
        <time>2011-07-20T11:22:59Z</time>
      </trkpt>
      <trkpt lat="44.43005" lon="6.12027">
        <ele>1599.290527</ele>
        <time>2011-07-20T11:23:13Z</time>
      </trkpt>
      <trkpt lat="44.43004" lon="6.12028">
        <ele>1600.251953</ele>
        <time>2011-07-20T11:23:45Z</time>
      </trkpt>
      <trkpt lat="44.42985" lon="6.12022">
        <ele>1599.290527</ele>
        <time>2011-07-20T11:24:01Z</time>
      </trkpt>
      <trkpt lat="44.42983" lon="6.12013">
        <ele>1598.809814</ele>
        <time>2011-07-20T11:24:06Z</time>
      </trkpt>
      <trkpt lat="44.42983" lon="6.12008">
        <ele>1597.848633</ele>
        <time>2011-07-20T11:24:24Z</time>
      </trkpt>
      <trkpt lat="44.4298" lon="6.12015">
        <ele>1598.809814</ele>
        <time>2011-07-20T11:24:47Z</time>
      </trkpt>
      <trkpt lat="44.42978" lon="6.12007">
        <ele>1598.329102</ele>
        <time>2011-07-20T11:25:02Z</time>
      </trkpt>
      <trkpt lat="44.42973" lon="6.12008">
        <ele>1597.36792</ele>
        <time>2011-07-20T11:25:21Z</time>
      </trkpt>
      <trkpt lat="44.42972" lon="6.12017">
        <ele>1596.406738</ele>
        <time>2011-07-20T11:25:36Z</time>
      </trkpt>
      <trkpt lat="44.42971" lon="6.12018">
        <ele>1595.445068</ele>
        <time>2011-07-20T11:25:38Z</time>
      </trkpt>
      <trkpt lat="44.42968" lon="6.12017">
        <ele>1595.445068</ele>
        <time>2011-07-20T11:25:41Z</time>
      </trkpt>
      <trkpt lat="44.42962" lon="6.12014">
        <ele>1596.406738</ele>
        <time>2011-07-20T11:25:47Z</time>
      </trkpt>
      <trkpt lat="44.42961" lon="6.12009">
        <ele>1595.445068</ele>
        <time>2011-07-20T11:26:04Z</time>
      </trkpt>
      <trkpt lat="44.42961" lon="6.1201">
        <ele>1595.925781</ele>
        <time>2011-07-20T11:26:44Z</time>
      </trkpt>
      <trkpt lat="44.42959" lon="6.12009">
        <ele>1594.964355</ele>
        <time>2011-07-20T11:27:42Z</time>
      </trkpt>
      <trkpt lat="44.42958" lon="6.12009">
        <ele>1595.925781</ele>
        <time>2011-07-20T11:29:15Z</time>
      </trkpt>
      <trkpt lat="44.42959" lon="6.12008">
        <ele>1595.925781</ele>
        <time>2011-07-20T11:38:12Z</time>
      </trkpt>
      <trkpt lat="44.42958" lon="6.12008">
        <ele>1594.483643</ele>
        <time>2011-07-20T11:38:24Z</time>
      </trkpt>
      <trkpt lat="44.42958" lon="6.12008">
        <ele>1595.445068</ele>
        <time>2011-07-20T11:38:26Z</time>
      </trkpt>
      <trkpt lat="44.42964" lon="6.11996">
        <ele>1581.025635</ele>
        <time>2011-07-20T11:39:35Z</time>
      </trkpt>
      <trkpt lat="44.42958" lon="6.1201">
        <ele>1582.467529</ele>
        <time>2011-07-20T11:40:32Z</time>
      </trkpt>
      <trkpt lat="44.42959" lon="6.1201">
        <ele>1581.506104</ele>
        <time>2011-07-20T11:42:29Z</time>
      </trkpt>
      <trkpt lat="44.4296" lon="6.1201">
        <ele>1580.544922</ele>
        <time>2011-07-20T11:42:33Z</time>
      </trkpt>
      <trkpt lat="44.4296" lon="6.12012">
        <ele>1580.064209</ele>
        <time>2011-07-20T11:43:05Z</time>
      </trkpt>
      <trkpt lat="44.4296" lon="6.12012">
        <ele>1583.428711</ele>
        <time>2011-07-20T11:43:30Z</time>
      </trkpt>
      <trkpt lat="44.4296" lon="6.12012">
        <ele>1583.428711</ele>
        <time>2011-07-20T11:43:31Z</time>
      </trkpt>
      <trkpt lat="44.42963" lon="6.12013">
        <ele>1581.986816</ele>
        <time>2011-07-20T11:43:45Z</time>
      </trkpt>
      <trkpt lat="44.42965" lon="6.12014">
        <ele>1580.544922</ele>
        <time>2011-07-20T11:43:47Z</time>
      </trkpt>
      <trkpt lat="44.42969" lon="6.12016">
        <ele>1582.467529</ele>
        <time>2011-07-20T11:43:51Z</time>
      </trkpt>
      <trkpt lat="44.42983" lon="6.12012">
        <ele>1582.947998</ele>
        <time>2011-07-20T11:44:11Z</time>
      </trkpt>
      <trkpt lat="44.42988" lon="6.12008">
        <ele>1582.947998</ele>
        <time>2011-07-20T11:45:31Z</time>
      </trkpt>
      <trkpt lat="44.43003" lon="6.11999">
        <ele>1583.428711</ele>
        <time>2011-07-20T11:45:40Z</time>
      </trkpt>
      <trkpt lat="44.43032" lon="6.11976">
        <ele>1582.467529</ele>
        <time>2011-07-20T11:45:56Z</time>
      </trkpt>
      <trkpt lat="44.43082" lon="6.11937">
        <ele>1579.102539</ele>
        <time>2011-07-20T11:46:14Z</time>
      </trkpt>
      <trkpt lat="44.43125" lon="6.11937">
        <ele>1575.738037</ele>
        <time>2011-07-20T11:46:25Z</time>
      </trkpt>
      <trkpt lat="44.43166" lon="6.11933">
        <ele>1572.854248</ele>
        <time>2011-07-20T11:46:35Z</time>
      </trkpt>
      <trkpt lat="44.43195" lon="6.11926">
        <ele>1570.931641</ele>
        <time>2011-07-20T11:46:41Z</time>
      </trkpt>
      <trkpt lat="44.43233" lon="6.11913">
        <ele>1568.047607</ele>
        <time>2011-07-20T11:46:51Z</time>
      </trkpt>
      <trkpt lat="44.43247" lon="6.11932">
        <ele>1566.605713</ele>
        <time>2011-07-20T11:47:02Z</time>
      </trkpt>
      <trkpt lat="44.43251" lon="6.11954">
        <ele>1565.163818</ele>
        <time>2011-07-20T11:47:09Z</time>
      </trkpt>
      <trkpt lat="44.43255" lon="6.1198">
        <ele>1563.721436</ele>
        <time>2011-07-20T11:47:17Z</time>
      </trkpt>
      <trkpt lat="44.43252" lon="6.12015">
        <ele>1561.318359</ele>
        <time>2011-07-20T11:47:31Z</time>
      </trkpt>
      <trkpt lat="44.43214" lon="6.12045">
        <ele>1558.434326</ele>
        <time>2011-07-20T11:47:45Z</time>
      </trkpt>
      <trkpt lat="44.43206" lon="6.12051">
        <ele>1556.992432</ele>
        <time>2011-07-20T11:47:48Z</time>
      </trkpt>
      <trkpt lat="44.43188" lon="6.12064">
        <ele>1555.069824</ele>
        <time>2011-07-20T11:47:54Z</time>
      </trkpt>
      <trkpt lat="44.43169" lon="6.12084">
        <ele>1551.705322</ele>
        <time>2011-07-20T11:48:01Z</time>
      </trkpt>
      <trkpt lat="44.43166" lon="6.12088">
        <ele>1551.705322</ele>
        <time>2011-07-20T11:48:02Z</time>
      </trkpt>
      <trkpt lat="44.43146" lon="6.12119">
        <ele>1549.302002</ele>
        <time>2011-07-20T11:48:12Z</time>
      </trkpt>
      <trkpt lat="44.4314" lon="6.12156">
        <ele>1546.417969</ele>
        <time>2011-07-20T11:48:22Z</time>
      </trkpt>
      <trkpt lat="44.43133" lon="6.12196">
        <ele>1542.572754</ele>
        <time>2011-07-20T11:48:31Z</time>
      </trkpt>
      <trkpt lat="44.43133" lon="6.12199">
        <ele>1542.572754</ele>
        <time>2011-07-20T11:48:32Z</time>
      </trkpt>
      <trkpt lat="44.43121" lon="6.12236">
        <ele>1541.130615</ele>
        <time>2011-07-20T11:48:43Z</time>
      </trkpt>
      <trkpt lat="44.43103" lon="6.12272">
        <ele>1537.766113</ele>
        <time>2011-07-20T11:48:54Z</time>
      </trkpt>
      <trkpt lat="44.43096" lon="6.12284">
        <ele>1536.804688</ele>
        <time>2011-07-20T11:48:59Z</time>
      </trkpt>
      <trkpt lat="44.43101" lon="6.12289">
        <ele>1534.882324</ele>
        <time>2011-07-20T11:49:08Z</time>
      </trkpt>
      <trkpt lat="44.43123" lon="6.1226">
        <ele>1532.959473</ele>
        <time>2011-07-20T11:49:21Z</time>
      </trkpt>
      <trkpt lat="44.43153" lon="6.12212">
        <ele>1529.114014</ele>
        <time>2011-07-20T11:49:35Z</time>
      </trkpt>
      <trkpt lat="44.43157" lon="6.12206">
        <ele>1528.152832</ele>
        <time>2011-07-20T11:49:37Z</time>
      </trkpt>
      <trkpt lat="44.43174" lon="6.12174">
        <ele>1525.268799</ele>
        <time>2011-07-20T11:49:49Z</time>
      </trkpt>
      <trkpt lat="44.43181" lon="6.12157">
        <ele>1524.307617</ele>
        <time>2011-07-20T11:49:54Z</time>
      </trkpt>
      <trkpt lat="44.43188" lon="6.12145">
        <ele>1522.865723</ele>
        <time>2011-07-20T11:49:58Z</time>
      </trkpt>
      <trkpt lat="44.43215" lon="6.12134">
        <ele>1520.943115</ele>
        <time>2011-07-20T11:50:07Z</time>
      </trkpt>
      <trkpt lat="44.43246" lon="6.12122">
        <ele>1518.539795</ele>
        <time>2011-07-20T11:50:16Z</time>
      </trkpt>
      <trkpt lat="44.43256" lon="6.12118">
        <ele>1517.578369</ele>
        <time>2011-07-20T11:50:19Z</time>
      </trkpt>
      <trkpt lat="44.43262" lon="6.12115">
        <ele>1516.136475</ele>
        <time>2011-07-20T11:50:21Z</time>
      </trkpt>
      <trkpt lat="44.43305" lon="6.121">
        <ele>1512.291016</ele>
        <time>2011-07-20T11:50:33Z</time>
      </trkpt>
      <trkpt lat="44.43339" lon="6.12088">
        <ele>1508.926514</ele>
        <time>2011-07-20T11:50:43Z</time>
      </trkpt>
      <trkpt lat="44.43342" lon="6.12085">
        <ele>1508.926514</ele>
        <time>2011-07-20T11:50:44Z</time>
      </trkpt>
      <trkpt lat="44.43355" lon="6.12077">
        <ele>1508.926514</ele>
        <time>2011-07-20T11:50:49Z</time>
      </trkpt>
      <trkpt lat="44.43363" lon="6.12083">
        <ele>1508.445801</ele>
        <time>2011-07-20T11:50:51Z</time>
      </trkpt>
      <trkpt lat="44.43372" lon="6.12094">
        <ele>1507.003906</ele>
        <time>2011-07-20T11:50:54Z</time>
      </trkpt>
      <trkpt lat="44.43389" lon="6.12111">
        <ele>1505.562012</ele>
        <time>2011-07-20T11:50:58Z</time>
      </trkpt>
      <trkpt lat="44.43405" lon="6.12127">
        <ele>1503.639404</ele>
        <time>2011-07-20T11:51:04Z</time>
      </trkpt>
      <trkpt lat="44.4341" lon="6.12133">
        <ele>1502.677979</ele>
        <time>2011-07-20T11:51:10Z</time>
      </trkpt>
      <trkpt lat="44.43411" lon="6.12136">
        <ele>1502.197266</ele>
        <time>2011-07-20T11:51:29Z</time>
      </trkpt>
      <trkpt lat="44.4341" lon="6.12135">
        <ele>1502.677979</ele>
        <time>2011-07-20T11:51:45Z</time>
      </trkpt>
      <trkpt lat="44.43401" lon="6.12128">
        <ele>1502.197266</ele>
        <time>2011-07-20T11:51:51Z</time>
      </trkpt>
      <trkpt lat="44.43366" lon="6.12099">
        <ele>1500.274902</ele>
        <time>2011-07-20T11:52:05Z</time>
      </trkpt>
      <trkpt lat="44.43351" lon="6.12101">
        <ele>1500.274902</ele>
        <time>2011-07-20T11:52:09Z</time>
      </trkpt>
      <trkpt lat="44.43344" lon="6.1211">
        <ele>1498.83252</ele>
        <time>2011-07-20T11:52:12Z</time>
      </trkpt>
      <trkpt lat="44.43321" lon="6.12141">
        <ele>1495.94873</ele>
        <time>2011-07-20T11:52:22Z</time>
      </trkpt>
      <trkpt lat="44.4331" lon="6.12151">
        <ele>1494.506592</ele>
        <time>2011-07-20T11:52:26Z</time>
      </trkpt>
      <trkpt lat="44.43297" lon="6.12161">
        <ele>1493.064697</ele>
        <time>2011-07-20T11:52:30Z</time>
      </trkpt>
      <trkpt lat="44.43271" lon="6.12182">
        <ele>1489.700195</ele>
        <time>2011-07-20T11:52:38Z</time>
      </trkpt>
      <trkpt lat="44.43258" lon="6.12196">
        <ele>1487.777588</ele>
        <time>2011-07-20T11:52:44Z</time>
      </trkpt>
      <trkpt lat="44.4324" lon="6.12207">
        <ele>1486.335693</ele>
        <time>2011-07-20T11:52:50Z</time>
      </trkpt>
      <trkpt lat="44.43237" lon="6.12207">
        <ele>1485.374268</ele>
        <time>2011-07-20T11:52:54Z</time>
      </trkpt>
      <trkpt lat="44.43236" lon="6.1222">
        <ele>1484.413086</ele>
        <time>2011-07-20T11:52:56Z</time>
      </trkpt>
      <trkpt lat="44.43235" lon="6.12236">
        <ele>1482.970703</ele>
        <time>2011-07-20T11:52:59Z</time>
      </trkpt>
      <trkpt lat="44.43224" lon="6.12262">
        <ele>1481.04834</ele>
        <time>2011-07-20T11:53:06Z</time>
      </trkpt>
      <trkpt lat="44.43199" lon="6.12298">
        <ele>1477.683594</ele>
        <time>2011-07-20T11:53:15Z</time>
      </trkpt>
      <trkpt lat="44.43197" lon="6.12303">
        <ele>1477.203125</ele>
        <time>2011-07-20T11:53:16Z</time>
      </trkpt>
      <trkpt lat="44.43194" lon="6.12307">
        <ele>1477.203125</ele>
        <time>2011-07-20T11:53:17Z</time>
      </trkpt>
      <trkpt lat="44.43178" lon="6.12337">
        <ele>1474.319092</ele>
        <time>2011-07-20T11:53:24Z</time>
      </trkpt>
      <trkpt lat="44.43162" lon="6.12363">
        <ele>1473.35791</ele>
        <time>2011-07-20T11:53:30Z</time>
      </trkpt>
      <trkpt lat="44.43162" lon="6.1237">
        <ele>1471.915771</ele>
        <time>2011-07-20T11:53:33Z</time>
      </trkpt>
      <trkpt lat="44.4317" lon="6.12367">
        <ele>1470.95459</ele>
        <time>2011-07-20T11:53:37Z</time>
      </trkpt>
      <trkpt lat="44.43192" lon="6.12343">
        <ele>1467.5896</ele>
        <time>2011-07-20T11:53:48Z</time>
      </trkpt>
      <trkpt lat="44.43216" lon="6.12321">
        <ele>1465.667236</ele>
        <time>2011-07-20T11:53:58Z</time>
      </trkpt>
      <trkpt lat="44.43225" lon="6.12315">
        <ele>1464.225098</ele>
        <time>2011-07-20T11:54:01Z</time>
      </trkpt>
      <trkpt lat="44.43252" lon="6.12281">
        <ele>1461.822021</ele>
        <time>2011-07-20T11:54:12Z</time>
      </trkpt>
      <trkpt lat="44.43254" lon="6.12272">
        <ele>1460.860596</ele>
        <time>2011-07-20T11:54:14Z</time>
      </trkpt>
      <trkpt lat="44.43267" lon="6.12268">
        <ele>1460.379883</ele>
        <time>2011-07-20T11:54:18Z</time>
      </trkpt>
      <trkpt lat="44.43302" lon="6.12282">
        <ele>1457.015381</ele>
        <time>2011-07-20T11:54:30Z</time>
      </trkpt>
      <trkpt lat="44.43307" lon="6.12276">
        <ele>1456.534668</ele>
        <time>2011-07-20T11:54:32Z</time>
      </trkpt>
      <trkpt lat="44.43317" lon="6.12267">
        <ele>1455.092773</ele>
        <time>2011-07-20T11:54:37Z</time>
      </trkpt>
      <trkpt lat="44.43341" lon="6.1224">
        <ele>1452.20874</ele>
        <time>2011-07-20T11:54:47Z</time>
      </trkpt>
      <trkpt lat="44.43348" lon="6.12252">
        <ele>1452.20874</ele>
        <time>2011-07-20T11:54:51Z</time>
      </trkpt>
      <trkpt lat="44.43357" lon="6.1227">
        <ele>1451.247314</ele>
        <time>2011-07-20T11:54:55Z</time>
      </trkpt>
      <trkpt lat="44.43368" lon="6.12278">
        <ele>1449.80542</ele>
        <time>2011-07-20T11:54:59Z</time>
      </trkpt>
      <trkpt lat="44.43378" lon="6.12281">
        <ele>1448.363281</ele>
        <time>2011-07-20T11:55:02Z</time>
      </trkpt>
      <trkpt lat="44.43416" lon="6.12295">
        <ele>1445.479492</ele>
        <time>2011-07-20T11:55:14Z</time>
      </trkpt>
      <trkpt lat="44.4343" lon="6.12299">
        <ele>1444.998779</ele>
        <time>2011-07-20T11:55:18Z</time>
      </trkpt>
      <trkpt lat="44.43444" lon="6.12311">
        <ele>1443.076172</ele>
        <time>2011-07-20T11:55:22Z</time>
      </trkpt>
      <trkpt lat="44.43462" lon="6.12318">
        <ele>1440.192383</ele>
        <time>2011-07-20T11:55:33Z</time>
      </trkpt>
      <trkpt lat="44.43459" lon="6.12321">
        <ele>1440.672852</ele>
        <time>2011-07-20T11:55:38Z</time>
      </trkpt>
      <trkpt lat="44.43459" lon="6.1232">
        <ele>1439.71167</ele>
        <time>2011-07-20T11:55:47Z</time>
      </trkpt>
      <trkpt lat="44.43459" lon="6.1232">
        <ele>1439.230957</ele>
        <time>2011-07-20T11:56:10Z</time>
      </trkpt>
      <trkpt lat="44.43459" lon="6.1232">
        <ele>1438.750488</ele>
        <time>2011-07-20T11:56:29Z</time>
      </trkpt>
      <trkpt lat="44.43459" lon="6.1232">
        <ele>1439.230957</ele>
        <time>2011-07-20T11:57:12Z</time>
      </trkpt>
      <trkpt lat="44.43436" lon="6.12321">
        <ele>1437.789063</ele>
        <time>2011-07-20T11:57:20Z</time>
      </trkpt>
      <trkpt lat="44.43459" lon="6.1232">
        <ele>1437.30835</ele>
        <time>2011-07-20T11:57:24Z</time>
      </trkpt>
      <trkpt lat="44.43407" lon="6.12324">
        <ele>1435.385498</ele>
        <time>2011-07-20T11:57:27Z</time>
      </trkpt>
      <trkpt lat="44.43399" lon="6.12329">
        <ele>1434.905029</ele>
        <time>2011-07-20T11:57:29Z</time>
      </trkpt>
      <trkpt lat="44.43389" lon="6.12339">
        <ele>1432.982178</ele>
        <time>2011-07-20T11:57:32Z</time>
      </trkpt>
      <trkpt lat="44.43381" lon="6.12345">
        <ele>1432.020996</ele>
        <time>2011-07-20T11:57:34Z</time>
      </trkpt>
      <trkpt lat="44.43365" lon="6.12334">
        <ele>1431.540283</ele>
        <time>2011-07-20T11:57:39Z</time>
      </trkpt>
      <trkpt lat="44.4336" lon="6.12325">
        <ele>1431.540283</ele>
        <time>2011-07-20T11:57:41Z</time>
      </trkpt>
      <trkpt lat="44.4334" lon="6.12325">
        <ele>1430.579102</ele>
        <time>2011-07-20T11:57:48Z</time>
      </trkpt>
      <trkpt lat="44.43329" lon="6.1236">
        <ele>1426.733887</ele>
        <time>2011-07-20T11:57:58Z</time>
      </trkpt>
      <trkpt lat="44.43327" lon="6.12383">
        <ele>1424.330566</ele>
        <time>2011-07-20T11:58:03Z</time>
      </trkpt>
      <trkpt lat="44.43308" lon="6.12386">
        <ele>1423.849854</ele>
        <time>2011-07-20T11:58:09Z</time>
      </trkpt>
      <trkpt lat="44.43302" lon="6.12379">
        <ele>1422.888672</ele>
        <time>2011-07-20T11:58:11Z</time>
      </trkpt>
      <trkpt lat="44.4329" lon="6.12393">
        <ele>1420.966064</ele>
        <time>2011-07-20T11:58:16Z</time>
      </trkpt>
      <trkpt lat="44.4327" lon="6.1244">
        <ele>1417.601074</ele>
        <time>2011-07-20T11:58:26Z</time>
      </trkpt>
      <trkpt lat="44.43269" lon="6.12441">
        <ele>1417.601074</ele>
        <time>2011-07-20T11:58:27Z</time>
      </trkpt>
      <trkpt lat="44.43276" lon="6.12436">
        <ele>1415.678711</ele>
        <time>2011-07-20T11:58:36Z</time>
      </trkpt>
      <trkpt lat="44.43276" lon="6.12436">
        <ele>1416.15918</ele>
        <time>2011-07-20T11:58:50Z</time>
      </trkpt>
      <trkpt lat="44.4331" lon="6.12406">
        <ele>1416.639893</ele>
        <time>2011-07-20T11:59:05Z</time>
      </trkpt>
      <trkpt lat="44.43335" lon="6.12401">
        <ele>1416.639893</ele>
        <time>2011-07-20T11:59:14Z</time>
      </trkpt>
      <trkpt lat="44.43342" lon="6.1239">
        <ele>1416.639893</ele>
        <time>2011-07-20T11:59:17Z</time>
      </trkpt>
      <trkpt lat="44.4333" lon="6.12374">
        <ele>1416.639893</ele>
        <time>2011-07-20T11:59:19Z</time>
      </trkpt>
      <trkpt lat="44.43359" lon="6.12385">
        <ele>1415.678711</ele>
        <time>2011-07-20T11:59:24Z</time>
      </trkpt>
      <trkpt lat="44.43366" lon="6.12391">
        <ele>1416.639893</ele>
        <time>2011-07-20T11:59:26Z</time>
      </trkpt>
      <trkpt lat="44.43382" lon="6.12397">
        <ele>1415.678711</ele>
        <time>2011-07-20T11:59:30Z</time>
      </trkpt>
      <trkpt lat="44.43407" lon="6.124">
        <ele>1414.717285</ele>
        <time>2011-07-20T11:59:36Z</time>
      </trkpt>
      <trkpt lat="44.4342" lon="6.12405">
        <ele>1413.275391</ele>
        <time>2011-07-20T11:59:39Z</time>
      </trkpt>
      <trkpt lat="44.4344" lon="6.12427">
        <ele>1411.833496</ele>
        <time>2011-07-20T11:59:44Z</time>
      </trkpt>
      <trkpt lat="44.43469" lon="6.12495">
        <ele>1412.794678</ele>
        <time>2011-07-20T11:59:59Z</time>
      </trkpt>
      <trkpt lat="44.43474" lon="6.12523">
        <ele>1414.236572</ele>
        <time>2011-07-20T12:00:06Z</time>
      </trkpt>
      <trkpt lat="44.43491" lon="6.12583">
        <ele>1415.197998</ele>
        <time>2011-07-20T12:00:23Z</time>
      </trkpt>
      <trkpt lat="44.43519" lon="6.12639">
        <ele>1413.755859</ele>
        <time>2011-07-20T12:00:35Z</time>
      </trkpt>
      <trkpt lat="44.43528" lon="6.12657">
        <ele>1412.313965</ele>
        <time>2011-07-20T12:00:38Z</time>
      </trkpt>
      <trkpt lat="44.43531" lon="6.12662">
        <ele>1412.313965</ele>
        <time>2011-07-20T12:00:39Z</time>
      </trkpt>
      <trkpt lat="44.43558" lon="6.12728">
        <ele>1408.46875</ele>
        <time>2011-07-20T12:00:52Z</time>
      </trkpt>
      <trkpt lat="44.4357" lon="6.12757">
        <ele>1407.026855</ele>
        <time>2011-07-20T12:00:58Z</time>
      </trkpt>
      <trkpt lat="44.43586" lon="6.12796">
        <ele>1403.662109</ele>
        <time>2011-07-20T12:01:06Z</time>
      </trkpt>
      <trkpt lat="44.43588" lon="6.12801">
        <ele>1403.662109</ele>
        <time>2011-07-20T12:01:07Z</time>
      </trkpt>
      <trkpt lat="44.43612" lon="6.1283">
        <ele>1400.297607</ele>
        <time>2011-07-20T12:01:15Z</time>
      </trkpt>
      <trkpt lat="44.43632" lon="6.12842">
        <ele>1398.374756</ele>
        <time>2011-07-20T12:01:20Z</time>
      </trkpt>
      <trkpt lat="44.43645" lon="6.12851">
        <ele>1396.452393</ele>
        <time>2011-07-20T12:01:23Z</time>
      </trkpt>
      <trkpt lat="44.4365" lon="6.12855">
        <ele>1395.490967</ele>
        <time>2011-07-20T12:01:24Z</time>
      </trkpt>
      <trkpt lat="44.43661" lon="6.12869">
        <ele>1393.568359</ele>
        <time>2011-07-20T12:01:27Z</time>
      </trkpt>
      <trkpt lat="44.43666" lon="6.12881">
        <ele>1391.645752</ele>
        <time>2011-07-20T12:01:29Z</time>
      </trkpt>
      <trkpt lat="44.43685" lon="6.12918">
        <ele>1388.761963</ele>
        <time>2011-07-20T12:01:36Z</time>
      </trkpt>
      <trkpt lat="44.43693" lon="6.12929">
        <ele>1387.31958</ele>
        <time>2011-07-20T12:01:39Z</time>
      </trkpt>
      <trkpt lat="44.43695" lon="6.12939">
        <ele>1386.838867</ele>
        <time>2011-07-20T12:01:41Z</time>
      </trkpt>
      <trkpt lat="44.43703" lon="6.12987">
        <ele>1382.513184</ele>
        <time>2011-07-20T12:01:50Z</time>
      </trkpt>
      <trkpt lat="44.43706" lon="6.12988">
        <ele>1382.513184</ele>
        <time>2011-07-20T12:01:51Z</time>
      </trkpt>
      <trkpt lat="44.43711" lon="6.12988">
        <ele>1382.513184</ele>
        <time>2011-07-20T12:01:52Z</time>
      </trkpt>
      <trkpt lat="44.43724" lon="6.12995">
        <ele>1381.551758</ele>
        <time>2011-07-20T12:01:55Z</time>
      </trkpt>
      <trkpt lat="44.43738" lon="6.13005">
        <ele>1379.148438</ele>
        <time>2011-07-20T12:01:59Z</time>
      </trkpt>
      <trkpt lat="44.4376" lon="6.13037">
        <ele>1376.745361</ele>
        <time>2011-07-20T12:02:05Z</time>
      </trkpt>
      <trkpt lat="44.43778" lon="6.13105">
        <ele>1375.783936</ele>
        <time>2011-07-20T12:02:15Z</time>
      </trkpt>
      <trkpt lat="44.43788" lon="6.13202">
        <ele>1374.342041</ele>
        <time>2011-07-20T12:02:26Z</time>
      </trkpt>
      <trkpt lat="44.43784" lon="6.13282">
        <ele>1374.822754</ele>
        <time>2011-07-20T12:02:39Z</time>
      </trkpt>
      <trkpt lat="44.43776" lon="6.13309">
        <ele>1375.783936</ele>
        <time>2011-07-20T12:02:45Z</time>
      </trkpt>
      <trkpt lat="44.43742" lon="6.13348">
        <ele>1374.822754</ele>
        <time>2011-07-20T12:02:58Z</time>
      </trkpt>
      <trkpt lat="44.43729" lon="6.13371">
        <ele>1373.380859</ele>
        <time>2011-07-20T12:03:03Z</time>
      </trkpt>
      <trkpt lat="44.43723" lon="6.13399">
        <ele>1371.457764</ele>
        <time>2011-07-20T12:03:08Z</time>
      </trkpt>
      <trkpt lat="44.43721" lon="6.13428">
        <ele>1370.496582</ele>
        <time>2011-07-20T12:03:12Z</time>
      </trkpt>
      <trkpt lat="44.43735" lon="6.13448">
        <ele>1370.496582</ele>
        <time>2011-07-20T12:03:16Z</time>
      </trkpt>
      <trkpt lat="44.43746" lon="6.1346">
        <ele>1369.5354</ele>
        <time>2011-07-20T12:03:19Z</time>
      </trkpt>
      <trkpt lat="44.43768" lon="6.13473">
        <ele>1370.496582</ele>
        <time>2011-07-20T12:03:24Z</time>
      </trkpt>
      <trkpt lat="44.43774" lon="6.13489">
        <ele>1370.015869</ele>
        <time>2011-07-20T12:03:28Z</time>
      </trkpt>
      <trkpt lat="44.43776" lon="6.13508">
        <ele>1368.573975</ele>
        <time>2011-07-20T12:03:31Z</time>
      </trkpt>
      <trkpt lat="44.438" lon="6.13526">
        <ele>1366.651367</ele>
        <time>2011-07-20T12:03:37Z</time>
      </trkpt>
      <trkpt lat="44.4381" lon="6.1353">
        <ele>1367.612549</ele>
        <time>2011-07-20T12:03:40Z</time>
      </trkpt>
      <trkpt lat="44.43816" lon="6.13543">
        <ele>1367.612549</ele>
        <time>2011-07-20T12:03:44Z</time>
      </trkpt>
      <trkpt lat="44.43821" lon="6.13578">
        <ele>1367.13208</ele>
        <time>2011-07-20T12:03:51Z</time>
      </trkpt>
      <trkpt lat="44.43813" lon="6.13614">
        <ele>1367.13208</ele>
        <time>2011-07-20T12:03:57Z</time>
      </trkpt>
      <trkpt lat="44.43794" lon="6.13654">
        <ele>1368.573975</ele>
        <time>2011-07-20T12:04:08Z</time>
      </trkpt>
      <trkpt lat="44.43792" lon="6.13657">
        <ele>1368.573975</ele>
        <time>2011-07-20T12:04:09Z</time>
      </trkpt>
      <trkpt lat="44.43787" lon="6.13664">
        <ele>1368.573975</ele>
        <time>2011-07-20T12:04:12Z</time>
      </trkpt>
      <trkpt lat="44.43774" lon="6.13667">
        <ele>1367.612549</ele>
        <time>2011-07-20T12:04:16Z</time>
      </trkpt>
      <trkpt lat="44.43756" lon="6.13661">
        <ele>1365.690186</ele>
        <time>2011-07-20T12:04:21Z</time>
      </trkpt>
      <trkpt lat="44.43737" lon="6.13662">
        <ele>1366.170654</ele>
        <time>2011-07-20T12:04:26Z</time>
      </trkpt>
      <trkpt lat="44.43729" lon="6.13663">
        <ele>1363.286865</ele>
        <time>2011-07-20T12:04:28Z</time>
      </trkpt>
      <trkpt lat="44.43715" lon="6.13665">
        <ele>1360.883545</ele>
        <time>2011-07-20T12:04:31Z</time>
      </trkpt>
      <trkpt lat="44.43698" lon="6.13673">
        <ele>1359.44165</ele>
        <time>2011-07-20T12:04:35Z</time>
      </trkpt>
      <trkpt lat="44.4368" lon="6.13688">
        <ele>1357.519043</ele>
        <time>2011-07-20T12:04:40Z</time>
      </trkpt>
      <trkpt lat="44.43678" lon="6.13692">
        <ele>1357.03833</ele>
        <time>2011-07-20T12:04:44Z</time>
      </trkpt>
      <trkpt lat="44.43678" lon="6.13692">
        <ele>1357.519043</ele>
        <time>2011-07-20T12:04:49Z</time>
      </trkpt>
      <trkpt lat="44.43677" lon="6.13692">
        <ele>1358.960938</ele>
        <time>2011-07-20T12:05:33Z</time>
      </trkpt>
      <trkpt lat="44.43677" lon="6.13691">
        <ele>1357.999756</ele>
        <time>2011-07-20T12:06:28Z</time>
      </trkpt>
      <trkpt lat="44.43677" lon="6.13691">
        <ele>1356.557617</ele>
        <time>2011-07-20T12:06:31Z</time>
      </trkpt>
      <trkpt lat="44.43677" lon="6.13691">
        <ele>1357.519043</ele>
        <time>2011-07-20T12:06:54Z</time>
      </trkpt>
      <trkpt lat="44.43677" lon="6.13692">
        <ele>1357.999756</ele>
        <time>2011-07-20T12:06:59Z</time>
      </trkpt>
      <trkpt lat="44.43682" lon="6.1371">
        <ele>1358.480225</ele>
        <time>2011-07-20T12:07:05Z</time>
      </trkpt>
      <trkpt lat="44.43685" lon="6.13746">
        <ele>1359.44165</ele>
        <time>2011-07-20T12:07:18Z</time>
      </trkpt>
      <trkpt lat="44.43685" lon="6.13747">
        <ele>1359.44165</ele>
        <time>2011-07-20T12:07:19Z</time>
      </trkpt>
      <trkpt lat="44.43681" lon="6.13793">
        <ele>1357.519043</ele>
        <time>2011-07-20T12:07:32Z</time>
      </trkpt>
      <trkpt lat="44.43684" lon="6.13863">
        <ele>1355.596191</ele>
        <time>2011-07-20T12:07:44Z</time>
      </trkpt>
      <trkpt lat="44.43691" lon="6.1388">
        <ele>1356.557617</ele>
        <time>2011-07-20T12:07:48Z</time>
      </trkpt>
      <trkpt lat="44.43699" lon="6.13887">
        <ele>1354.154297</ele>
        <time>2011-07-20T12:07:51Z</time>
      </trkpt>
      <trkpt lat="44.43702" lon="6.13889">
        <ele>1354.154297</ele>
        <time>2011-07-20T12:07:52Z</time>
      </trkpt>
      <trkpt lat="44.43719" lon="6.13897">
        <ele>1353.673584</ele>
        <time>2011-07-20T12:07:57Z</time>
      </trkpt>
      <trkpt lat="44.4373" lon="6.139">
        <ele>1352.231445</ele>
        <time>2011-07-20T12:07:59Z</time>
      </trkpt>
      <trkpt lat="44.43745" lon="6.13906">
        <ele>1350.789551</ele>
        <time>2011-07-20T12:08:02Z</time>
      </trkpt>
      <trkpt lat="44.43767" lon="6.1391">
        <ele>1349.828369</ele>
        <time>2011-07-20T12:08:07Z</time>
      </trkpt>
      <trkpt lat="44.4377" lon="6.13932">
        <ele>1348.866943</ele>
        <time>2011-07-20T12:08:11Z</time>
      </trkpt>
      <trkpt lat="44.4376" lon="6.13975">
        <ele>1346.463867</ele>
        <time>2011-07-20T12:08:22Z</time>
      </trkpt>
      <trkpt lat="44.43767" lon="6.13979">
        <ele>1345.021729</ele>
        <time>2011-07-20T12:08:26Z</time>
      </trkpt>
      <trkpt lat="44.43776" lon="6.13983">
        <ele>1343.099121</ele>
        <time>2011-07-20T12:08:29Z</time>
      </trkpt>
      <trkpt lat="44.43807" lon="6.13995">
        <ele>1340.215332</ele>
        <time>2011-07-20T12:08:36Z</time>
      </trkpt>
      <trkpt lat="44.43836" lon="6.13996">
        <ele>1337.331055</ele>
        <time>2011-07-20T12:08:43Z</time>
      </trkpt>
      <trkpt lat="44.43855" lon="6.14005">
        <ele>1334.447266</ele>
        <time>2011-07-20T12:08:50Z</time>
      </trkpt>
      <trkpt lat="44.43855" lon="6.14006">
        <ele>1333.966553</ele>
        <time>2011-07-20T12:09:05Z</time>
      </trkpt>
      <trkpt lat="44.43855" lon="6.14006">
        <ele>1333.966553</ele>
        <time>2011-07-20T12:09:07Z</time>
      </trkpt>
      <trkpt lat="44.43844" lon="6.14027">
        <ele>1332.043945</ele>
        <time>2011-07-20T12:09:13Z</time>
      </trkpt>
      <trkpt lat="44.4383" lon="6.14042">
        <ele>1331.563232</ele>
        <time>2011-07-20T12:09:17Z</time>
      </trkpt>
      <trkpt lat="44.43815" lon="6.14053">
        <ele>1329.640625</ele>
        <time>2011-07-20T12:09:20Z</time>
      </trkpt>
      <trkpt lat="44.43783" lon="6.14078">
        <ele>1326.756836</ele>
        <time>2011-07-20T12:09:29Z</time>
      </trkpt>
      <trkpt lat="44.43781" lon="6.14094">
        <ele>1325.79541</ele>
        <time>2011-07-20T12:09:32Z</time>
      </trkpt>
      <trkpt lat="44.43778" lon="6.14107">
        <ele>1324.834229</ele>
        <time>2011-07-20T12:09:34Z</time>
      </trkpt>
      <trkpt lat="44.43774" lon="6.14124">
        <ele>1323.39209</ele>
        <time>2011-07-20T12:09:36Z</time>
      </trkpt>
      <trkpt lat="44.43767" lon="6.14149">
        <ele>1320.98877</ele>
        <time>2011-07-20T12:09:40Z</time>
      </trkpt>
      <trkpt lat="44.43749" lon="6.14201">
        <ele>1317.143555</ele>
        <time>2011-07-20T12:09:49Z</time>
      </trkpt>
      <trkpt lat="44.43746" lon="6.14265">
        <ele>1314.259521</ele>
        <time>2011-07-20T12:09:58Z</time>
      </trkpt>
      <trkpt lat="44.43742" lon="6.14302">
        <ele>1313.29834</ele>
        <time>2011-07-20T12:10:05Z</time>
      </trkpt>
      <trkpt lat="44.43767" lon="6.14331">
        <ele>1311.856445</ele>
        <time>2011-07-20T12:10:19Z</time>
      </trkpt>
      <trkpt lat="44.43808" lon="6.14351">
        <ele>1311.375732</ele>
        <time>2011-07-20T12:10:34Z</time>
      </trkpt>
      <trkpt lat="44.43811" lon="6.14359">
        <ele>1311.375732</ele>
        <time>2011-07-20T12:10:35Z</time>
      </trkpt>
      <trkpt lat="44.43807" lon="6.14373">
        <ele>1310.89502</ele>
        <time>2011-07-20T12:10:39Z</time>
      </trkpt>
      <trkpt lat="44.43801" lon="6.14401">
        <ele>1308.491699</ele>
        <time>2011-07-20T12:10:45Z</time>
      </trkpt>
      <trkpt lat="44.43799" lon="6.14407">
        <ele>1309.453125</ele>
        <time>2011-07-20T12:10:47Z</time>
      </trkpt>
      <trkpt lat="44.43792" lon="6.1442">
        <ele>1309.453125</ele>
        <time>2011-07-20T12:10:52Z</time>
      </trkpt>
      <trkpt lat="44.4379" lon="6.14482">
        <ele>1307.530273</ele>
        <time>2011-07-20T12:11:07Z</time>
      </trkpt>
      <trkpt lat="44.43794" lon="6.14486">
        <ele>1308.491699</ele>
        <time>2011-07-20T12:11:09Z</time>
      </trkpt>
      <trkpt lat="44.43798" lon="6.14483">
        <ele>1308.491699</ele>
        <time>2011-07-20T12:11:23Z</time>
      </trkpt>
      <trkpt lat="44.43798" lon="6.14483">
        <ele>1308.491699</ele>
        <time>2011-07-20T12:11:55Z</time>
      </trkpt>
      <trkpt lat="44.43798" lon="6.14483">
        <ele>1308.01123</ele>
        <time>2011-07-20T12:12:00Z</time>
      </trkpt>
      <trkpt lat="44.4378" lon="6.14475">
        <ele>1306.088135</ele>
        <time>2011-07-20T12:12:09Z</time>
      </trkpt>
      <trkpt lat="44.43778" lon="6.14475">
        <ele>1306.088135</ele>
        <time>2011-07-20T12:12:10Z</time>
      </trkpt>
      <trkpt lat="44.43778" lon="6.14475">
        <ele>1303.685059</ele>
        <time>2011-07-20T12:12:29Z</time>
      </trkpt>
      <trkpt lat="44.43778" lon="6.14475">
        <ele>1302.24292</ele>
        <time>2011-07-20T12:12:38Z</time>
      </trkpt>
      <trkpt lat="44.43754" lon="6.14486">
        <ele>1300.801025</ele>
        <time>2011-07-20T12:12:43Z</time>
      </trkpt>
      <trkpt lat="44.43749" lon="6.14489">
        <ele>1299.359131</ele>
        <time>2011-07-20T12:12:46Z</time>
      </trkpt>
      <trkpt lat="44.43741" lon="6.14493">
        <ele>1298.397705</ele>
        <time>2011-07-20T12:12:50Z</time>
      </trkpt>
      <trkpt lat="44.4374" lon="6.14494">
        <ele>1296.955811</ele>
        <time>2011-07-20T12:12:52Z</time>
      </trkpt>
      <trkpt lat="44.4374" lon="6.14494">
        <ele>1296.955811</ele>
        <time>2011-07-20T12:12:53Z</time>
      </trkpt>
      <trkpt lat="44.43725" lon="6.14508">
        <ele>1295.033203</ele>
        <time>2011-07-20T12:13:00Z</time>
      </trkpt>
      <trkpt lat="44.43715" lon="6.14523">
        <ele>1293.591309</ele>
        <time>2011-07-20T12:13:07Z</time>
      </trkpt>
      <trkpt lat="44.43709" lon="6.14535">
        <ele>1290.707031</ele>
        <time>2011-07-20T12:13:14Z</time>
      </trkpt>
      <trkpt lat="44.43708" lon="6.14544">
        <ele>1288.303955</ele>
        <time>2011-07-20T12:13:20Z</time>
      </trkpt>
      <trkpt lat="44.43692" lon="6.14583">
        <ele>1285.900635</ele>
        <time>2011-07-20T12:13:33Z</time>
      </trkpt>
      <trkpt lat="44.4369" lon="6.14585">
        <ele>1284.939453</ele>
        <time>2011-07-20T12:13:36Z</time>
      </trkpt>
      <trkpt lat="44.43684" lon="6.14592">
        <ele>1283.978027</ele>
        <time>2011-07-20T12:13:49Z</time>
      </trkpt>
      <trkpt lat="44.43684" lon="6.14592">
        <ele>1281.574707</ele>
        <time>2011-07-20T12:14:08Z</time>
      </trkpt>
      <trkpt lat="44.43663" lon="6.1461">
        <ele>1280.132813</ele>
        <time>2011-07-20T12:14:13Z</time>
      </trkpt>
      <trkpt lat="44.43641" lon="6.1464">
        <ele>1279.6521</ele>
        <time>2011-07-20T12:14:27Z</time>
      </trkpt>
      <trkpt lat="44.43641" lon="6.1464">
        <ele>1280.132813</ele>
        <time>2011-07-20T12:14:42Z</time>
      </trkpt>
      <trkpt lat="44.43632" lon="6.14656">
        <ele>1278.690918</ele>
        <time>2011-07-20T12:14:53Z</time>
      </trkpt>
      <trkpt lat="44.43631" lon="6.14659">
        <ele>1277.249023</ele>
        <time>2011-07-20T12:14:57Z</time>
      </trkpt>
      <trkpt lat="44.43631" lon="6.14659">
        <ele>1275.806641</ele>
        <time>2011-07-20T12:15:14Z</time>
      </trkpt>
      <trkpt lat="44.43631" lon="6.14659">
        <ele>1272.922852</ele>
        <time>2011-07-20T12:15:32Z</time>
      </trkpt>
      <trkpt lat="44.43631" lon="6.14659">
        <ele>1269.55835</ele>
        <time>2011-07-20T12:15:50Z</time>
      </trkpt>
      <trkpt lat="44.43631" lon="6.14659">
        <ele>1268.116211</ele>
        <time>2011-07-20T12:16:06Z</time>
      </trkpt>
      <trkpt lat="44.43616" lon="6.1471">
        <ele>1266.674316</ele>
        <time>2011-07-20T12:17:19Z</time>
      </trkpt>
      <trkpt lat="44.43612" lon="6.14727">
        <ele>1265.713135</ele>
        <time>2011-07-20T12:17:24Z</time>
      </trkpt>
      <trkpt lat="44.43606" lon="6.14751">
        <ele>1264.751709</ele>
        <time>2011-07-20T12:17:34Z</time>
      </trkpt>
      <trkpt lat="44.43601" lon="6.14765">
        <ele>1261.86792</ele>
        <time>2011-07-20T12:17:44Z</time>
      </trkpt>
      <trkpt lat="44.43591" lon="6.14781">
        <ele>1258.50293</ele>
        <time>2011-07-20T12:17:53Z</time>
      </trkpt>
      <trkpt lat="44.4359" lon="6.14783">
        <ele>1258.50293</ele>
        <time>2011-07-20T12:17:54Z</time>
      </trkpt>
      <trkpt lat="44.43585" lon="6.14791">
        <ele>1257.061035</ele>
        <time>2011-07-20T12:17:58Z</time>
      </trkpt>
      <trkpt lat="44.43579" lon="6.148">
        <ele>1254.657715</ele>
        <time>2011-07-20T12:18:07Z</time>
      </trkpt>
      <trkpt lat="44.43579" lon="6.148">
        <ele>1254.177246</ele>
        <time>2011-07-20T12:18:10Z</time>
      </trkpt>
      <trkpt lat="44.4357" lon="6.14811">
        <ele>1253.21582</ele>
        <time>2011-07-20T12:18:15Z</time>
      </trkpt>
      <trkpt lat="44.43565" lon="6.14817">
        <ele>1251.293213</ele>
        <time>2011-07-20T12:18:23Z</time>
      </trkpt>
      <trkpt lat="44.43553" lon="6.14833">
        <ele>1248.889893</ele>
        <time>2011-07-20T12:18:35Z</time>
      </trkpt>
      <trkpt lat="44.43553" lon="6.14833">
        <ele>1247.928711</ele>
        <time>2011-07-20T12:18:49Z</time>
      </trkpt>
      <trkpt lat="44.43548" lon="6.14849">
        <ele>1245.525391</ele>
        <time>2011-07-20T12:18:59Z</time>
      </trkpt>
      <trkpt lat="44.43546" lon="6.14853">
        <ele>1245.044678</ele>
        <time>2011-07-20T12:19:01Z</time>
      </trkpt>
      <trkpt lat="44.43542" lon="6.14871">
        <ele>1243.602539</ele>
        <time>2011-07-20T12:19:10Z</time>
      </trkpt>
      <trkpt lat="44.43532" lon="6.14912">
        <ele>1243.121826</ele>
        <time>2011-07-20T12:19:21Z</time>
      </trkpt>
      <trkpt lat="44.43526" lon="6.14932">
        <ele>1240.718506</ele>
        <time>2011-07-20T12:19:28Z</time>
      </trkpt>
      <trkpt lat="44.43517" lon="6.14966">
        <ele>1241.199219</ele>
        <time>2011-07-20T12:19:40Z</time>
      </trkpt>
      <trkpt lat="44.43505" lon="6.14994">
        <ele>1242.641357</ele>
        <time>2011-07-20T12:19:52Z</time>
      </trkpt>
      <trkpt lat="44.43503" lon="6.14998">
        <ele>1242.160645</ele>
        <time>2011-07-20T12:19:53Z</time>
      </trkpt>
      <trkpt lat="44.43498" lon="6.15008">
        <ele>1241.679932</ele>
        <time>2011-07-20T12:19:58Z</time>
      </trkpt>
      <trkpt lat="44.43494" lon="6.15017">
        <ele>1241.199219</ele>
        <time>2011-07-20T12:20:02Z</time>
      </trkpt>
      <trkpt lat="44.43491" lon="6.15023">
        <ele>1242.641357</ele>
        <time>2011-07-20T12:20:04Z</time>
      </trkpt>
      <trkpt lat="44.43473" lon="6.15043">
        <ele>1243.121826</ele>
        <time>2011-07-20T12:20:20Z</time>
      </trkpt>
      <trkpt lat="44.43446" lon="6.15068">
        <ele>1244.563965</ele>
        <time>2011-07-20T12:20:38Z</time>
      </trkpt>
      <trkpt lat="44.43438" lon="6.15079">
        <ele>1245.044678</ele>
        <time>2011-07-20T12:20:41Z</time>
      </trkpt>
      <trkpt lat="44.43436" lon="6.15083">
        <ele>1244.083496</ele>
        <time>2011-07-20T12:20:45Z</time>
      </trkpt>
      <trkpt lat="44.43426" lon="6.15098">
        <ele>1244.563965</ele>
        <time>2011-07-20T12:20:52Z</time>
      </trkpt>
      <trkpt lat="44.43412" lon="6.15108">
        <ele>1242.160645</ele>
        <time>2011-07-20T12:21:03Z</time>
      </trkpt>
      <trkpt lat="44.43404" lon="6.15114">
        <ele>1239.757324</ele>
        <time>2011-07-20T12:21:11Z</time>
      </trkpt>
      <trkpt lat="44.43388" lon="6.15126">
        <ele>1236.873291</ele>
        <time>2011-07-20T12:21:26Z</time>
      </trkpt>
      <trkpt lat="44.43375" lon="6.15138">
        <ele>1234.950928</ele>
        <time>2011-07-20T12:21:38Z</time>
      </trkpt>
      <trkpt lat="44.43363" lon="6.15148">
        <ele>1231.586182</ele>
        <time>2011-07-20T12:21:47Z</time>
      </trkpt>
      <trkpt lat="44.43344" lon="6.15169">
        <ele>1228.22168</ele>
        <time>2011-07-20T12:22:00Z</time>
      </trkpt>
      <trkpt lat="44.43338" lon="6.15176">
        <ele>1227.260254</ele>
        <time>2011-07-20T12:22:14Z</time>
      </trkpt>
      <trkpt lat="44.43322" lon="6.15197">
        <ele>1224.856934</ele>
        <time>2011-07-20T12:22:33Z</time>
      </trkpt>
      <trkpt lat="44.43308" lon="6.15214">
        <ele>1222.934326</ele>
        <time>2011-07-20T12:22:39Z</time>
      </trkpt>
      <trkpt lat="44.43299" lon="6.15223">
        <ele>1221.492188</ele>
        <time>2011-07-20T12:22:43Z</time>
      </trkpt>
      <trkpt lat="44.43283" lon="6.15238">
        <ele>1220.531006</ele>
        <time>2011-07-20T12:22:52Z</time>
      </trkpt>
      <trkpt lat="44.43275" lon="6.15247">
        <ele>1221.492188</ele>
        <time>2011-07-20T12:23:11Z</time>
      </trkpt>
      <trkpt lat="44.4325" lon="6.15267">
        <ele>1220.531006</ele>
        <time>2011-07-20T12:23:23Z</time>
      </trkpt>
      <trkpt lat="44.43237" lon="6.15278">
        <ele>1217.646973</ele>
        <time>2011-07-20T12:23:30Z</time>
      </trkpt>
      <trkpt lat="44.4322" lon="6.1529">
        <ele>1215.243896</ele>
        <time>2011-07-20T12:23:41Z</time>
      </trkpt>
      <trkpt lat="44.4322" lon="6.1529">
        <ele>1214.282471</ele>
        <time>2011-07-20T12:23:50Z</time>
      </trkpt>
      <trkpt lat="44.43208" lon="6.15298">
        <ele>1212.840576</ele>
        <time>2011-07-20T12:23:54Z</time>
      </trkpt>
      <trkpt lat="44.43208" lon="6.15298">
        <ele>1210.917725</ele>
        <time>2011-07-20T12:24:07Z</time>
      </trkpt>
      <trkpt lat="44.43186" lon="6.15308">
        <ele>1208.995117</ele>
        <time>2011-07-20T12:24:20Z</time>
      </trkpt>
      <trkpt lat="44.43174" lon="6.15313">
        <ele>1204.669189</ele>
        <time>2011-07-20T12:24:29Z</time>
      </trkpt>
      <trkpt lat="44.43172" lon="6.15314">
        <ele>1204.669189</ele>
        <time>2011-07-20T12:24:30Z</time>
      </trkpt>
      <trkpt lat="44.43162" lon="6.15318">
        <ele>1200.823975</ele>
        <time>2011-07-20T12:24:38Z</time>
      </trkpt>
      <trkpt lat="44.43153" lon="6.15322">
        <ele>1198.420654</ele>
        <time>2011-07-20T12:24:44Z</time>
      </trkpt>
      <trkpt lat="44.43149" lon="6.15325">
        <ele>1196.97876</ele>
        <time>2011-07-20T12:24:46Z</time>
      </trkpt>
      <trkpt lat="44.43139" lon="6.15331">
        <ele>1195.055908</ele>
        <time>2011-07-20T12:24:51Z</time>
      </trkpt>
      <trkpt lat="44.43129" lon="6.15342">
        <ele>1191.691406</ele>
        <time>2011-07-20T12:24:57Z</time>
      </trkpt>
      <trkpt lat="44.43115" lon="6.15357">
        <ele>1188.326904</ele>
        <time>2011-07-20T12:25:05Z</time>
      </trkpt>
      <trkpt lat="44.43108" lon="6.15368">
        <ele>1185.923584</ele>
        <time>2011-07-20T12:25:17Z</time>
      </trkpt>
      <trkpt lat="44.43108" lon="6.15368">
        <ele>1186.884766</ele>
        <time>2011-07-20T12:25:30Z</time>
      </trkpt>
      <trkpt lat="44.43108" lon="6.15368">
        <ele>1188.807617</ele>
        <time>2011-07-20T12:25:48Z</time>
      </trkpt>
      <trkpt lat="44.43108" lon="6.15368">
        <ele>1188.807617</ele>
        <time>2011-07-20T12:26:05Z</time>
      </trkpt>
      <trkpt lat="44.43108" lon="6.15368">
        <ele>1185.442871</ele>
        <time>2011-07-20T12:26:34Z</time>
      </trkpt>
      <trkpt lat="44.43108" lon="6.15368">
        <ele>1184.000977</ele>
        <time>2011-07-20T12:26:51Z</time>
      </trkpt>
      <trkpt lat="44.43107" lon="6.1537">
        <ele>1182.559082</ele>
        <time>2011-07-20T12:26:56Z</time>
      </trkpt>
      <trkpt lat="44.43096" lon="6.15389">
        <ele>1178.713623</ele>
        <time>2011-07-20T12:27:08Z</time>
      </trkpt>
      <trkpt lat="44.43086" lon="6.15405">
        <ele>1175.348877</ele>
        <time>2011-07-20T12:27:18Z</time>
      </trkpt>
      <trkpt lat="44.43083" lon="6.1541">
        <ele>1174.868408</ele>
        <time>2011-07-20T12:27:22Z</time>
      </trkpt>
      <trkpt lat="44.43076" lon="6.15424">
        <ele>1171.984375</ele>
        <time>2011-07-20T12:27:31Z</time>
      </trkpt>
      <trkpt lat="44.43075" lon="6.15426">
        <ele>1171.503662</ele>
        <time>2011-07-20T12:27:32Z</time>
      </trkpt>
      <trkpt lat="44.43069" lon="6.15437">
        <ele>1170.54248</ele>
        <time>2011-07-20T12:27:35Z</time>
      </trkpt>
      <trkpt lat="44.43065" lon="6.15445">
        <ele>1169.100586</ele>
        <time>2011-07-20T12:27:37Z</time>
      </trkpt>
      <trkpt lat="44.4306" lon="6.15457">
        <ele>1166.697266</ele>
        <time>2011-07-20T12:27:40Z</time>
      </trkpt>
      <trkpt lat="44.43042" lon="6.15495">
        <ele>1163.33252</ele>
        <time>2011-07-20T12:27:48Z</time>
      </trkpt>
      <trkpt lat="44.43039" lon="6.155">
        <ele>1163.33252</ele>
        <time>2011-07-20T12:27:49Z</time>
      </trkpt>
      <trkpt lat="44.43035" lon="6.1551">
        <ele>1162.851807</ele>
        <time>2011-07-20T12:27:51Z</time>
      </trkpt>
      <trkpt lat="44.43025" lon="6.15531">
        <ele>1161.890625</ele>
        <time>2011-07-20T12:27:55Z</time>
      </trkpt>
      <trkpt lat="44.43022" lon="6.15538">
        <ele>1162.371094</ele>
        <time>2011-07-20T12:27:57Z</time>
      </trkpt>
      <trkpt lat="44.43018" lon="6.15543">
        <ele>1162.371094</ele>
        <time>2011-07-20T12:27:59Z</time>
      </trkpt>
      <trkpt lat="44.4301" lon="6.15554">
        <ele>1162.371094</ele>
        <time>2011-07-20T12:28:05Z</time>
      </trkpt>
      <trkpt lat="44.43" lon="6.15566">
        <ele>1160.929199</ele>
        <time>2011-07-20T12:28:10Z</time>
      </trkpt>
      <trkpt lat="44.42997" lon="6.15571">
        <ele>1160.448486</ele>
        <time>2011-07-20T12:28:12Z</time>
      </trkpt>
      <trkpt lat="44.42989" lon="6.15581">
        <ele>1158.525879</ele>
        <time>2011-07-20T12:28:18Z</time>
      </trkpt>
      <trkpt lat="44.42975" lon="6.1561">
        <ele>1154.680664</ele>
        <time>2011-07-20T12:28:30Z</time>
      </trkpt>
      <trkpt lat="44.42973" lon="6.15618">
        <ele>1154.200195</ele>
        <time>2011-07-20T12:28:35Z</time>
      </trkpt>
      <trkpt lat="44.4297" lon="6.15647">
        <ele>1151.796875</ele>
        <time>2011-07-20T12:28:40Z</time>
      </trkpt>
      <trkpt lat="44.42968" lon="6.15651">
        <ele>1149.874268</ele>
        <time>2011-07-20T12:28:49Z</time>
      </trkpt>
      <trkpt lat="44.42957" lon="6.15687">
        <ele>1146.509521</ele>
        <time>2011-07-20T12:29:00Z</time>
      </trkpt>
      <trkpt lat="44.42943" lon="6.15721">
        <ele>1144.58667</ele>
        <time>2011-07-20T12:29:13Z</time>
      </trkpt>
      <trkpt lat="44.42937" lon="6.15736">
        <ele>1143.144775</ele>
        <time>2011-07-20T12:29:19Z</time>
      </trkpt>
      <trkpt lat="44.42935" lon="6.15742">
        <ele>1140.741455</ele>
        <time>2011-07-20T12:29:26Z</time>
      </trkpt>
      <trkpt lat="44.42931" lon="6.15749">
        <ele>1140.260986</ele>
        <time>2011-07-20T12:29:29Z</time>
      </trkpt>
      <trkpt lat="44.4293" lon="6.15752">
        <ele>1139.299561</ele>
        <time>2011-07-20T12:29:31Z</time>
      </trkpt>
      <trkpt lat="44.42928" lon="6.15757">
        <ele>1139.299561</ele>
        <time>2011-07-20T12:29:33Z</time>
      </trkpt>
      <trkpt lat="44.42916" lon="6.15787">
        <ele>1138.819092</ele>
        <time>2011-07-20T12:29:39Z</time>
      </trkpt>
      <trkpt lat="44.42915" lon="6.1579">
        <ele>1137.376953</ele>
        <time>2011-07-20T12:29:44Z</time>
      </trkpt>
      <trkpt lat="44.4292" lon="6.15813">
        <ele>1135.935059</ele>
        <time>2011-07-20T12:29:49Z</time>
      </trkpt>
      <trkpt lat="44.42919" lon="6.15824">
        <ele>1134.493164</ele>
        <time>2011-07-20T12:29:54Z</time>
      </trkpt>
      <trkpt lat="44.42919" lon="6.15825">
        <ele>1138.338379</ele>
        <time>2011-07-20T12:29:55Z</time>
      </trkpt>
      <trkpt lat="44.42919" lon="6.15825">
        <ele>1138.338379</ele>
        <time>2011-07-20T12:29:56Z</time>
      </trkpt>
      <trkpt lat="44.42918" lon="6.15827">
        <ele>1136.89624</ele>
        <time>2011-07-20T12:29:58Z</time>
      </trkpt>
      <trkpt lat="44.42914" lon="6.15847">
        <ele>1139.780273</ele>
        <time>2011-07-20T12:30:18Z</time>
      </trkpt>
      <trkpt lat="44.42905" lon="6.15867">
        <ele>1139.780273</ele>
        <time>2011-07-20T12:30:30Z</time>
      </trkpt>
      <trkpt lat="44.429" lon="6.15868">
        <ele>1140.741455</ele>
        <time>2011-07-20T12:30:33Z</time>
      </trkpt>
      <trkpt lat="44.42896" lon="6.15871">
        <ele>1138.819092</ele>
        <time>2011-07-20T12:30:35Z</time>
      </trkpt>
      <trkpt lat="44.4289" lon="6.15873">
        <ele>1138.338379</ele>
        <time>2011-07-20T12:30:38Z</time>
      </trkpt>
      <trkpt lat="44.42884" lon="6.15873">
        <ele>1137.857666</ele>
        <time>2011-07-20T12:30:41Z</time>
      </trkpt>
      <trkpt lat="44.42877" lon="6.15877">
        <ele>1137.857666</ele>
        <time>2011-07-20T12:30:44Z</time>
      </trkpt>
      <trkpt lat="44.42871" lon="6.15877">
        <ele>1136.415771</ele>
        <time>2011-07-20T12:30:47Z</time>
      </trkpt>
      <trkpt lat="44.42868" lon="6.15875">
        <ele>1136.415771</ele>
        <time>2011-07-20T12:30:49Z</time>
      </trkpt>
      <trkpt lat="44.42849" lon="6.15879">
        <ele>1134.973877</ele>
        <time>2011-07-20T12:30:56Z</time>
      </trkpt>
      <trkpt lat="44.42837" lon="6.15876">
        <ele>1133.531738</ele>
        <time>2011-07-20T12:31:03Z</time>
      </trkpt>
      <trkpt lat="44.42831" lon="6.15876">
        <ele>1131.128418</ele>
        <time>2011-07-20T12:31:06Z</time>
      </trkpt>
      <trkpt lat="44.42824" lon="6.15868">
        <ele>1131.608887</ele>
        <time>2011-07-20T12:31:15Z</time>
      </trkpt>
      <trkpt lat="44.42825" lon="6.15865">
        <ele>1130.166992</ele>
        <time>2011-07-20T12:31:52Z</time>
      </trkpt>
      <trkpt lat="44.42827" lon="6.15863">
        <ele>1128.244385</ele>
        <time>2011-07-20T12:31:57Z</time>
      </trkpt>
      <trkpt lat="44.42827" lon="6.15849">
        <ele>1128.244385</ele>
        <time>2011-07-20T12:32:22Z</time>
      </trkpt>
      <trkpt lat="44.42831" lon="6.15838">
        <ele>1126.80249</ele>
        <time>2011-07-20T12:33:04Z</time>
      </trkpt>
      <trkpt lat="44.42834" lon="6.15833">
        <ele>1124.879883</ele>
        <time>2011-07-20T12:33:10Z</time>
      </trkpt>
      <trkpt lat="44.42834" lon="6.15829">
        <ele>1122.957275</ele>
        <time>2011-07-20T12:33:12Z</time>
      </trkpt>
      <trkpt lat="44.42835" lon="6.15818">
        <ele>1121.515137</ele>
        <time>2011-07-20T12:33:16Z</time>
      </trkpt>
      <trkpt lat="44.42834" lon="6.15801">
        <ele>1118.631348</ele>
        <time>2011-07-20T12:33:23Z</time>
      </trkpt>
      <trkpt lat="44.4283" lon="6.15782">
        <ele>1115.747314</ele>
        <time>2011-07-20T12:33:31Z</time>
      </trkpt>
      <trkpt lat="44.42828" lon="6.15763">
        <ele>1112.382568</ele>
        <time>2011-07-20T12:33:40Z</time>
      </trkpt>
      <trkpt lat="44.42828" lon="6.15751">
        <ele>1110.940674</ele>
        <time>2011-07-20T12:33:45Z</time>
      </trkpt>
      <trkpt lat="44.42831" lon="6.15744">
        <ele>1108.537354</ele>
        <time>2011-07-20T12:33:50Z</time>
      </trkpt>
      <trkpt lat="44.42833" lon="6.15734">
        <ele>1106.614746</ele>
        <time>2011-07-20T12:33:52Z</time>
      </trkpt>
      <trkpt lat="44.42826" lon="6.15708">
        <ele>1106.614746</ele>
        <time>2011-07-20T12:34:04Z</time>
      </trkpt>
      <trkpt lat="44.42823" lon="6.15706">
        <ele>1104.21167</ele>
        <time>2011-07-20T12:34:32Z</time>
      </trkpt>
      <trkpt lat="44.42818" lon="6.15692">
        <ele>1101.327637</ele>
        <time>2011-07-20T12:34:44Z</time>
      </trkpt>
      <trkpt lat="44.42816" lon="6.15678">
        <ele>1098.443359</ele>
        <time>2011-07-20T12:35:01Z</time>
      </trkpt>
      <trkpt lat="44.42816" lon="6.15667">
        <ele>1096.040283</ele>
        <time>2011-07-20T12:35:14Z</time>
      </trkpt>
      <trkpt lat="44.42814" lon="6.15652">
        <ele>1092.675781</ele>
        <time>2011-07-20T12:35:31Z</time>
      </trkpt>
      <trkpt lat="44.4281" lon="6.15655">
        <ele>1092.195068</ele>
        <time>2011-07-20T12:35:40Z</time>
      </trkpt>
      <trkpt lat="44.428" lon="6.15654">
        <ele>1089.311035</ele>
        <time>2011-07-20T12:35:53Z</time>
      </trkpt>
      <trkpt lat="44.42792" lon="6.15653">
        <ele>1088.349854</ele>
        <time>2011-07-20T12:36:10Z</time>
      </trkpt>
      <trkpt lat="44.42791" lon="6.15644">
        <ele>1085.46582</ele>
        <time>2011-07-20T12:36:26Z</time>
      </trkpt>
      <trkpt lat="44.42791" lon="6.15643">
        <ele>1085.46582</ele>
        <time>2011-07-20T12:36:27Z</time>
      </trkpt>
      <trkpt lat="44.42785" lon="6.15639">
        <ele>1082.101074</ele>
        <time>2011-07-20T12:36:45Z</time>
      </trkpt>
      <trkpt lat="44.42784" lon="6.1564">
        <ele>1082.101074</ele>
        <time>2011-07-20T12:36:46Z</time>
      </trkpt>
      <trkpt lat="44.42783" lon="6.15645">
        <ele>1081.620361</ele>
        <time>2011-07-20T12:36:48Z</time>
      </trkpt>
      <trkpt lat="44.42779" lon="6.15653">
        <ele>1080.178467</ele>
        <time>2011-07-20T12:36:59Z</time>
      </trkpt>
      <trkpt lat="44.42776" lon="6.15648">
        <ele>1077.775146</ele>
        <time>2011-07-20T12:37:05Z</time>
      </trkpt>
      <trkpt lat="44.42766" lon="6.15635">
        <ele>1074.891357</ele>
        <time>2011-07-20T12:37:11Z</time>
      </trkpt>
      <trkpt lat="44.42759" lon="6.15624">
        <ele>1072.96875</ele>
        <time>2011-07-20T12:37:14Z</time>
      </trkpt>
      <trkpt lat="44.42743" lon="6.15609">
        <ele>1069.123535</ele>
        <time>2011-07-20T12:37:20Z</time>
      </trkpt>
      <trkpt lat="44.42739" lon="6.15607">
        <ele>1069.123535</ele>
        <time>2011-07-20T12:37:21Z</time>
      </trkpt>
      <trkpt lat="44.42735" lon="6.15596">
        <ele>1067.681152</ele>
        <time>2011-07-20T12:37:23Z</time>
      </trkpt>
      <trkpt lat="44.42729" lon="6.15589">
        <ele>1066.239258</ele>
        <time>2011-07-20T12:37:25Z</time>
      </trkpt>
      <trkpt lat="44.42699" lon="6.15551">
        <ele>1063.835938</ele>
        <time>2011-07-20T12:37:34Z</time>
      </trkpt>
      <trkpt lat="44.42684" lon="6.15533">
        <ele>1061.913574</ele>
        <time>2011-07-20T12:37:39Z</time>
      </trkpt>
      <trkpt lat="44.42668" lon="6.15516">
        <ele>1059.510254</ele>
        <time>2011-07-20T12:37:44Z</time>
      </trkpt>
      <trkpt lat="44.42655" lon="6.15506">
        <ele>1057.587646</ele>
        <time>2011-07-20T12:37:49Z</time>
      </trkpt>
      <trkpt lat="44.42634" lon="6.15492">
        <ele>1053.742432</ele>
        <time>2011-07-20T12:37:56Z</time>
      </trkpt>
      <trkpt lat="44.42628" lon="6.15488">
        <ele>1052.781006</ele>
        <time>2011-07-20T12:37:58Z</time>
      </trkpt>
      <trkpt lat="44.42613" lon="6.15479">
        <ele>1049.896973</ele>
        <time>2011-07-20T12:38:03Z</time>
      </trkpt>
      <trkpt lat="44.42605" lon="6.15466">
        <ele>1048.935547</ele>
        <time>2011-07-20T12:38:05Z</time>
      </trkpt>
      <trkpt lat="44.42581" lon="6.15422">
        <ele>1046.051758</ele>
        <time>2011-07-20T12:38:19Z</time>
      </trkpt>
      <trkpt lat="44.42567" lon="6.15397">
        <ele>1042.687256</ele>
        <time>2011-07-20T12:38:27Z</time>
      </trkpt>
      <trkpt lat="44.42551" lon="6.15366">
        <ele>1040.283936</ele>
        <time>2011-07-20T12:38:39Z</time>
      </trkpt>
      <trkpt lat="44.42545" lon="6.15353">
        <ele>1038.361328</ele>
        <time>2011-07-20T12:38:42Z</time>
      </trkpt>
      <trkpt lat="44.42529" lon="6.15313">
        <ele>1034.515869</ele>
        <time>2011-07-20T12:38:52Z</time>
      </trkpt>
      <trkpt lat="44.42527" lon="6.15309">
        <ele>1034.515869</ele>
        <time>2011-07-20T12:38:53Z</time>
      </trkpt>
      <trkpt lat="44.42524" lon="6.15301">
        <ele>1033.07373</ele>
        <time>2011-07-20T12:38:56Z</time>
      </trkpt>
      <trkpt lat="44.42523" lon="6.15296">
        <ele>1032.593262</ele>
        <time>2011-07-20T12:38:58Z</time>
      </trkpt>
      <trkpt lat="44.42522" lon="6.15292">
        <ele>1031.151367</ele>
        <time>2011-07-20T12:39:00Z</time>
      </trkpt>
      <trkpt lat="44.42518" lon="6.15284">
        <ele>1029.709229</ele>
        <time>2011-07-20T12:39:02Z</time>
      </trkpt>
      <trkpt lat="44.42512" lon="6.15272">
        <ele>1030.189941</ele>
        <time>2011-07-20T12:39:05Z</time>
      </trkpt>
      <trkpt lat="44.42476" lon="6.15365">
        <ele>1030.189941</ele>
        <time>2011-07-20T12:39:08Z</time>
      </trkpt>
      <trkpt lat="44.42503" lon="6.15257">
        <ele>1027.786621</ele>
        <time>2011-07-20T12:39:10Z</time>
      </trkpt>
      <trkpt lat="44.42499" lon="6.15251">
        <ele>1029.228516</ele>
        <time>2011-07-20T12:39:12Z</time>
      </trkpt>
      <trkpt lat="44.4249" lon="6.15239">
        <ele>1027.786621</ele>
        <time>2011-07-20T12:39:14Z</time>
      </trkpt>
      <trkpt lat="44.42473" lon="6.15228">
        <ele>1025.864014</ele>
        <time>2011-07-20T12:39:17Z</time>
      </trkpt>
      <trkpt lat="44.42455" lon="6.15201">
        <ele>1024.422119</ele>
        <time>2011-07-20T12:39:25Z</time>
      </trkpt>
      <trkpt lat="44.42453" lon="6.15197">
        <ele>1024.422119</ele>
        <time>2011-07-20T12:39:26Z</time>
      </trkpt>
      <trkpt lat="44.4242" lon="6.15177">
        <ele>1022.499512</ele>
        <time>2011-07-20T12:39:28Z</time>
      </trkpt>
      <trkpt lat="44.42396" lon="6.15178">
        <ele>1021.057617</ele>
        <time>2011-07-20T12:39:33Z</time>
      </trkpt>
      <trkpt lat="44.42394" lon="6.15178">
        <ele>1020.576904</ele>
        <time>2011-07-20T12:39:34Z</time>
      </trkpt>
      <trkpt lat="44.4239" lon="6.15179">
        <ele>1018.654053</ele>
        <time>2011-07-20T12:39:40Z</time>
      </trkpt>
      <trkpt lat="44.42393" lon="6.15174">
        <ele>1015.770264</ele>
        <time>2011-07-20T12:39:48Z</time>
      </trkpt>
      <trkpt lat="44.42427" lon="6.15176">
        <ele>1014.328125</ele>
        <time>2011-07-20T12:39:52Z</time>
      </trkpt>
      <trkpt lat="44.42439" lon="6.15182">
        <ele>1013.847412</ele>
        <time>2011-07-20T12:39:54Z</time>
      </trkpt>
      <trkpt lat="44.42444" lon="6.15185">
        <ele>1013.366943</ele>
        <time>2011-07-20T12:39:56Z</time>
      </trkpt>
      <trkpt lat="44.42438" lon="6.15181">
        <ele>1011.925049</ele>
        <time>2011-07-20T12:40:02Z</time>
      </trkpt>
      <trkpt lat="44.42431" lon="6.15176">
        <ele>1009.521729</ele>
        <time>2011-07-20T12:40:04Z</time>
      </trkpt>
      <trkpt lat="44.42417" lon="6.15177">
        <ele>1006.156982</ele>
        <time>2011-07-20T12:40:10Z</time>
      </trkpt>
      <trkpt lat="44.42417" lon="6.15177">
        <ele>1006.156982</ele>
        <time>2011-07-20T12:40:25Z</time>
      </trkpt>
      <trkpt lat="44.42404" lon="6.15178">
        <ele>1001.350342</ele>
        <time>2011-07-20T12:40:36Z</time>
      </trkpt>
      <trkpt lat="44.42399" lon="6.15178">
        <ele>1000.869629</ele>
        <time>2011-07-20T12:40:37Z</time>
      </trkpt>
      <trkpt lat="44.42373" lon="6.15183">
        <ele>998.466309</ele>
        <time>2011-07-20T12:40:42Z</time>
      </trkpt>
      <trkpt lat="44.42328" lon="6.15121">
        <ele>997.98584</ele>
        <time>2011-07-20T12:40:46Z</time>
      </trkpt>
      <trkpt lat="44.42317" lon="6.15129">
        <ele>996.063232</ele>
        <time>2011-07-20T12:40:49Z</time>
      </trkpt>
      <trkpt lat="44.423" lon="6.15134">
        <ele>991.256592</ele>
        <time>2011-07-20T12:40:53Z</time>
      </trkpt>
      <trkpt lat="44.42295" lon="6.15134">
        <ele>991.256592</ele>
        <time>2011-07-20T12:40:54Z</time>
      </trkpt>
      <trkpt lat="44.42281" lon="6.15239">
        <ele>988.853516</ele>
        <time>2011-07-20T12:41:01Z</time>
      </trkpt>
      <trkpt lat="44.42281" lon="6.15239">
        <ele>988.372803</ele>
        <time>2011-07-20T12:41:02Z</time>
      </trkpt>
      <trkpt lat="44.42287" lon="6.15127">
        <ele>985.488525</ele>
        <time>2011-07-20T12:41:07Z</time>
      </trkpt>
      <trkpt lat="44.42326" lon="6.15217">
        <ele>984.527344</ele>
        <time>2011-07-20T12:41:10Z</time>
      </trkpt>
      <trkpt lat="44.42301" lon="6.15085">
        <ele>979.23999</ele>
        <time>2011-07-20T12:41:14Z</time>
      </trkpt>
      <trkpt lat="44.42303" lon="6.15075">
        <ele>979.23999</ele>
        <time>2011-07-20T12:41:15Z</time>
      </trkpt>
      <trkpt lat="44.42307" lon="6.15056">
        <ele>977.798096</ele>
        <time>2011-07-20T12:41:17Z</time>
      </trkpt>
      <trkpt lat="44.42311" lon="6.15038">
        <ele>977.317627</ele>
        <time>2011-07-20T12:41:19Z</time>
      </trkpt>
      <trkpt lat="44.42318" lon="6.15012">
        <ele>975.394775</ele>
        <time>2011-07-20T12:41:22Z</time>
      </trkpt>
      <trkpt lat="44.42323" lon="6.14993">
        <ele>975.394775</ele>
        <time>2011-07-20T12:41:24Z</time>
      </trkpt>
      <trkpt lat="44.42322" lon="6.14997">
        <ele>973.472412</ele>
        <time>2011-07-20T12:41:31Z</time>
      </trkpt>
      <trkpt lat="44.42319" lon="6.15007">
        <ele>971.068848</ele>
        <time>2011-07-20T12:41:33Z</time>
      </trkpt>
      <trkpt lat="44.42315" lon="6.15021">
        <ele>969.626953</ele>
        <time>2011-07-20T12:41:35Z</time>
      </trkpt>
      <trkpt lat="44.42312" lon="6.15032">
        <ele>968.184814</ele>
        <time>2011-07-20T12:41:38Z</time>
      </trkpt>
      <trkpt lat="44.4231" lon="6.15042">
        <ele>967.704102</ele>
        <time>2011-07-20T12:41:47Z</time>
      </trkpt>
      <trkpt lat="44.4231" lon="6.15042">
        <ele>968.184814</ele>
        <time>2011-07-20T12:42:02Z</time>
      </trkpt>
      <trkpt lat="44.42308" lon="6.15053">
        <ele>966.74292</ele>
        <time>2011-07-20T12:42:07Z</time>
      </trkpt>
      <trkpt lat="44.42285" lon="6.15034">
        <ele>964.3396</ele>
        <time>2011-07-20T12:42:12Z</time>
      </trkpt>
      <trkpt lat="44.42283" lon="6.15013">
        <ele>962.416992</ele>
        <time>2011-07-20T12:42:14Z</time>
      </trkpt>
      <trkpt lat="44.42285" lon="6.15009">
        <ele>959.533203</ele>
        <time>2011-07-20T12:42:16Z</time>
      </trkpt>
      <trkpt lat="44.423" lon="6.14975">
        <ele>958.571777</ele>
        <time>2011-07-20T12:42:27Z</time>
      </trkpt>
      <trkpt lat="44.423" lon="6.14975">
        <ele>960.013672</ele>
        <time>2011-07-20T12:42:44Z</time>
      </trkpt>
      <trkpt lat="44.423" lon="6.14975">
        <ele>960.013672</ele>
        <time>2011-07-20T12:42:57Z</time>
      </trkpt>
      <trkpt lat="44.42299" lon="6.14962">
        <ele>958.571777</ele>
        <time>2011-07-20T12:43:00Z</time>
      </trkpt>
      <trkpt lat="44.42283" lon="6.14955">
        <ele>955.207031</ele>
        <time>2011-07-20T12:43:05Z</time>
      </trkpt>
      <trkpt lat="44.42281" lon="6.14964">
        <ele>954.726318</ele>
        <time>2011-07-20T12:43:08Z</time>
      </trkpt>
      <trkpt lat="44.42277" lon="6.14985">
        <ele>951.842529</ele>
        <time>2011-07-20T12:43:10Z</time>
      </trkpt>
      <trkpt lat="44.42225" lon="6.14973">
        <ele>951.361816</ele>
        <time>2011-07-20T12:43:15Z</time>
      </trkpt>
      <trkpt lat="44.42243" lon="6.14919">
        <ele>949.919922</ele>
        <time>2011-07-20T12:43:22Z</time>
      </trkpt>
      <trkpt lat="44.42254" lon="6.14915">
        <ele>947.516602</ele>
        <time>2011-07-20T12:43:24Z</time>
      </trkpt>
      <trkpt lat="44.4226" lon="6.14913">
        <ele>945.593994</ele>
        <time>2011-07-20T12:43:25Z</time>
      </trkpt>
      <trkpt lat="44.42286" lon="6.14931">
        <ele>947.035889</ele>
        <time>2011-07-20T12:43:29Z</time>
      </trkpt>
      <trkpt lat="44.42267" lon="6.14928">
        <ele>945.593994</ele>
        <time>2011-07-20T12:43:34Z</time>
      </trkpt>
      <trkpt lat="44.42264" lon="6.14931">
        <ele>945.113281</ele>
        <time>2011-07-20T12:43:35Z</time>
      </trkpt>
      <trkpt lat="44.42253" lon="6.14916">
        <ele>944.1521</ele>
        <time>2011-07-20T12:43:38Z</time>
      </trkpt>
      <trkpt lat="44.42246" lon="6.14918">
        <ele>943.190674</ele>
        <time>2011-07-20T12:43:40Z</time>
      </trkpt>
      <trkpt lat="44.42245" lon="6.14918">
        <ele>942.229492</ele>
        <time>2011-07-20T12:43:41Z</time>
      </trkpt>
      <trkpt lat="44.42235" lon="6.14922">
        <ele>941.268066</ele>
        <time>2011-07-20T12:43:43Z</time>
      </trkpt>
      <trkpt lat="44.4222" lon="6.14926">
        <ele>937.422607</ele>
        <time>2011-07-20T12:43:48Z</time>
      </trkpt>
      <trkpt lat="44.42214" lon="6.14924">
        <ele>935.5</ele>
        <time>2011-07-20T12:43:54Z</time>
      </trkpt>
      <trkpt lat="44.4219" lon="6.14917">
        <ele>936.941895</ele>
        <time>2011-07-20T12:43:57Z</time>
      </trkpt>
      <trkpt lat="44.4219" lon="6.14917">
        <ele>937.422607</ele>
        <time>2011-07-20T12:44:19Z</time>
      </trkpt>
      <trkpt lat="44.42159" lon="6.14928">
        <ele>937.90332</ele>
        <time>2011-07-20T12:44:33Z</time>
      </trkpt>
      <trkpt lat="44.42107" lon="6.14939">
        <ele>939.825928</ele>
        <time>2011-07-20T12:44:49Z</time>
      </trkpt>
      <trkpt lat="44.42072" lon="6.14952">
        <ele>941.268066</ele>
        <time>2011-07-20T12:45:02Z</time>
      </trkpt>
      <trkpt lat="44.42095" lon="6.14943">
        <ele>940.787354</ele>
        <time>2011-07-20T12:45:15Z</time>
      </trkpt>
      <trkpt lat="44.4209" lon="6.14945">
        <ele>939.345215</ele>
        <time>2011-07-20T12:45:18Z</time>
      </trkpt>
      <trkpt lat="44.42102" lon="6.15086">
        <ele>938.864746</ele>
        <time>2011-07-20T12:45:22Z</time>
      </trkpt>
      <trkpt lat="44.42061" lon="6.15177">
        <ele>936.461426</ele>
        <time>2011-07-20T12:45:34Z</time>
      </trkpt>
      <trkpt lat="44.4202" lon="6.15317">
        <ele>931.654785</ele>
        <time>2011-07-20T12:45:49Z</time>
      </trkpt>
      <trkpt lat="44.42018" lon="6.15329">
        <ele>931.654785</ele>
        <time>2011-07-20T12:45:50Z</time>
      </trkpt>
      <trkpt lat="44.42011" lon="6.1538">
        <ele>927.329102</ele>
        <time>2011-07-20T12:45:54Z</time>
      </trkpt>
      <trkpt lat="44.42009" lon="6.15393">
        <ele>927.80957</ele>
        <time>2011-07-20T12:45:55Z</time>
      </trkpt>
      <trkpt lat="44.42" lon="6.15448">
        <ele>928.290283</ele>
        <time>2011-07-20T12:45:59Z</time>
      </trkpt>
      <trkpt lat="44.41994" lon="6.15488">
        <ele>926.367676</ele>
        <time>2011-07-20T12:46:02Z</time>
      </trkpt>
      <trkpt lat="44.42009" lon="6.15614">
        <ele>922.522217</ele>
        <time>2011-07-20T12:46:08Z</time>
      </trkpt>
      <trkpt lat="44.42004" lon="6.15622">
        <ele>922.522217</ele>
        <time>2011-07-20T12:46:09Z</time>
      </trkpt>
      <trkpt lat="44.41993" lon="6.15638">
        <ele>921.560791</ele>
        <time>2011-07-20T12:46:11Z</time>
      </trkpt>
      <trkpt lat="44.41986" lon="6.15647">
        <ele>921.080322</ele>
        <time>2011-07-20T12:46:12Z</time>
      </trkpt>
      <trkpt lat="44.41975" lon="6.15675">
        <ele>917.235107</ele>
        <time>2011-07-20T12:46:15Z</time>
      </trkpt>
      <trkpt lat="44.41976" lon="6.1569">
        <ele>917.235107</ele>
        <time>2011-07-20T12:46:16Z</time>
      </trkpt>
      <trkpt lat="44.41978" lon="6.15722">
        <ele>915.793213</ele>
        <time>2011-07-20T12:46:18Z</time>
      </trkpt>
      <trkpt lat="44.41982" lon="6.15775">
        <ele>914.831787</ele>
        <time>2011-07-20T12:46:22Z</time>
      </trkpt>
      <trkpt lat="44.41976" lon="6.15835">
        <ele>912.428467</ele>
        <time>2011-07-20T12:46:27Z</time>
      </trkpt>
      <trkpt lat="44.41975" lon="6.15874">
        <ele>910.986572</ele>
        <time>2011-07-20T12:46:30Z</time>
      </trkpt>
      <trkpt lat="44.41959" lon="6.1598">
        <ele>908.583252</ele>
        <time>2011-07-20T12:46:39Z</time>
      </trkpt>
      <trkpt lat="44.41952" lon="6.16014">
        <ele>908.583252</ele>
        <time>2011-07-20T12:46:42Z</time>
      </trkpt>
      <trkpt lat="44.4189" lon="6.16045">
        <ele>908.102783</ele>
        <time>2011-07-20T12:46:45Z</time>
      </trkpt>
      <trkpt lat="44.4189" lon="6.16045">
        <ele>907.141113</ele>
        <time>2011-07-20T12:46:47Z</time>
      </trkpt>
      <trkpt lat="44.4189" lon="6.16045">
        <ele>909.063965</ele>
        <time>2011-07-20T12:46:50Z</time>
      </trkpt>
      <trkpt lat="44.4189" lon="6.16045">
        <ele>910.986572</ele>
        <time>2011-07-20T12:46:52Z</time>
      </trkpt>
      <trkpt lat="44.4189" lon="6.16045">
        <ele>910.986572</ele>
        <time>2011-07-20T12:46:53Z</time>
      </trkpt>
      <trkpt lat="44.4189" lon="6.16045">
        <ele>911.947998</ele>
        <time>2011-07-20T12:47:08Z</time>
      </trkpt>
      <trkpt lat="44.4189" lon="6.16045">
        <ele>909.544678</ele>
        <time>2011-07-20T12:47:25Z</time>
      </trkpt>
      <trkpt lat="44.4189" lon="6.16045">
        <ele>913.389893</ele>
        <time>2011-07-20T12:47:26Z</time>
      </trkpt>
      <trkpt lat="44.4189" lon="6.16045">
        <ele>913.389893</ele>
        <time>2011-07-20T12:47:27Z</time>
      </trkpt>
      <trkpt lat="44.4189" lon="6.16045">
        <ele>911.947998</ele>
        <time>2011-07-20T12:47:29Z</time>
      </trkpt>
      <trkpt lat="44.4189" lon="6.16045">
        <ele>911.467285</ele>
        <time>2011-07-20T12:47:54Z</time>
      </trkpt>
      <trkpt lat="44.4189" lon="6.16045">
        <ele>912.428467</ele>
        <time>2011-07-20T12:48:23Z</time>
      </trkpt>
      <trkpt lat="44.4189" lon="6.16045">
        <ele>911.467285</ele>
        <time>2011-07-20T12:48:52Z</time>
      </trkpt>
      <trkpt lat="44.4189" lon="6.16045">
        <ele>912.90918</ele>
        <time>2011-07-20T12:49:07Z</time>
      </trkpt>
      <trkpt lat="44.4189" lon="6.16045">
        <ele>910.986572</ele>
        <time>2011-07-20T12:49:09Z</time>
      </trkpt>
      <trkpt lat="44.4189" lon="6.16045">
        <ele>912.428467</ele>
        <time>2011-07-20T12:49:11Z</time>
      </trkpt>
      <trkpt lat="44.4189" lon="6.16045">
        <ele>912.90918</ele>
        <time>2011-07-20T12:49:18Z</time>
      </trkpt>
      <trkpt lat="44.4189" lon="6.16045">
        <ele>911.467285</ele>
        <time>2011-07-20T12:49:21Z</time>
      </trkpt>
      <trkpt lat="44.4189" lon="6.16045">
        <ele>913.870361</ele>
        <time>2011-07-20T12:49:42Z</time>
      </trkpt>
      <trkpt lat="44.4189" lon="6.16045">
        <ele>911.947998</ele>
        <time>2011-07-20T12:49:44Z</time>
      </trkpt>
      <trkpt lat="44.4189" lon="6.16045">
        <ele>913.389893</ele>
        <time>2011-07-20T12:49:49Z</time>
      </trkpt>
      <trkpt lat="44.4189" lon="6.16045">
        <ele>911.467285</ele>
        <time>2011-07-20T12:51:06Z</time>
      </trkpt>
      <trkpt lat="44.41886" lon="6.16113">
        <ele>912.428467</ele>
        <time>2011-07-20T12:51:18Z</time>
      </trkpt>
      <trkpt lat="44.41867" lon="6.16118">
        <ele>910.025146</ele>
        <time>2011-07-20T12:51:24Z</time>
      </trkpt>
      <trkpt lat="44.41864" lon="6.16121">
        <ele>910.505859</ele>
        <time>2011-07-20T12:51:25Z</time>
      </trkpt>
      <trkpt lat="44.4184" lon="6.16148">
        <ele>907.141113</ele>
        <time>2011-07-20T12:51:36Z</time>
      </trkpt>
      <trkpt lat="44.41838" lon="6.16153">
        <ele>907.141113</ele>
        <time>2011-07-20T12:51:37Z</time>
      </trkpt>
    </trkseg>
  </trk>
</gpx>